[[{"header":{"parameterUnit":"m.s-1","parameterCategory":1,"la1":31.0,"la2":29.5877,"lo1":-88.7671,"lo2":-86.6584,"dx":0.0162,"dy":0.0185,"nx":115,"ny":88,"refTime":"2023-01-05T18:00:00:Z","depth":0,"parameterNumber":2,"parameterNumberName":"U-component_of_WINDS"},"data":[0.0,0.0,0.0,0.0,0.0,0.0,0.0,0.0,0.0,0.0,0.0,0.0,0.0,0.0,0.0,0.0,0.0,0.0,0.0,0.0,0.0,0.0,0.0,0.0,0.0,0.0,0.0,0.0,0.0,0.0,0.0,0.0,0.0,0.0,0.0,0.0,0.0,0.0,0.0,0.0,0.0,0.0,0.0,0.0,0.0,0.0,0.0,0.0,0.0,0.0,0.0,0.0,0.0,0.0,0.0,0.0,0.0,0.0,0.0,0.0,0.0,0.0,0.0,0.0,0.0,0.0,0.0,0.0,0.0,0.0,0.0,0.0,0.0,0.0,0.0,0.0,0.0,0.0,0.0,0.0,0.0,0.0,0.0,0.0,0.0,0.0,0.0,0.0,0.0,0.0,0.0,0.0,0.0,0.0,0.0,0.0,0.0,0.0,0.0,0.0,0.0,0.0,0.0,0.0,0.0,0.0,0.0,0.0,0.0,0.0,0.0,0.0,0.0,0.0,0.0,0.0,0.0,0.0,0.0,0.0,0.0,0.0,0.0,0.0,0.0,0.0,0.0,0.0,0.0,0.0,0.0,0.0,0.0,0.0,0.0,0.0,0.0,0.0,0.0,0.0,0.0,0.0,0.0,0.0,0.0,0.0,0.0,0.0,0.0,0.0,0.0,0.0,0.0,0.0,0.0,0.0,0.0,0.0,0.0,0.0,0.0,0.0,0.0,0.0,0.0,0.0,0.0,0.0,0.0,0.0,0.0,0.0,0.0,0.0,0.0,0.0,0.0,0.0,0.0,0.0,0.0,0.0,0.0,0.0,0.0,0.0,0.0,0.0,0.0,0.0,0.0,0.0,0.0,0.0,0.0,0.0,0.0,0.0,0.0,0.0,0.0,0.0,0.0,0.0,0.0,0.0,0.0,0.0,0.0,0.0,0.0,0.0,0.0,0.0,0.0,0.0,0.0,0.0,0.0,0.0,0.0,0.0,0.0,0.0,0.0,0.0,0.0,0.0,0.0,0.0,0.0,0.0,0.0,0.0,0.0,0.0,0.0,0.0,0.0,0.0,0.0,0.0,0.0,0.0,0.0,0.0,0.0,0.0,0.0,0.0,0.0,0.0,0.0,0.0,0.0,0.0,0.0,0.0,0.0,0.0,0.0,0.0,0.0,0.0,0.0,0.0,0.0,0.0,0.0,0.0,0.0,0.0,0.0,0.0,0.0,0.0,0.0,0.0,0.0,0.0,0.0,0.0,0.0,0.0,0.0,0.0,0.0,0.0,0.0,0.0,0.0,0.0,0.0,0.0,0.0,0.0,0.0,0.0,0.0,0.0,0.0,0.0,0.0,0.0,0.0,0.0,0.0,0.0,0.0,0.0,0.0,0.0,0.0,0.0,0.0,0.0,0.0,0.0,0.0,0.0,0.0,0.0,0.0,0.0,0.0,0.0,0.0,0.0,0.0,0.0,0.0,0.0,0.0,0.0,0.0,0.0,0.0,0.0,0.0,0.0,0.0,0.0,0.0,0.0,0.0,0.0,0.0,0.0,0.0,0.0,0.0,0.0,0.0,0.0,0.0,0.0,0.0,0.0,0.0,0.0,0.0,0.0,0.0,0.0,0.0,0.0,0.0,0.0,0.0,0.0,0.0,0.0,0.0,0.0,0.0,0.0,0.0,0.0,0.0,0.0,0.0,0.0,0.0,0.0,0.0,0.0,0.0,0.0,0.0,0.0,0.0,0.0,0.0,0.0,0.0,0.0,0.0,0.0,0.0,0.0,0.0,0.0,0.0,0.0,0.0,0.0,0.0,0.0,0.0,0.0,0.0,0.0,0.0,0.0,0.0,0.0,0.0,0.0,0.0,0.0,0.0,0.0,0.0,0.0,0.0,0.0,0.0,0.0,0.0,0.0,0.0,0.0,0.0,0.0,0.0,0.0,0.0,0.0,0.0,0.0,0.0,0.0,0.0,0.0,0.0,0.0,0.0,0.0,0.0,0.0,0.0,0.0,0.0,0.0,0.0,0.0,0.0,0.0,0.0,0.0,0.0,0.0,0.0,0.0,0.0,0.0,0.0,0.0,0.0,0.0,0.0,0.0,0.0,0.0,0.0,0.0,0.0,0.0,0.0,0.0,0.0,0.0,0.0,0.0,0.0,0.0,0.0,0.0,0.0,0.0,0.0,0.0,0.0,0.0,0.0,0.0,0.0,0.0,0.0,0.0,0.0,0.0,0.0,0.0,0.0,0.0,0.0,0.0,0.0,0.0,0.0,0.0,0.0,0.0,0.0,0.0,0.0,0.0,0.0,0.0,0.0,0.0,0.0,0.0,0.0,0.0,0.0,0.0,0.0,0.0,0.0,0.0,0.0,0.0,0.0,0.0,0.0,0.0,0.0,0.0,0.0,0.0,0.0,0.0,0.0,0.0,0.0,0.0,0.0,0.0,0.0,0.0,0.0,0.0,0.0,0.0,0.0,0.0,0.0,0.0,0.0,0.0,0.0,0.0,0.0,0.0,0.0,0.0,0.0,0.0,0.0,0.0,0.0,0.0,0.0,0.0,0.0,0.0,0.0,0.0,0.0,0.0,0.0,0.0,0.0,0.0,0.0,0.0,0.0,0.0,0.0,0.0,0.0,0.0,0.0,0.0,0.0,0.0,0.0,0.0,0.0,0.0,0.0,0.0,0.0,0.0,0.0,0.0,0.0,0.0,0.0,0.0,0.0,0.0,0.0,0.0,0.0,0.0,0.0,0.0,0.0,0.0,0.0,0.0,0.0,0.0,0.0,0.0,0.0,0.0,0.0,0.0,0.0,0.0,0.0,0.0,0.0,0.0,0.0,0.0,0.0,0.0,0.0,0.0,0.0,0.0,0.0,0.0,0.0,0.0,0.0,0.0,0.0,0.0,0.0,0.0,0.0,0.0,0.0,0.0,0.0,0.0,0.0,0.0,0.0,0.0,0.0,0.0,0.0,0.0,0.0,0.0,0.0,0.0,0.0,0.0,0.0,0.0,0.0,0.0,0.0,0.0,0.0,0.0,0.0,0.0,0.0,0.0,0.0,0.0,0.0,0.0,0.0,0.0,0.0,0.0,0.0,0.0,0.0,0.0,0.0,0.0,0.0,0.0,0.0,0.0,0.0,0.0,0.0,0.0,0.0,0.0,0.0,0.0,0.0,0.0,0.0,0.0,0.0,0.0,0.0,0.0,0.0,0.0,0.0,0.0,0.0,0.0,0.0,0.0,0.0,0.0,0.0,0.0,0.0,0.0,0.0,0.0,0.0,0.0,0.0,0.0,0.0,0.0,0.0,0.0,0.0,0.0,0.0,0.0,0.0,0.0,0.0,0.0,0.0,0.0,0.0,0.0,0.0,0.0,0.0,0.0,0.0,0.0,0.0,0.0,0.0,0.0,0.0,0.0,0.0,0.0,0.0,0.0,0.0,0.0,0.0,0.0,0.0,0.0,0.0,0.0,0.0,0.0,0.0,0.0,0.0,0.0,0.0,0.0,0.0,0.0,0.0,0.0,0.0,0.0,0.0,0.0,0.0,0.0,0.0,0.0,0.0,0.0,0.0,0.0,0.0,0.0,0.0,0.0,0.0,0.0,0.0,0.0,0.0,0.0,0.0,0.0,0.0,0.0,0.0,0.0,0.0,0.0,0.0,0.0,0.0,0.0,0.0,0.0,0.0,0.0,0.0,0.0,0.0,0.0,0.0,0.0,0.0,0.0,0.0,0.0,0.0,0.0,0.0,0.0,0.0,0.0,0.0,0.0,0.0,0.0,0.0,0.0,0.0,0.0,0.0,0.0,0.0,0.0,0.0,0.0,0.0,0.0,0.0,0.0,0.0,0.0,0.0,0.0,0.0,0.0,0.0,0.0,0.0,0.0,0.0,0.0,0.0,0.0,0.0,0.0,0.0,0.0,0.0,0.0,0.0,0.0,0.0,0.0,0.0,0.0,0.0,0.0,0.0,0.0,0.0,0.0,0.0,0.0,0.0,0.0,0.0,0.0,0.0,0.0,0.0,0.0,0.0,0.0,0.0,0.0,0.0,0.0,0.0,0.0,0.0,0.0,0.0,0.0,0.0,0.0,0.0,0.0,0.0,0.0,0.0,0.0,0.0,0.0,0.0,0.0,0.0,0.0,0.0,0.0,0.0,0.0,0.0,0.0,0.0,0.0,0.0,0.0,0.0,0.0,0.0,0.0,0.0,0.0,0.0,0.0,0.0,0.0,0.0,0.0,0.0,0.0,0.0,0.0,0.0,0.0,0.3477,0.0,0.0,0.0,0.2636,0.0,0.0,0.0,0.0,0.0,0.0,0.0,0.0,0.0,0.0,0.0,0.0,0.0,0.0,0.0,0.0,0.0,0.0,0.0,0.0,0.0,0.0,0.0,0.0,0.0,0.0,0.0,0.0,0.0,0.0,0.0,0.0,0.0,0.0,0.0,0.0,0.0,0.0,0.0,0.0,0.0,0.0,0.0,0.0,0.0,0.0,0.0,0.0,0.0,0.0,0.0,0.0,0.0,0.0,0.0,0.0,0.0,0.0,0.0,0.0,0.0,0.0,0.0,0.0,0.0,0.0,0.0,0.0,0.0,0.0,0.0,0.0,0.0,0.0,0.0,0.0,0.0,0.0,0.0,0.0,0.0,0.0,0.0,0.0,0.0,0.0,0.0,0.0,0.0,0.0,0.0,0.0,0.0,0.0,0.0,0.0,0.0,0.0,0.0,0.0,0.0,0.0,0.0,0.0,0.0,0.0,0.0,0.0,0.0,0.0,0.3468,0.3214,0.3579,0.3403,0.2558,0.0,0.0,0.0,0.0,0.0,0.0,0.0,0.0,0.0,0.0,0.0,0.0,0.0,0.0,0.0,0.0,0.0,0.0,0.0,0.0,0.0,0.0,0.0,0.0,0.0,0.0,0.0,0.0,0.0,0.0,0.0,0.0,0.0,0.0,0.0,0.0,0.0,0.0,0.0,0.0,0.0,0.0,0.0,0.0,0.0,0.0,0.0,0.0,0.0,0.0,0.0,0.0,0.0,0.0,0.0,0.0,0.0,0.0,0.0,0.0,0.0,0.0,0.0,0.0,0.0,0.0,0.0,0.0,0.0,0.0,0.0,0.0,0.0,0.0,0.0,0.0,0.0,0.0,0.0,0.0,0.0,0.0,0.0,0.0,0.0,0.0,0.0,0.0,0.0,0.0,0.0,0.0,0.0,0.0,0.0,0.0,0.0,0.0,0.0,0.0,0.0,0.0,0.0,0.0,0.0,0.0,0.0,0.0,0.0,0.0,0.0,0.0,0.3694,0.3489,0.2625,0.0,0.0,0.0,0.0,0.0,0.0,0.0,0.0,0.0,0.0,0.0,0.0,0.0,0.0,0.0,0.0,0.0,0.0,0.0,0.0,0.0,0.0,0.0,0.0,0.0,0.0,0.0,0.0,0.0,0.0,0.0,0.0,0.0,0.0,0.0,0.0,0.0,0.0,0.0,0.0,0.0,0.0,0.0,0.0,0.0,0.0,0.0,0.0,0.0,0.0,0.0,0.0,0.0,0.0,0.0,0.0,0.0,0.0,0.0,0.0,0.0,0.0,0.0,0.0,0.0,0.0,0.0,0.0,0.0,0.0,0.0,0.0,0.0,0.0,0.0,0.0,0.0,0.0,0.0,0.0,0.0,0.0,0.0,0.0,0.0,0.0,0.0,0.0,0.0,0.0,0.0,0.0,0.0,0.0,0.0,0.0,0.0,0.0,0.0,0.0,0.0,0.0,0.0,0.0,0.0,0.0,0.0,0.0,0.0,0.0,0.3346,0.3561,0.3615,0.0,0.2895,0.0,0.0,0.0,0.0,0.0,0.0,0.0,0.0,0.0,0.0,0.0,0.0,0.0,0.0,0.0,0.0,0.0,0.0,0.0,0.0,0.0,0.0,0.0,0.0,0.0,0.0,0.0,0.0,0.0,0.0,0.0,0.0,0.0,0.0,0.0,0.0,0.0,0.0,0.0,0.0,0.0,0.0,0.0,0.0,0.0,0.0,0.0,0.0,0.0,0.0,0.0,0.0,0.0,0.0,0.0,0.0,0.0,0.0,0.0,0.0,0.0,0.0,0.0,0.0,0.0,0.0,0.0,0.0,0.0,0.0,0.0,0.0,0.0,0.0,0.0,0.0,0.0,0.0,0.0,0.0,0.0,0.0,0.0,0.0,0.0,0.0,0.0,0.0,0.0,0.0,0.0,0.0,0.0,0.0,0.0,0.0,0.0,0.0,0.0,0.0,0.0,0.0,0.0,0.0,0.0,0.0,0.0,0.0,0.0,0.0,0.3456,0.3591,0.3453,0.3146,0.0,0.0,0.0,0.0,0.0,0.0,0.0,0.0,0.0,0.0,0.0,0.0,0.0,0.0,0.0,0.0,0.0,0.0,0.0,0.0,0.0,0.0,0.0,0.0,0.0,0.0,0.0,0.0,0.0,0.0,0.0,0.0,0.0,0.0,0.0,0.0,0.0,0.0,0.0,0.0,0.0,0.0,0.0,0.0,0.0,0.0,0.0,0.0,0.0,0.0,0.0,0.0,0.0,0.0,0.0,0.0,0.0,0.0,0.0,0.0,0.0,0.0,0.0,0.0,0.0,0.0,0.0,0.0,0.0,0.0,0.0,0.0,0.0,0.0,0.0,0.0,0.0,0.0,0.0,0.0,0.0,0.0,0.0,0.0,0.0,0.0,0.0,0.0,0.0,0.0,0.0,0.0,0.0,0.0,0.0,0.0,0.0,0.0,0.0,0.0,0.0,0.0,0.0,0.0,0.0,0.0,0.0,0.0,0.0,0.0,0.3659,0.3651,0.3688,0.3464,0.3106,0.2715,0.0,0.0,0.0,0.0,0.0,0.0,0.0,0.0,0.0,0.0,0.0,0.0,0.0,0.0,0.0,0.0,0.0,0.0,0.0,0.0,0.0,0.0,0.0,0.0,0.0,0.0,0.0,0.0,0.0,0.0,0.0,0.0,0.0,0.0,0.0,0.0,0.0,0.0,0.0,0.0,0.0,0.0,0.0,0.0,0.0,0.0,0.0,0.0,0.0,0.0,0.0,0.0,0.0,0.0,0.0,0.0,0.0,0.0,0.0,0.0,0.0,0.0,0.0,0.0,0.0,0.0,0.0,0.0,0.0,0.0,0.0,0.0,0.0,0.0,0.0,0.0,0.0,0.0,0.0,0.0,0.0,0.0,0.0,0.0,0.0,0.0,0.0,0.0,0.0,0.0,0.0,0.0,0.0,0.0,0.0,0.0,0.0,0.0,0.0,0.0,0.0,0.0,0.0,0.0,0.0,0.0,0.0,0.0,0.425,0.4004,0.3917,0.3976,0.3731,0.3447,0.0,0.0,0.0,0.0,0.0,0.0,0.0,0.0,0.0,0.0,0.0,0.0,0.0,0.0,0.0,0.0,0.0,0.0,0.0,0.0,0.0,0.0,0.0,0.0,0.0,0.0,0.0,0.0,0.0,0.0,0.0,0.0,0.0,0.0,0.0,0.0,0.0,0.0,0.0,0.0,0.0,0.0,0.0,0.0,0.0,0.0,0.0,0.0,0.0,0.0,0.0,0.0,0.0,0.0,0.0,0.0,0.0,0.0,0.0,0.0,0.0,0.0,0.0,0.0,0.0,0.0,0.0,0.0,0.0,0.0,0.0,0.0,0.0,0.0,0.0,0.0,0.0,0.0,0.0,0.0,0.0,0.0,0.0,0.0,0.0,0.0,0.0,0.0,0.0,0.0,0.0,0.0,0.0,0.0,0.0,0.0,0.0,0.0,0.0,0.0,0.0,0.0,0.0,0.0,0.0,0.0,0.0,0.0,0.0,0.399,0.3816,0.3743,0.3793,0.3676,0.3507,0.0,0.0,0.0,0.0,0.0,0.0,0.0,0.0,0.0,0.0,0.0,0.0,0.0,0.0,0.0,0.0,0.0,0.0,0.0,0.0,0.0,0.0,0.0,0.0,0.0,0.0,0.0,0.0,0.0,0.0,0.0,0.0,0.0,0.0,0.0,0.0,0.0,0.0,0.0,0.0,0.0,0.0,0.0,0.0,0.0,0.0,0.0,0.0,0.0,0.0,0.0,0.0,0.0,0.0,0.0,0.0,0.0,0.0,0.0,0.0,0.0,0.0,0.0,0.0,0.0,0.0,0.0,0.0,0.0,0.0,0.0,0.0,0.0,0.0,0.0,0.0,0.0,0.0,0.0,0.0,0.0,0.0,0.0,0.0,0.0,0.0,0.0,0.0,0.0,0.0,0.0,0.0,0.0,0.0,0.0,0.0,0.0,0.0,0.0,0.0,0.0,0.0,0.0,0.0,0.0,0.0,0.0,0.0,0.0,0.3991,0.3941,0.3873,0.3811,0.3718,0.3537,0.0,0.0,0.0,0.0,0.0,0.0,0.0,0.0,0.0,0.0,0.0,0.0,0.0,0.0,0.0,0.0,0.0,0.0,0.0,0.0,0.0,0.0,0.0,0.0,0.0,0.0,0.0,0.0,0.0,0.0,0.0,0.0,0.0,0.0,0.0,0.0,0.0,0.0,0.0,0.0,0.0,0.0,0.0,0.0,0.0,0.0,0.0,0.0,0.0,0.0,0.0,0.0,0.0,0.0,0.0,0.0,0.0,0.0,0.0,0.0,0.0,0.0,0.0,0.0,0.0,0.0,0.0,0.0,0.0,0.0,0.0,0.0,0.0,0.0,0.0,0.0,0.0,0.0,0.0,0.0,0.0,0.0,0.0,0.0,0.0,0.0,0.0,0.0,0.0,0.0,0.0,0.0,0.0,0.0,0.0,0.0,0.0,0.0,0.0,0.0,0.0,0.0,0.0,0.0,0.0,0.0,0.0,0.0,0.426,0.4388,0.4495,0.441,0.4123,0.3849,0.3563,0.0,0.0,0.0,0.0,0.0,0.0,0.0,0.0,0.0,0.0,0.0,0.0,0.0,0.0,0.0,0.0,0.0,0.0,0.0,0.0,0.0,0.0,0.0,0.0,0.0,0.0,0.0,0.0,0.0,0.0,0.0,0.0,0.0,0.0,0.0,0.0,0.0,0.0,0.0,0.0,0.0,0.0,0.0,0.0,0.0,0.0,0.0,0.0,0.0,0.0,0.0,0.0,0.0,0.0,0.0,0.0,0.0,0.0,0.0,0.0,0.0,0.0,0.0,0.0,0.0,0.0,0.0,0.0,0.0,0.0,0.0,0.0,0.0,0.0,0.0,0.0,0.0,0.0,0.0,0.0,0.0,0.0,0.0,0.0,0.0,0.0,0.0,0.0,0.0,0.0,0.0,0.0,0.0,0.0,0.0,0.0,0.0,0.0,0.0,0.0,0.0,0.0,0.0,0.0,0.0,0.0,0.0,0.0,0.0,0.4137,0.4244,0.4417,0.457,0.4038,0.3888,0.0,0.0,0.0,0.0,0.0,0.0,0.0,0.0,0.0,0.0,0.0,0.0,0.0,0.0,0.0,0.0,0.0,0.0,0.0,0.0,0.0,0.0,0.0,0.0,0.0,0.0,0.0,0.0,0.0,0.0,0.0,0.0,0.0,0.0,0.0,0.0,0.0,0.0,0.0,0.0,0.0,0.0,0.0,0.0,0.0,0.0,0.0,0.0,0.0,0.0,0.0,0.0,0.0,0.0,0.0,0.0,0.0,0.0,0.0,0.0,0.0,0.0,0.0,0.0,0.0,0.0,0.0,0.0,0.0,0.0,0.0,0.0,0.0,0.0,0.0,0.0,0.0,0.0,0.0,0.0,0.0,0.0,0.0,0.0,0.0,0.0,0.0,0.0,0.0,0.0,0.0,0.0,0.0,0.0,0.0,0.0,0.0,0.0,0.0,0.0,0.0,0.0,0.0,0.0,0.0,0.0,0.0,0.0,0.0,0.4442,0.4567,0.4664,0.4778,0.429,0.4105,0.4311,0.0,0.0,0.0,0.0,0.0,0.0,0.0,0.0,0.0,0.0,0.0,0.0,0.0,0.0,0.0,0.0,0.0,0.0,0.0,0.0,0.0,0.0,0.0,0.0,0.0,0.0,0.0,0.0,0.0,0.0,0.0,0.0,0.0,0.0,0.0,0.0,0.0,0.0,0.0,0.0,0.0,0.0,0.0,0.0,0.0,0.0,0.0,0.0,0.0,0.0,0.0,0.0,0.0,0.0,0.0,0.0,0.0,0.0,0.0,0.0,0.0,0.0,0.0,0.0,0.0,0.0,0.0,0.0,0.0,0.0,0.0,0.0,0.0,0.0,0.0,0.0,0.0,0.0,0.0,0.0,0.0,0.0,0.0,0.0,0.0,0.0,0.0,0.0,0.0,0.0,0.0,0.0,0.0,0.0,0.0,0.0,0.0,0.0,0.0,0.0,0.0,0.0,0.0,0.0,0.0,0.0,0.0,0.0,0.5194,0.5311,0.519,0.4844,0.4547,0.4225,0.0,0.0,0.0,0.0,0.0,0.0,0.0,0.0,0.0,0.0,0.0,0.0,0.0,0.0,0.0,0.0,0.0,0.0,0.0,0.0,0.0,0.0,0.0,0.0,0.0,0.0,0.0,0.0,0.0,0.0,0.0,0.0,0.0,0.0,0.0,0.0,0.0,0.0,0.0,0.0,0.0,0.0,0.0,0.0,0.0,0.0,0.0,0.0,0.0,0.0,0.0,0.0,0.0,0.0,0.0,0.0,0.0,0.0,0.0,0.0,0.0,0.0,0.0,0.0,0.0,0.0,0.0,0.0,0.0,0.0,0.0,0.0,0.0,0.0,0.0,0.0,0.0,0.0,0.0,0.0,0.0,0.0,0.0,0.0,0.0,0.0,0.0,0.0,0.0,0.0,0.0,0.0,0.0,0.0,0.0,0.0,0.0,0.0,0.0,0.0,0.0,0.0,0.0,0.0,0.0,0.0,0.0,0.0,0.0,0.5277,0.578,0.5792,0.5333,0.5141,0.4794,0.0,0.0,0.0,0.0,0.0,0.0,0.0,0.0,0.0,0.0,0.0,0.0,0.0,0.0,0.0,0.0,0.0,0.0,0.0,0.0,0.0,0.0,0.0,0.0,0.0,0.0,0.0,0.0,0.0,0.0,0.0,0.0,0.0,0.0,0.0,0.0,0.0,0.0,0.0,0.0,0.0,0.0,0.0,0.0,0.0,0.0,0.0,0.0,0.0,0.0,0.0,0.0,0.0,0.0,0.0,0.0,0.0,0.0,0.0,0.0,0.0,0.0,0.0,0.0,0.0,0.0,0.0,0.0,0.0,0.0,0.0,0.0,0.0,0.0,0.0,0.0,0.0,0.0,0.0,0.0,0.0,0.0,0.0,0.0,0.0,0.0,0.0,0.0,0.0,0.0,0.0,0.0,0.0,0.0,0.0,0.0,0.0,0.0,0.0,0.0,0.0,0.0,0.0,0.0,0.0,0.0,0.0,0.0,0.5322,0.5964,0.632,0.6409,0.6242,0.5598,0.5114,0.0,0.0,0.0,0.0,0.0,0.0,0.0,0.0,0.0,0.0,0.0,0.0,0.0,0.0,0.0,0.0,0.0,0.0,0.0,0.0,0.0,0.0,0.0,0.0,0.0,0.0,0.0,0.0,0.0,0.0,0.0,0.0,0.0,0.0,0.0,0.0,0.0,0.0,0.0,0.0,0.0,0.0,0.0,0.0,0.0,0.0,0.0,0.0,0.0,0.0,0.0,0.0,0.0,0.0,0.0,0.0,0.0,0.0,0.0,0.0,0.0,0.0,0.0,0.0,0.0,0.0,0.0,0.0,0.0,0.0,0.0,0.0,0.0,0.0,0.0,0.0,0.0,0.0,0.0,0.0,0.0,0.0,0.0,0.0,0.0,0.0,0.0,0.0,0.0,0.0,0.0,0.0,0.0,0.0,0.0,0.0,0.0,0.0,0.0,0.0,0.0,0.0,0.0,0.0,0.0,0.0,0.0,0.0,0.5889,0.6936,0.692,0.7024,0.7251,0.6001,0.5266,0.0,0.0,0.0,0.0,0.0,0.0,0.0,0.0,0.0,0.0,0.0,0.0,0.0,0.0,0.0,0.0,0.0,0.0,0.0,0.0,0.0,0.0,0.0,0.0,0.0,0.0,0.0,0.0,0.0,0.0,0.0,0.0,0.0,0.0,0.0,0.0,0.0,0.0,0.0,0.0,0.0,0.0,0.0,0.0,0.0,0.0,0.0,0.0,0.0,0.0,0.0,0.0,0.0,0.0,0.0,0.0,0.0,0.0,0.0,0.0,0.0,0.0,0.0,0.0,0.0,0.0,0.0,0.0,0.0,0.0,0.0,0.0,0.0,0.0,0.0,0.0,0.0,0.0,0.0,0.0,0.0,0.0,0.0,0.0,0.0,0.0,0.0,0.0,0.0,0.0,0.0,0.0,0.0,0.0,0.0,0.0,0.0,0.0,0.0,0.0,0.0,0.0,0.0,0.0,0.0,0.0,0.0,0.0,0.6312,0.7251,0.7589,0.7788,0.7808,0.6569,0.547,0.0,0.0,0.0,0.0,0.0,0.0,0.0,0.0,0.0,0.0,0.0,0.0,0.0,0.0,0.0,0.0,0.0,0.0,0.0,0.0,0.0,0.0,0.0,0.0,0.0,0.0,0.0,0.0,0.0,0.0,0.0,0.0,0.0,0.0,0.0,0.0,0.0,0.0,0.0,0.0,0.0,0.0,0.0,0.0,0.0,0.0,0.0,0.0,-0.0714,0.0,0.0,0.0,0.0,0.0,0.0,0.0,0.0,0.0,0.0,0.0,0.0,0.0,0.0,0.0,0.0,0.0,0.0,0.0,0.0,0.0,0.0,0.0,0.0,0.0,0.0,0.0,0.0,0.0,0.0,0.0,0.0,0.0,0.0,0.0,0.0,0.0,0.0,0.0,0.0,0.0,0.0,0.0,0.0,0.0,0.0,0.0,0.0,0.0,0.0,0.0,0.0,0.0,0.0,0.0,0.0,0.0,0.0,0.0,0.6842,0.7738,0.8067,0.827,0.8294,0.6984,0.5916,0.0,0.0,0.0,0.0,0.0,0.0,0.0,0.0,0.0,0.0,0.0,0.0,0.0,0.0,0.0,0.0,0.0,0.0,0.0,0.0,0.0,0.0,0.0,0.0,0.0,0.0,0.0,0.0,0.0,0.0,0.0,0.0,0.0,0.0,0.0,0.0,0.0,0.0,0.0,0.0,0.0,0.0,0.0,0.0,0.0,0.0,0.0,0.0,0.0,0.0,0.0,0.0,0.0,0.0,0.0,0.0,0.0,0.0,0.0,0.0,0.0,0.0,0.0,0.0,0.0,0.0,0.0,0.0,0.0,0.0,0.0,0.0,0.0,0.0,0.0,0.0,0.0,0.0,0.0,0.0,0.0,0.0,0.0,0.0,0.0,0.0,0.0,0.0,0.0,0.0,0.0,0.0,0.0,0.0,0.0,0.0,0.0,0.0,0.0,0.0,0.0,0.0,0.0,0.0,0.0,0.0,0.0,0.6321,0.7311,0.8246,0.849,0.8627,0.8724,0.737,0.6365,0.5843,0.0,0.0,0.0,0.0,0.0,0.0,0.0,0.0,0.0,0.0,0.0,0.0,0.0,0.0,0.0,0.0,0.0,0.0,0.0,0.0,0.0,0.0,0.0,0.0,0.0,0.0,0.0,0.0,0.0,0.0,0.0,0.0,0.0,0.0,0.0,0.0,0.0,0.0,0.0545,0.0291,0.0,0.0,0.0,0.0,0.0,0.0,0.0,0.0,-0.0748,0.0,0.0,0.0,0.0,0.0,0.0,0.0,0.0,0.0,0.0,0.0,0.0,0.0,0.0,0.0,0.0,0.0,0.0,0.0,0.0,0.0,0.0,0.0,0.0,0.0,0.0,0.0,0.0,0.0,0.0,0.0,0.0,0.0,0.0,0.0,0.0,0.0,0.0,0.0,0.0,0.0,0.0,0.0,0.0,0.0,0.0,0.0,0.0,0.0,0.0,0.0,0.0,0.0,0.0,0.0,0.0,0.6087,0.6549,0.7357,0.8575,0.8919,0.9052,0.8935,0.7766,0.6521,0.5137,0.0,0.0,0.0,0.0,0.0,0.0,0.0,0.0,0.0,0.0,0.0,0.0,0.0,0.0,0.0,0.0,0.0,0.0,0.0,0.0,0.0,0.0,0.0,0.0,0.0,0.0,0.0,0.0,0.0,0.0,0.0,0.0,0.0,0.0,0.0,0.0,0.0,0.0,0.0,0.0898,0.0739,0.0,0.0,0.0,0.0,0.0,0.0,0.0,0.0,-0.0786,0.0,0.0,0.0,0.0,0.0,0.0,0.0,0.0,0.0,0.0,0.0,0.0,0.0,0.0,0.0,0.0,0.0,0.0,0.0,0.0,0.0,0.0,0.0,0.0,0.0,0.0,0.0,0.0,0.0,0.0,0.0,0.0,0.0,0.0,0.0,0.0,0.0,0.0,0.0,0.0,0.0,0.0,0.0,0.0,0.0,0.0,0.0,0.0,0.0,0.0,0.0,0.0,0.0,0.0,0.0,0.5992,0.7039,0.8002,0.8889,0.9562,0.966,0.9229,0.8207,0.6915,0.0,0.0,0.0,0.0,0.0,0.0,0.0,0.0,0.0,0.0,0.0,0.0,0.0,0.0,0.0,0.0,0.0,0.0,0.0,0.0,0.0,0.0,0.0,0.0,0.0,0.0,0.0,0.0,0.0,0.0,0.0,0.0,0.0,0.0,0.0,0.0,0.0,0.0,0.0,0.0,0.0956,0.0764,0.0798,0.0,0.0,0.0,0.0,0.0,0.0,-0.0556,-0.0726,0.0,0.0,0.0,0.0,0.0,0.0,0.0,0.0,0.0,0.0,0.0,0.0,0.0,0.0,0.0,0.0,0.0,0.0,0.0,0.0,0.0,0.0,0.0,0.0,0.0,0.0,0.0,0.0,0.0,0.0,0.0,0.0,0.0,0.0,0.0,0.0,0.0,0.0,0.0,0.0,0.0,0.0,0.0,0.0,0.0,0.0,0.0,0.0,0.0,0.0,0.0,0.0,0.0,0.0,0.0,0.5811,0.7438,0.8601,0.9175,1.0055,1.0178,0.946,0.8501,0.7273,0.0,0.0,0.0,0.0,0.0,0.0,0.0,0.0,0.0,0.0,0.0,0.0,0.0,0.0,0.0,0.0,0.0,0.0,0.0,0.0,0.0,0.0,0.0,0.0,0.0,0.0,0.0,0.0,0.0,0.0,0.0,0.0,0.0,0.0,0.0,0.0,0.0,0.0,0.0,0.0,0.0,0.0822,0.1065,0.0746,0.0,0.0,0.0,0.0,-0.0424,-0.0546,0.0,0.0,0.0,0.0,0.0,0.0,0.0,0.0,0.0,0.0,0.0,0.0,0.0,0.0,0.0,0.0,0.0,0.0,0.0,0.0,0.0,0.0,0.0,0.0,0.0,0.0,0.0,0.0,0.0,0.0,0.0,0.0,0.0,0.0,0.0,0.0,0.0,0.0,0.0,0.0,0.0,0.0,0.0,0.0,0.0,0.0,0.0,0.0,0.0,0.0,0.0,0.0,0.0,0.0,0.0,0.0,0.606,0.7312,0.843,0.9328,1.0097,1.0228,0.9652,0.8516,0.7296,0.0,0.0,0.0,0.0,0.0,0.0,0.0,0.0,0.0,0.0,0.0,0.0,0.0,0.0,0.0,0.0,0.0,0.0,0.0,0.0,0.0,0.0,0.0,0.0,0.0,0.0,0.0,0.0,0.0,0.0,0.0,0.0,0.0,0.0,0.0,0.0,0.0,0.0,0.0,0.0,0.0,0.1446,0.1161,0.1139,0.098,0.0,0.0,-0.0,-0.0115,-0.0327,0.0,0.0,0.0,0.0,0.0,0.0,0.0,0.0,0.0,0.0,0.0,0.0,0.0,0.0,0.0,0.0,0.0,0.0,0.0,0.0,0.0,0.0,0.0,0.0,0.0,0.0,0.0,0.0,0.0,0.0,0.0,0.0,0.0,0.0,0.0,0.0,0.0,0.0,0.0,0.0,0.0,0.0,0.0,0.0,0.0,0.0,0.0,0.0,0.0,0.0,0.0,0.0,0.0,0.0,0.0,0.5664,0.623,0.7727,0.889,0.9619,1.0146,1.0216,0.9803,0.8625,0.7368,0.0,0.0,0.0,0.0,0.0,0.0,0.0,0.0,0.0,0.0,0.0,0.0,0.0,0.0,0.0,0.0,0.0,0.0,0.0,0.0,0.0,0.0,0.0,0.0,0.0,0.0,0.0,0.0,0.0,0.0,0.0,0.0,0.0,0.0,0.0,0.0,0.0,0.0,0.0,0.0,0.0,0.0,0.2256,0.1801,0.0,0.0,0.0,0.0521,0.0275,0.0,0.0,0.0,0.0,0.0,0.0,0.0,0.0,0.0,0.0,0.0,0.0,0.0,0.0,0.0,0.0,0.0,0.0,0.0,0.0,0.0,0.0,0.0,0.0,0.0,0.0,0.0,0.0,0.0,0.0,0.0,0.0,0.0,0.0,0.0,0.0,0.0,0.0,0.0,0.0,0.0,0.0,0.0,0.0,0.0,0.0,0.0,0.0,0.0,0.0,0.0,0.0,0.0,0.0,0.0,0.0,0.0,0.6531,0.8253,0.9384,0.9902,1.0368,1.0439,0.993,0.8792,0.0,0.0,0.0,0.0,0.0,0.0,0.0,0.0,0.0,0.0,0.0,0.0,0.0,0.0,0.0,0.0,0.0,0.0,0.0,0.0,0.0,0.0,0.0,0.0,0.0,0.0,0.0,0.2206,0.0,0.0,0.0,0.0,0.0,0.0,0.0,0.0,0.0,0.0,0.0,0.0,0.0,0.0,0.2149,0.2903,0.2238,0.1868,0.0,0.0,0.0965,0.0628,0.024,-0.015,0.0,0.0,0.0,0.0,0.0,0.0,0.0,0.0,0.0,0.0,0.0,0.0,0.0,0.0,0.0,0.0,0.0,0.0,0.0,0.0,0.0,0.0,0.0,0.0,0.0,0.0,0.0,0.0,0.0,0.0,0.0,0.0,0.0,0.0,0.0,0.0,0.0,0.0,0.0,0.0,0.0,0.0,0.0,0.0,0.0,0.0,0.0,0.0,0.0,0.0,0.0,0.0,0.0,0.0,0.6737,0.7182,0.8733,0.9705,1.0092,1.0837,1.0889,1.0116,0.8959,0.7613,0.0,0.0,0.0,0.0,0.0,0.0,0.0,0.0,0.0,0.0,0.0,0.0,0.0,0.0,0.0,0.0,0.0,0.0,0.0,0.0,0.0,0.0,0.0,0.0,0.0,0.0,0.0,0.0,0.0,0.0,0.0,0.0,0.0,0.0,0.0,0.0,0.0,0.0,0.0,0.0,0.0,0.2376,0.2529,0.2375,0.2387,0.0,0.1997,0.1193,0.0744,-0.0047,-0.0656,-0.075,0.0,0.0,0.0,0.0,0.0,0.0,0.0,0.0,0.0,0.0,0.0,0.0,0.0,0.0,0.0,0.0,0.0,0.0,0.0,0.0,0.0,0.0,0.0,0.0,0.0,0.0,0.0,0.0,0.0,0.0,0.0,0.0,0.0,0.0,0.0,0.0,0.0,0.0,0.0,0.0,0.0,0.0,0.0,0.0,0.0,0.0,0.0,0.0,0.0,0.0,0.0,0.0,0.0,0.7036,0.7818,0.9086,1.0074,1.0702,1.0904,1.0687,1.0039,0.913,0.7978,0.0,0.0,0.0,0.0,0.0,0.0,0.0,0.0,0.0,0.0,0.0,0.0,0.0,0.0,0.0,0.0,0.0,0.0,0.0,0.0,0.0,0.0,0.0,0.0,0.0,0.0,0.0,0.0,0.2195,0.2028,0.1802,0.0,0.0,0.0,0.0,0.0,0.0,0.0,0.0,0.0,0.0,0.2646,0.2853,0.274,0.0,0.0,0.2758,0.1987,0.0987,0.0343,-0.0184,-0.075,-0.083,0.0,0.0,0.0,0.0,0.0,0.0,0.0,0.0,0.0,0.0,0.0,0.0,0.0,0.0,0.0,0.0,0.0,0.0,0.0,0.0,0.0,0.0,0.0,0.0,0.0,0.0,0.0,0.0,0.0,0.0,0.0,0.0,0.0,0.0,0.0,0.0,0.0,0.0,0.0,0.0,0.0,0.0,0.0,0.0,0.0,0.0,0.0,0.0,0.0,0.0,0.0,0.0,0.7468,0.8381,0.9515,1.0347,1.0841,1.0839,1.0498,0.9858,0.9141,0.8201,0.0,0.0,0.0,0.0,0.0,0.0,0.0,0.0,0.0,0.0,0.0,0.0,0.0,0.0,0.0,0.0,0.0,0.0,0.0,0.0,0.0,0.0,0.0,0.0,0.0,0.0,0.0,0.0,0.2378,0.2094,0.1757,0.0,0.0,0.0,0.0,0.0,0.0,0.0,0.0,0.0,0.0,0.2888,0.3106,0.2814,0.2661,0.3018,0.2735,0.209,0.1097,0.0451,-0.0191,-0.0784,0.0,0.0,0.0,0.0,0.0,0.0,0.0,0.0,0.0,0.0,0.0,0.0,0.0,0.0,0.0,0.0,0.0,0.0,0.0,0.0,0.0,0.0,0.0,0.0,0.0,0.0,0.0,0.649,0.0,0.0,0.6027,0.0,0.0,0.0,0.0,0.0,0.0,0.0,0.0,0.0,0.0,0.0,0.0,0.0,0.0,0.0,0.0,0.0,0.0,0.0,0.0,0.0,0.0,0.8126,0.8809,0.9926,1.0471,1.0375,1.0694,1.0454,0.9465,0.9011,0.8373,0.7399,0.0,0.0,0.0,0.0,0.0,0.0,0.0,0.0,0.0,0.0,0.0,0.0,0.0,0.0,0.0,0.0,0.0,0.0,0.0,0.0,0.0,0.0,0.0,0.0,0.0,0.0,0.2556,0.2377,0.215,0.0,0.0,0.0,0.0,0.0,0.0,0.0,0.0,0.0,0.2797,0.3021,0.3115,0.3184,0.2393,0.1912,0.1865,0.1604,0.1314,0.1013,-0.0,-0.0796,0.0,0.0,0.0,0.0,0.0,0.0,0.0,0.0,0.0,0.0,0.0,0.0,0.0,0.0,0.0,0.0,0.0,0.0,0.0,0.0,0.0,0.0,0.0,0.0,0.0,0.0,0.0,0.6988,0.6762,0.0,0.0,0.0,0.0,0.0,0.0,0.0,0.0,0.0,0.0,0.0,0.8458,0.8778,0.0,0.0,0.0,0.0,0.0,0.0,0.0,0.0,0.0,0.0,0.0,0.0,0.8451,0.9782,1.0681,1.1158,1.1239,1.1179,1.0772,0.9875,0.9621,0.9061,0.8254,0.0,0.0,0.0,0.0,0.0,0.0,0.0,0.0,0.0,0.0,0.0,0.0,0.0,0.0,0.0,0.0,0.0,0.0,0.0,0.0,0.0,0.0,0.0,0.0,0.0,0.2899,0.0,0.0,0.0,0.0,0.0,0.0,0.0,0.0,0.0,0.0,0.2319,0.2585,0.3041,0.2444,0.2329,0.3306,0.3209,0.243,0.0,0.0,0.0,0.0,0.0,0.0,0.0,0.0,0.0,0.0,0.0,0.0,0.0,-0.104,-0.1157,-0.1198,-0.1431,-0.1587,-0.1553,0.0,0.0,0.0,0.0,0.0,0.0,0.0,0.0,0.0,0.0,0.0,0.0,0.0,0.0,0.7958,0.7736,0.7702,0.0,0.0,0.0,0.0,0.0,0.0,0.0,0.0,0.9297,0.9604,0.9958,1.0343,1.0365,1.014,1.0658,0.9962,0.0,0.0,0.0,0.0,0.0,0.0,0.0,0.0,0.8983,1.0439,1.0982,1.1273,1.1416,1.1066,1.0586,0.9987,0.9742,0.9328,0.8669,0.7664,0.6897,0.0,0.0,0.0,0.0,0.0,0.0,0.0,0.0,0.0,0.0,0.0,0.0,0.0,0.0,0.0,0.0,0.0,0.0,0.0,0.0,0.0,0.0,0.0,0.2838,0.0,0.0,0.0,0.0,0.0,0.0,0.0,0.0,0.0,0.2153,0.2221,0.2402,0.2651,0.2037,0.1758,0.2278,0.0,0.0,0.0,0.0,0.0,0.0,0.0,-0.0631,-0.0851,-0.0864,-0.0936,-0.1057,-0.097,-0.0928,-0.0979,0.0,0.0,-0.1334,-0.1573,-0.1726,-0.1727,-0.2061,-0.2352,-0.2352,-0.2597,-0.2922,0.0,0.0,0.0,0.0,0.9166,0.0,0.0,0.0,0.9419,0.9434,0.0,0.9426,0.0,0.0,0.0,0.0,0.8359,0.9164,0.0,0.0,1.0956,1.1697,1.2285,1.2491,1.2614,1.2659,1.2792,1.2327,1.1343,1.0787,1.0055,0.0,0.0,0.0,0.0,0.0,0.9709,1.0813,1.0804,1.0788,1.0879,1.0379,1.0007,0.9731,0.9554,0.9233,0.8855,0.811,0.7451,0.6851,0.5618,0.0,0.0,0.0,0.0,0.0,0.0,0.0,0.0,0.0,0.0,0.0,0.0,0.0,0.0,0.0,0.0,0.0,0.0,0.0,0.0,0.2974,0.0,0.0,0.0,0.0,0.0,0.0,0.0,0.0,0.0,0.2988,0.2193,0.1905,0.1722,0.185,0.0,0.0,0.0,0.0,-0.0,-0.0,-0.0,-0.0,-0.0,-0.022,-0.05,-0.0755,0.0,0.0,-0.1069,-0.0981,-0.0939,-0.106,-0.132,-0.1424,-0.1244,-0.1527,-0.1787,-0.1832,-0.2219,-0.2596,-0.2649,-0.2926,-0.3273,1.2566,0.0,0.0,0.0,0.0,1.0404,1.095,1.1522,1.1284,1.1054,1.088,1.088,0.0,0.0,0.0,0.0,0.0,0.0,1.0917,1.1711,1.1921,1.2373,1.2988,1.308,1.3173,1.3317,1.3357,1.3242,1.2946,1.2861,1.1619,0.9208,0.0,0.0,0.0,0.0,1.024,1.0738,1.1202,1.1189,1.0777,1.0624,1.0443,1.02,0.989,0.9698,0.9574,0.8969,0.8303,0.763,0.7056,0.0,0.0,0.0,0.0,0.0,0.0,0.0,0.0,0.0,0.0,0.0,0.0,0.0,0.0,0.0,0.0,0.0,0.0,0.0,0.3154,0.3446,0.3582,0.0,0.0,0.0,0.0,0.0,0.0,0.0,0.0,0.0,0.2166,0.2087,0.2151,0.0,0.0,0.1166,0.0824,0.0358,-0.0,-0.0,-0.0,0.0,-0.0,-0.0059,-0.0292,-0.0769,-0.0897,-0.0962,-0.1023,-0.0952,-0.0943,-0.0944,-0.1128,-0.1288,-0.1277,-0.1633,-0.1895,-0.1958,-0.2418,-0.2877,-0.2936,-0.3304,-0.3732,1.3956,1.2474,1.1993,1.15,1.1153,1.1752,1.2355,1.2973,1.2754,1.2562,1.2421,1.2505,1.2141,1.1447,1.1578,0.0,0.0,0.0,1.2174,1.31,1.3195,1.3566,1.4073,1.431,1.4499,1.4653,1.4429,1.4347,1.4336,1.3662,1.2389,1.0578,0.0,0.9933,1.0371,1.0376,1.0606,1.109,1.1184,1.1064,1.0806,1.0833,1.0766,1.0551,1.0358,1.0143,1.0002,0.958,0.9034,0.8371,0.7881,0.7244,0.0,0.0,0.0,0.0,0.0,0.0,0.0,0.0,0.0,0.0,0.0,0.3532,0.3039,0.0,0.0,0.0,0.3577,0.363,0.3462,0.3767,0.0,0.0,0.0,0.0,0.0,0.0,0.0,0.3534,0.3198,0.278,0.2456,0.2266,0.2095,0.1941,0.1353,0.0965,0.11,0.0,0.0316,-0.0,-0.0,-0.0,-0.0,-0.0,-0.0123,-0.0501,-0.0826,-0.1029,-0.1039,-0.1025,-0.1018,-0.1028,-0.1161,-0.1347,-0.1449,-0.1745,-0.2004,-0.1961,-0.2359,-0.279,-0.2946,-0.3385,-0.3753,1.4777,1.4147,1.3649,1.307,1.2574,1.327,1.3656,1.3822,1.3882,1.3936,1.3976,1.4151,1.3998,1.3624,1.2837,0.0,1.3135,1.3186,1.3582,1.426,1.4654,1.5017,1.5463,1.5951,1.6244,1.6338,1.5742,1.549,1.5385,1.3648,1.2725,1.2715,1.2347,1.2104,1.193,1.1077,1.1013,1.1707,1.0961,1.0703,1.0997,1.1124,1.105,1.088,1.0845,1.061,1.0214,1.0046,0.9695,0.912,0.8416,0.7785,0.7215,0.0,0.0,0.0,0.0,0.0,0.0,0.0,0.0,0.0,0.0,0.0,0.0,0.0,0.0,0.4049,0.423,0.0,0.4057,0.3977,0.0,0.0,0.0,0.3698,0.3846,0.3844,0.389,0.4053,0.0,0.0,0.2876,0.2359,0.1773,0.0837,0.0732,0.0814,0.1094,0.1102,0.0854,0.0135,-0.0,-0.0,-0.0,-0.0,-0.0,-0.0,-0.0596,-0.1017,-0.1108,-0.1111,-0.1127,-0.1146,-0.1378,-0.1588,-0.1737,-0.2007,-0.2031,-0.2093,-0.229,-0.255,-0.3003,-0.3344,-0.3665,1.4258,1.4201,1.3949,1.3637,1.339,1.3911,1.4418,1.4778,1.4898,1.4984,1.5104,1.5247,1.5219,1.4979,1.3732,1.3563,1.4271,1.4149,1.4527,1.53,1.5636,1.6102,1.6691,1.6808,1.6867,1.6867,1.592,1.5455,1.5383,1.4225,1.3691,1.3682,1.3625,1.3192,1.2357,1.1931,1.1809,1.1906,1.1428,1.1195,1.1214,1.1403,1.1461,1.145,1.1141,1.1004,1.0843,1.0602,1.0231,0.9838,0.9664,0.9235,0.858,0.7728,0.0,0.0,0.0,0.0,0.0,0.0,0.0,0.0,0.0,0.4916,0.3774,0.0,0.4554,0.0,0.4811,0.4807,0.4272,0.4371,0.0,0.0,0.413,0.3989,0.4555,0.4337,0.4187,0.4501,0.4284,0.3797,0.3041,0.2438,0.186,0.1107,0.1031,0.1025,0.1098,0.1074,0.0896,0.0485,0.0139,-0.0,-0.0,-0.0,-0.0,-0.0,-0.0403,-0.0748,-0.1117,-0.1101,-0.1096,-0.1125,-0.1696,-0.2243,-0.2548,-0.2644,-0.2802,-0.3053,-0.3213,-0.3267,-0.3358,-0.3916,-0.441,1.4556,1.4577,1.4627,1.4384,1.3962,1.4341,1.4753,1.5108,1.529,1.5564,1.5879,1.6149,1.6115,1.5798,1.4865,1.4781,1.5454,1.5189,1.543,1.6176,1.6344,1.6689,1.713,1.7405,1.7373,1.7159,1.6369,1.5785,1.55,1.454,1.4043,1.4034,1.4077,1.3782,1.3094,1.2538,1.199,1.1524,1.1351,1.1292,1.1447,1.1553,1.1556,1.1417,1.1372,1.115,1.0872,1.0821,1.0587,1.0119,0.997,0.9555,0.8813,0.835,0.765,0.0,0.0,0.0,0.0,0.0,0.0,0.0,0.0,0.0,0.0,0.0,0.5045,0.4785,0.5069,0.5136,0.4792,0.4956,0.5148,0.5279,0.485,0.4672,0.5087,0.4763,0.4552,0.4775,0.4359,0.3771,0.3073,0.2525,0.1909,0.1165,0.1082,0.1073,0.1075,0.1102,0.1047,0.0828,0.0344,-0.0,-0.0,-0.0,-0.0,-0.0,-0.0277,-0.0632,-0.1067,-0.1408,-0.1611,-0.1634,-0.2278,-0.2905,-0.3142,-0.3341,-0.3619,-0.3849,-0.4208,-0.4163,-0.3651,-0.4212,-0.4867,1.5133,1.506,1.5341,1.509,1.4624,1.4847,1.5082,1.5337,1.5567,1.5939,1.6361,1.6613,1.65,1.616,1.5804,1.5946,1.6389,1.6047,1.6233,1.6892,1.6953,1.7076,1.7419,1.7808,1.7803,1.7386,1.6846,1.6267,1.5711,1.4745,1.4297,1.4307,1.4297,1.4124,1.378,1.2946,1.2022,1.0997,1.1032,1.1269,1.1556,1.1564,1.1424,1.1106,1.1453,1.1358,1.0748,1.0989,1.0916,1.0328,0.9958,0.948,0.8744,0.8723,0.8097,0.0,0.6822,0.0,0.0,0.0,0.0,0.0,0.0,0.0,0.0,0.5839,0.5642,0.5196,0.5287,0.5365,0.5365,0.5555,0.5722,0.59,0.5677,0.5441,0.546,0.5236,0.4996,0.4914,0.4449,0.3852,0.295,0.2457,0.1936,0.1264,0.1117,0.1115,0.1119,0.112,0.1112,0.1155,0.0474,-0.0,-0.0,-0.0,-0.0,-0.0,-0.0495,-0.0867,-0.13,-0.1879,-0.2315,-0.2323,-0.2975,-0.3555,-0.3706,-0.4061,-0.4343,-0.4556,-0.5078,-0.5022,-0.4235,-0.4638,-0.5274,1.4819,1.5049,1.5536,1.5669,1.5676,1.6047,1.6249,1.6322,1.6592,1.6699,1.6645,1.5952,1.5628,1.5639,1.5496,1.5639,1.5946,1.6109,1.6638,1.745,1.7541,1.793,1.8477,1.8242,1.8009,1.789,1.6849,1.629,1.6187,1.5491,1.5233,1.5424,1.5367,1.4811,1.3759,0.0,0.0,0.0,1.1203,1.1106,1.1165,1.1172,1.1136,1.1144,1.1453,0.0,1.1453,1.1505,1.1426,1.1322,1.0967,0.0,0.0,0.0,0.0,0.0,0.0,0.0,0.0,0.0,0.0,0.0,0.6758,0.6712,0.6271,0.6127,0.59,0.5563,0.5694,0.5787,0.5787,0.5815,0.5908,0.6133,0.5911,0.5907,0.6036,0.5841,0.548,0.4766,0.4574,0.3942,0.2514,0.221,0.1902,0.1196,0.1121,0.1121,0.1121,0.1121,0.0979,0.0696,0.0277,-0.0,-0.0,-0.0,-0.0,-0.0,-0.1021,-0.1866,-0.2328,-0.2617,-0.2846,-0.2892,-0.3706,-0.4432,-0.4571,-0.4812,-0.4986,-0.5186,-0.5216,-0.5202,-0.5202,-0.5775,-0.6318,1.555,1.5942,1.6353,1.6492,0.0,1.7138,1.6999,1.6433,1.652,1.6497,1.6384,1.6127,1.5976,1.5932,1.604,1.6246,1.6514,1.6844,1.719,1.7523,1.7949,1.8089,1.7897,1.8061,1.7809,1.7202,1.6585,1.614,1.5864,1.5575,1.5488,1.5682,1.5313,1.4721,1.3925,1.3279,1.2466,1.1622,1.1461,1.138,1.138,1.138,1.1231,1.1092,1.1453,0.0,0.0,0.0,0.0,0.0,0.0,0.0,0.0,0.9305,0.8703,0.7895,0.761,0.7342,0.7007,0.7137,0.727,0.74,0.7365,0.7112,0.6601,0.6346,0.6058,0.5797,0.5839,0.5961,0.6132,0.6148,0.6254,0.6505,0.6138,0.5905,0.591,0.5354,0.4739,0.4284,0.3759,0.3077,0.229,0.1898,0.1621,0.1241,0.1166,0.1154,0.1127,0.1121,0.0978,0.0344,0.0138,-0.0,-0.0,-0.0,-0.0,-0.0,-0.1261,-0.2677,-0.3788,-0.3788,-0.3726,-0.3909,-0.4571,-0.5225,-0.5372,-0.564,-0.5842,-0.5991,-0.6117,-0.6353,-0.6521,-0.6649,-0.6851,1.641,1.6818,1.7134,1.7257,1.7225,1.782,1.7423,1.6388,1.62,0.0,0.0,1.6514,1.6591,1.6488,1.6761,1.7032,1.7301,1.7523,1.7512,1.7379,1.7995,1.7831,1.7,1.7545,1.7257,1.6301,1.6197,1.5921,1.541,1.542,1.5459,1.5537,1.4937,1.4427,1.4048,1.2841,1.2024,1.1703,1.16,1.1542,1.1472,1.1534,1.1409,1.1077,1.1446,1.1428,1.1037,1.1414,1.1581,1.1586,1.1034,1.0378,0.9447,0.9277,0.8853,0.799,0.8077,0.8065,0.7876,0.8137,0.8294,0.8337,0.7901,0.7428,0.696,0.6589,0.6318,0.6133,0.6075,0.6201,0.6485,0.6513,0.6575,0.6821,0.6277,0.5844,0.5729,0.4776,0.4042,0.3741,0.2991,0.2272,0.21,0.1606,0.1241,0.1217,0.1206,0.12,0.1083,0.114,0.0916,0.0209,-0.0,-0.0,-0.0,-0.0,-0.0785,-0.0,-0.2179,-0.3425,-0.4748,-0.4882,-0.4648,-0.4784,-0.5365,-0.5728,-0.581,-0.6106,-0.6508,-0.6508,-0.6986,-0.7323,-0.7339,-0.7171,-0.7061,1.6637,1.6874,1.7379,1.7479,1.7225,1.782,1.7567,1.6698,1.6311,1.63,1.6655,1.6312,1.64,1.6761,1.7032,1.7301,1.7601,1.739,1.7268,1.7202,1.709,1.6989,1.6821,1.6652,1.6472,1.6255,1.5806,1.5468,1.541,1.542,1.5359,1.527,1.5185,1.4639,1.3762,1.2874,1.2292,1.1963,1.1428,1.1203,1.1143,1.1203,1.1121,1.1092,1.1461,1.1608,1.1494,1.1545,1.1608,1.1626,1.1512,1.1052,1.0187,0.9812,0.9209,0.8421,0.826,0.8191,0.8175,0.8323,0.8549,0.8737,0.8091,0.7603,0.7339,0.6992,0.68,0.6826,0.6839,0.6888,0.6945,0.6941,0.6805,0.6478,0.6289,0.604,0.5689,0.4936,0.4211,0.3464,0.2919,0.215,0.1493,0.1283,0.1228,0.1217,0.1223,0.1143,0.0998,0.0969,0.0807,-0.0,-0.0,-0.0,-0.0,-0.2471,-0.3522,-0.4317,-0.4264,-0.4496,-0.5152,-0.5213,-0.5128,-0.5384,-0.5617,-0.5827,-0.5823,-0.596,-0.6172,-0.6259,-0.6591,-0.6842,-0.7041,-0.7112,-0.7289,1.692,1.7323,1.7601,1.7678,1.7688,1.7479,1.7211,1.6842,1.6181,1.6019,1.6306,1.6181,1.6343,1.6807,1.7088,1.719,1.7234,1.7213,1.6866,1.6255,1.6595,1.6425,1.5874,1.614,1.614,1.5816,1.5348,1.5144,1.5111,1.5001,1.4899,1.4934,1.476,1.4193,1.3412,1.2971,1.2623,1.2284,1.1831,1.1589,1.1604,1.1772,1.186,1.186,1.2014,1.1935,1.1623,1.1927,1.208,1.208,1.2087,1.1819,1.1166,1.0627,1.0049,0.935,0.8986,0.8721,0.8716,0.8824,0.8795,0.8695,0.822,0.7813,0.7552,0.7177,0.6986,0.7003,0.7019,0.7064,0.7086,0.7102,0.7098,0.6965,0.637,0.5787,0.522,0.4144,0.3272,0.2707,0.2128,0.1746,0.1321,0.1267,0.1286,0.1285,0.1273,0.1279,0.1157,0.1212,0.0942,-0.0,-0.0,-0.0,-0.0,-0.1162,-0.3044,-0.4912,-0.523,-0.5268,-0.5594,-0.5634,-0.5673,-0.5842,-0.6051,-0.6051,-0.6044,-0.62,-0.635,-0.6424,-0.6648,-0.6918,-0.7048,-0.7211,-0.7475,1.7256,1.7711,1.7822,1.7931,1.792,1.7177,1.6828,1.674,1.6066,1.5846,1.5961,1.6134,1.6467,1.6864,1.6965,1.6955,1.6877,1.681,1.6312,1.5526,1.6093,1.5864,1.5156,1.5838,1.6004,1.5546,1.5185,1.5069,1.5042,1.469,1.4486,1.4479,1.4238,1.3739,1.3195,1.3074,1.2908,1.2621,1.238,1.2219,1.2087,1.2394,1.2526,1.2526,1.2519,1.2287,1.1899,1.2287,1.2601,1.2691,1.2458,1.2119,1.1642,1.1018,1.0465,0.9904,0.9536,0.9314,0.9362,0.9367,0.9153,0.8801,0.8442,0.807,0.7834,0.7371,0.7074,0.7146,0.7086,0.7143,0.7257,0.7281,0.7262,0.7234,0.6321,0.5401,0.4802,0.3394,0.2379,0.1993,0.154,0.1313,0.1318,0.1333,0.1346,0.1348,0.1342,0.1439,0.1391,0.1382,0.101,0.041,0.0081,-0.0,-0.0,-0.0573,-0.2058,-0.4801,-0.5293,-0.5471,-0.581,-0.5872,-0.5901,-0.61,-0.6224,-0.6193,-0.6264,-0.6402,-0.6468,-0.6535,-0.6758,-0.7011,-0.7165,-0.7314,-0.7557,1.7656,1.7767,1.8162,1.8073,1.7667,1.7078,1.6637,1.6353,1.6029,1.5961,1.6114,1.6306,1.6648,1.7022,1.6606,1.6652,1.6978,1.6026,1.5526,1.5362,1.5254,1.5088,1.5086,1.577,1.6117,1.5994,1.5675,1.5423,1.5359,1.4772,1.4355,1.4053,1.3742,1.3519,1.3432,1.3175,1.2965,1.2965,1.2936,1.2775,1.2497,1.2504,1.2526,1.2526,1.2533,1.2451,1.2412,1.2451,1.2773,1.3247,1.2298,1.1498,1.103,1.0402,0.9846,0.9362,0.9493,0.9637,0.982,0.9857,0.9611,0.9261,0.8854,0.8477,0.8062,0.7664,0.7431,0.7415,0.7419,0.7419,0.7456,0.7456,0.7242,0.6806,0.6035,0.5196,0.4263,0.3236,0.245,0.2001,0.1589,0.1344,0.1344,0.135,0.1362,0.1384,0.1399,0.141,0.1422,0.1423,0.1241,0.0704,0.0262,-0.0,-0.0423,-0.1592,-0.2779,-0.3542,-0.4541,-0.5379,-0.5705,-0.5767,-0.5815,-0.6096,-0.6138,-0.6182,-0.6254,-0.6338,-0.6355,-0.644,-0.6585,-0.6795,-0.7103,-0.7407,-0.7633,1.759,1.7457,1.7744,1.7579,1.7134,1.6528,1.6368,1.6457,1.6124,1.6134,1.6249,1.6181,1.6275,1.6652,1.6265,1.6093,1.6083,1.5633,1.5186,1.493,1.5097,1.5219,1.5438,1.5994,1.6124,1.5776,1.5435,1.5091,1.4656,1.417,1.3933,1.3986,1.3723,1.3637,1.3833,1.3504,1.3294,1.3294,1.3294,1.3228,1.3111,1.3097,1.3089,1.3097,1.3097,1.3097,1.3097,1.3097,1.2877,1.2508,1.2294,1.1944,1.1369,1.0791,1.035,1.0143,0.9865,0.9825,0.9916,0.9922,0.962,0.9013,0.878,0.8399,0.7791,0.7561,0.748,0.748,0.748,0.748,0.7492,0.7577,0.7411,0.6709,0.5891,0.4984,0.3878,0.2899,0.2083,0.1683,0.1448,0.1372,0.1376,0.1388,0.1403,0.1416,0.1429,0.1435,0.1436,0.1436,0.1166,0.0806,0.0712,-0.0531,-0.2541,-0.3944,-0.4463,-0.4631,-0.5068,-0.567,-0.5746,-0.5814,-0.5855,-0.6059,-0.6125,-0.6188,-0.6309,-0.6435,-0.6505,-0.651,-0.668,-0.7019,-0.7702,-0.8089,-0.8318,1.7689,1.749,1.7324,1.7002,1.6684,1.6089,1.6099,1.64,1.6228,1.6239,1.6374,1.5941,1.5864,1.6026,1.5758,1.5536,1.543,1.5361,1.5122,1.4786,1.5207,1.5561,1.5785,1.6109,1.6104,1.5695,1.5222,1.4584,1.3925,1.3648,1.3637,1.3848,1.3637,1.3637,1.3848,1.363,1.3492,1.3492,1.3564,1.3637,1.3622,1.3783,1.371,1.3492,1.3492,1.3492,1.3492,1.3492,1.3018,1.1931,1.2198,1.207,1.1484,1.0887,1.0513,1.0519,1.0143,0.9922,0.9922,0.9771,0.9463,0.878,0.8627,0.8246,0.7718,0.7529,0.7565,0.759,0.761,0.7626,0.7577,0.7724,0.758,0.7027,0.6052,0.4944,0.405,0.2794,0.1872,0.1457,0.1392,0.1402,0.1406,0.1419,0.1432,0.1433,0.1435,0.1436,0.1436,0.1346,0.1256,0.0987,0.0987,-0.0898,-0.4685,-0.5481,-0.5673,-0.5662,-0.5727,-0.5687,-0.5787,-0.586,-0.5898,-0.5957,-0.6108,-0.6312,-0.6328,-0.6499,-0.6681,-0.6725,-0.6922,-0.7442,-0.8121,-0.8639,-0.9367,1.8193,1.8093,1.694,1.6451,1.657,1.5965,1.5908,1.6171,1.6114,1.6181,1.6259,1.571,1.541,1.5498,1.5234,1.5147,1.5371,1.5196,1.5127,1.5111,1.5614,1.5982,1.6128,1.6065,1.6057,1.5923,1.5202,1.4339,1.3593,1.3477,1.3492,1.3492,1.3492,1.3492,1.3564,1.3492,1.3492,1.3492,1.3855,1.4057,1.4057,1.4353,1.4137,1.3564,1.3492,1.3492,1.3484,1.3492,1.3105,1.2265,1.1916,1.149,1.0887,1.0293,0.9997,0.9922,0.9922,0.9922,0.9846,0.9544,0.917,0.8708,0.8421,0.7957,0.7606,0.7655,0.7764,0.7821,0.7914,0.7914,0.7805,0.791,0.7835,0.7589,0.6271,0.5165,0.4565,0.2856,0.1928,0.1509,0.1427,0.1428,0.1431,0.1434,0.1436,0.1436,0.1436,0.1436,0.1346,0.1436,0.1346,0.1077,0.0269,-0.1348,-0.4773,-0.5679,-0.567,-0.5749,-0.5738,-0.573,-0.573,-0.5708,-0.581,-0.593,-0.6073,-0.6269,-0.6338,-0.6546,-0.6719,-0.7005,-0.7628,-0.8197,-0.8853,-0.9473,-1.0113,1.7975,1.739,1.6208,1.585,1.6009,1.6114,1.6114,1.6114,1.5989,1.5999,1.5951,1.543,1.5281,1.547,1.5186,1.5126,1.5214,1.5411,1.5478,1.5524,1.6095,1.6206,1.5969,1.668,1.63,1.5278,1.5246,1.4689,1.3557,1.3492,1.3492,1.3492,1.3492,1.3492,1.3492,1.3492,1.3492,1.3492,1.3637,1.3855,1.4129,1.4209,1.4137,1.392,1.392,1.3753,1.3498,1.347,1.2886,1.1582,1.1613,1.126,1.0368,0.9992,0.9922,0.9922,0.9922,0.9922,0.9846,0.9544,0.9089,0.8713,0.8444,0.8143,0.7807,0.7841,0.7963,0.7974,0.8138,0.815,0.813,0.7991,0.7513,0.6411,0.5448,0.4461,0.3265,0.2216,0.1513,0.1433,0.1436,0.1436,0.1436,0.1436,0.1436,0.1436,0.1436,0.1436,0.1346,0.1166,0.1076,0.0718,-0.1436,-0.3688,-0.3409,-0.5034,-0.5665,-0.5744,-0.5733,-0.5733,-0.5733,-0.5733,-0.5761,-0.5838,-0.5996,-0.6328,-0.6408,-0.6783,-0.7027,-0.767,-0.8309,-0.9133,-0.9857,-1.0413,-1.101,1.7457,1.6729,1.6046,1.5826,1.5846,1.6155,1.6212,1.5999,1.5931,1.5806,1.5604,1.533,1.533,1.5553,1.5494,1.556,1.5578,1.5845,1.5825,1.5787,1.6227,1.6138,1.5824,1.6321,1.5948,1.4744,1.4824,1.441,1.3637,1.3492,1.3492,1.3492,1.3492,1.3492,1.3492,1.3492,1.3572,1.3637,1.3783,1.4065,1.4418,1.4569,1.4633,1.4641,1.4425,1.3897,1.3281,1.3251,1.2512,1.1304,1.1248,1.0962,1.0067,0.9922,0.9922,0.9922,0.9922,0.9922,0.9846,0.9397,0.9042,0.8803,0.8382,0.8121,0.7853,0.7962,0.8078,0.811,0.8263,0.8381,0.8381,0.8119,0.7508,0.6294,0.5313,0.4202,0.3136,0.206,0.1524,0.1435,0.1436,0.1436,0.1436,0.1436,0.1436,0.1436,0.1436,0.1436,0.1346,0.1076,0.0897,0.0807,-0.2063,-0.3501,-0.3855,-0.4757,-0.557,-0.5738,-0.5733,-0.5733,-0.5733,-0.5733,-0.5733,-0.5733,-0.5997,-0.6257,-0.6669,-0.7048,-0.7613,-0.8259,-0.9248,-1.0104,-1.0733,-1.13,-1.181,1.6729,1.64,1.6524,1.6343,1.6056,1.6066,1.5951,1.5788,1.5768,1.5604,1.5361,1.5438,1.5524,1.5741,1.6086,1.6391,1.6391,1.6294,1.6035,1.5783,1.5991,1.586,1.5421,1.5021,1.4824,1.4537,1.3912,1.3645,1.3564,1.3564,1.3637,1.3564,1.3564,1.3564,1.3492,1.3564,1.3702,1.4065,1.4353,1.4705,1.5204,1.5434,1.5584,1.5584,1.4999,1.3985,1.2739,1.2673,1.2077,1.1031,1.0812,1.0519,0.9992,0.9922,0.9922,0.9922,0.9922,0.9922,0.9846,0.918,0.8904,0.8806,0.8321,0.7923,0.8046,0.8163,0.8271,0.8305,0.8444,0.8552,0.8544,0.8273,0.7994,0.7837,0.5885,0.4559,0.4026,0.2597,0.1436,0.1436,0.1436,0.1436,0.1436,0.1436,0.1436,0.1436,0.1436,0.1436,0.1346,0.1076,0.0897,0.0269,-0.1792,-0.3676,-0.4121,-0.4569,-0.5198,-0.5738,-0.5735,-0.5733,-0.5733,-0.5733,-0.5733,-0.5733,-0.5908,-0.6257,-0.6962,-0.7439,-0.8229,-0.8979,-1.0,-1.099,-1.1489,-1.1952,-1.2243,1.6684,1.6581,1.6353,1.6228,1.6056,1.5894,1.5836,1.5768,1.5303,1.5222,1.5428,1.5345,1.5647,1.6206,1.6477,1.6517,1.6551,1.6423,1.6207,1.6,1.5641,1.5204,1.4832,1.5046,1.5029,1.4609,1.4129,1.392,1.3992,1.4137,1.4137,1.3992,1.392,1.392,1.392,1.3912,1.4065,1.4449,1.4577,1.4784,1.5158,1.5284,1.5426,1.5355,1.5133,1.4266,1.2746,1.2599,1.2003,1.0812,1.0812,1.0513,0.9992,0.9922,0.9922,0.9922,0.9922,0.9922,0.9792,0.9304,0.8944,0.8904,0.8466,0.8229,0.8179,0.8394,0.8491,0.8472,0.8568,0.8572,0.8568,0.8208,0.7757,0.7041,0.5531,0.4291,0.3491,0.224,0.1525,0.1436,0.1436,0.1436,0.1436,0.1436,0.1436,0.1436,0.1436,0.1436,0.1346,0.0807,0.0179,-0.0359,-0.2419,-0.3853,-0.421,-0.4656,-0.5285,-0.5646,-0.5735,-0.5733,-0.5733,-0.5733,-0.5733,-0.5822,-0.5997,-0.6435,-0.7139,-0.8017,-0.8798,-0.9671,-1.0671,-1.1417,-1.2076,-1.2416,-1.2539,1.641,1.6467,1.6046,1.5884,1.5894,1.5546,1.5362,1.5313,1.5053,1.5088,1.5287,1.5233,1.5474,1.6048,1.6026,1.6085,1.6097,1.5745,1.5525,1.5596,1.5125,1.4561,1.4129,1.476,1.4895,1.4474,1.4338,1.4274,1.4274,1.4346,1.4346,1.4129,1.4137,1.4065,1.4137,1.4274,1.4425,1.4808,1.4864,1.4999,1.5309,1.5434,1.5275,1.4974,1.484,1.397,1.2519,1.2157,1.1632,1.0738,1.0513,1.0293,0.9916,0.9922,0.9922,0.9922,0.9927,0.9954,0.998,0.9569,0.9269,0.918,0.8827,0.8487,0.8476,0.8519,0.8564,0.8572,0.8572,0.8572,0.8568,0.8116,0.7401,0.6505,0.5265,0.3935,0.2598,0.1794,0.1436,0.1436,0.1436,0.1436,0.1436,0.1436,0.1436,0.1436,0.1436,0.1436,0.1256,0.0718,0.009,-0.0717,-0.206,-0.3224,-0.403,-0.4656,-0.5374,-0.5644,-0.5735,-0.5733,-0.5733,-0.5733,-0.5733,-0.5911,-0.6086,-0.6612,-0.7228,-0.8623,-0.9671,-1.0539,-1.1149,-1.1906,-1.2474,-1.2571,-1.2741,1.6019,1.6114,1.5642,1.5652,1.572,1.5186,1.4862,1.4768,1.4934,1.504,1.497,1.5037,1.5257,1.5317,1.5295,1.5288,1.5251,1.476,1.4545,1.4609,1.441,1.4129,1.3848,1.4201,1.4346,1.4274,1.4489,1.4641,1.4633,1.4497,1.4137,1.4201,1.4201,1.4129,1.4274,1.4497,1.4856,1.5166,1.5133,1.5259,1.5655,1.5568,1.5275,1.4601,1.425,1.3462,1.2224,1.1484,1.0887,1.0293,1.0073,0.9997,0.9922,0.9922,0.9922,0.9922,0.9922,1.0051,1.0135,0.9922,0.9621,0.954,0.9217,0.888,0.8607,0.8556,0.8568,0.8476,0.8476,0.8392,0.8208,0.776,0.6953,0.6236,0.4819,0.34,0.1793,0.1436,0.1436,0.1436,0.1436,0.1437,0.1438,0.1438,0.144,0.1436,0.1436,0.1346,0.1076,0.0628,0.0359,-0.0717,-0.2151,-0.2956,-0.3851,-0.4654,-0.528,-0.5371,-0.5552,-0.5733,-0.5733,-0.5733,-0.5908,-0.6086,-0.6438,-0.6874,-0.7661,-0.9061,-1.0106,-1.0717,-1.1499,-1.2357,-1.2705,-1.2705,-1.2954,1.6694,1.6842,1.6312,1.6093,1.5979,1.5177,1.4962,1.5153,1.4453,1.4603,1.493,1.4705,1.4816,1.5196,1.5271,1.518,1.4824,1.4609,1.4338,1.4266,1.4201,1.4057,1.4057,1.4274,1.4418,1.4489,1.4705,1.5054,1.5054,1.507,1.4927,1.4497,1.4633,1.4697,1.4561,1.4768,1.5213,1.5497,1.5051,1.5138,1.5505,1.4649,1.4347,1.4537,1.3962,1.3171,1.2224,1.1186,1.0443,1.0073,0.9922,0.9922,0.9922,0.9922,0.9922,0.9922,0.9933,1.0035,1.0188,1.0051,0.9784,0.9615,0.9438,0.903,0.8644,0.8568,0.8296,0.7937,0.7757,0.758,0.7051,0.6697,0.5894,0.4556,0.3757,0.2777,0.1793,0.1436,0.1436,0.1438,0.1455,0.1455,0.1447,0.1453,0.1457,0.1442,0.1346,0.1166,0.0807,0.0179,-0.0269,-0.1345,-0.2511,-0.3048,-0.3764,-0.4474,-0.501,-0.5191,-0.5371,-0.5644,-0.5733,-0.5733,-0.6083,-0.6432,-0.6871,-0.7309,-0.836,-0.9497,-1.0193,-1.0895,-1.1757,-1.2528,-1.2705,-1.2705,-1.3137,1.6673,1.6786,1.5968,1.5623,1.5536,1.4943,1.4741,1.4738,1.4556,1.443,1.4703,1.4415,1.4434,1.4752,1.4617,1.4466,1.4394,1.4394,1.4338,1.441,1.4489,1.4489,1.4346,1.4418,1.4346,1.4338,1.4482,1.4474,1.441,1.4561,1.4281,1.3912,1.4129,1.4274,1.4346,1.4768,1.5204,1.5559,1.5035,1.4854,1.5114,1.4106,1.3548,1.3658,1.3171,1.2586,1.17,1.0887,1.0293,0.9997,0.9922,0.9922,0.9922,0.9922,0.9922,0.9922,0.9922,1.0067,1.03,1.0251,1.0048,0.9804,0.9643,0.9248,0.874,0.8388,0.7848,0.758,0.7228,0.6871,0.6428,0.5897,0.4919,0.3849,0.3047,0.2331,0.1525,0.1436,0.1442,0.1454,0.1468,0.1476,0.1456,0.1471,0.1462,0.1444,0.1436,0.0987,0.0538,-0.0269,-0.0987,-0.1884,-0.2602,-0.305,-0.3408,-0.4032,-0.4654,-0.4832,-0.528,-0.5552,-0.5908,-0.5905,-0.6343,-0.6779,-0.7305,-0.7921,-0.8886,-0.9758,-1.0458,-1.1149,-1.2009,-1.2443,-1.2619,-1.296,-1.3307,1.6255,1.6197,1.5235,1.4765,1.4771,1.4585,1.4345,1.4008,1.4513,1.4651,1.4313,1.407,1.4083,1.4201,1.3695,1.355,1.4049,1.3833,1.4049,1.4274,1.4553,1.4625,1.4346,1.4258,1.4186,1.4114,1.3753,1.36,1.368,1.3324,1.3039,1.3112,1.3119,1.3331,1.3833,1.4258,1.4824,1.513,1.4513,1.425,1.4213,1.355,1.2837,1.2579,1.2298,1.1781,1.1111,1.0588,1.0368,0.9997,0.9922,0.9922,0.9922,0.9922,0.9922,0.9943,0.9981,1.018,1.0541,1.0578,1.045,1.0105,1.0024,0.9607,0.8823,0.8113,0.7489,0.7224,0.6694,0.6254,0.5897,0.5184,0.4474,0.3674,0.2871,0.2243,0.1616,0.1438,0.145,0.1473,0.1478,0.1485,0.1477,0.1476,0.1469,0.1352,0.1256,0.0718,0.009,-0.0628,-0.1346,-0.2064,-0.2603,-0.3053,-0.332,-0.3588,-0.4121,-0.4478,-0.5102,-0.5549,-0.608,-0.6343,-0.6691,-0.7129,-0.7746,-0.836,-0.9065,-0.985,-1.0631,-1.1235,-1.1837,-1.2272,-1.2619,-1.313,-1.3646,1.6093,1.6244,1.5633,1.5108,1.4684,1.4603,1.4319,1.3975,1.3858,1.3917,1.3984,1.36,1.3615,1.3833,1.3258,1.3185,1.3535,1.3178,1.2886,1.3258,1.3688,1.3825,1.3825,1.4106,1.4386,1.4243,1.3753,1.3462,1.339,1.3171,1.3178,1.29,1.2959,1.3251,1.3185,1.3528,1.3807,1.3884,1.3267,1.3266,1.3379,1.2466,1.1903,1.2077,1.1706,1.126,1.0887,1.0738,1.0588,1.0363,1.0143,0.9916,0.9922,0.9922,0.9922,0.9965,1.011,1.0331,1.06,1.0799,1.0768,1.0499,1.0212,0.9777,0.9174,0.8109,0.7312,0.6694,0.5988,0.5455,0.4921,0.4563,0.4208,0.3676,0.3408,0.2871,0.2158,0.1728,0.1551,0.1461,0.1485,0.1499,0.1456,0.1473,0.1463,0.1352,0.0897,0.0359,-0.0359,-0.1076,-0.1705,-0.2334,-0.2604,-0.3053,-0.3142,-0.3409,-0.3855,-0.4387,-0.501,-0.5636,-0.6166,-0.6871,-0.7305,-0.7746,-0.8273,-0.889,-0.9506,-0.9941,-1.0636,-1.1149,-1.1666,-1.2186,-1.2705,-1.3307,-1.4068,1.5323,1.5129,1.4628,1.4312,1.411,1.3971,1.3695,1.3438,1.3279,1.3078,1.3004,1.282,1.2886,1.3032,1.2813,1.2813,1.3098,1.3025,1.2959,1.3251,1.3462,1.3455,1.3382,1.3455,1.3528,1.3382,1.2725,1.2439,1.2358,1.2432,1.2144,1.2077,1.2291,1.2445,1.2599,1.2813,1.3142,1.3353,1.2706,1.2528,1.2648,1.1776,1.1186,1.1632,1.1329,1.1037,1.0968,1.0887,1.0738,1.0588,1.0363,1.0143,0.9992,0.9992,0.9922,0.996,1.0159,1.0396,1.0627,1.0853,1.0905,1.0621,1.0381,0.9951,0.9345,0.8376,0.7401,0.6517,0.5811,0.5102,0.4387,0.4297,0.4121,0.3942,0.3765,0.3408,0.2875,0.2265,0.1737,0.1551,0.1484,0.1484,0.1475,0.1472,0.1187,0.099,0.0718,0.009,-0.0897,-0.1615,-0.2064,-0.2515,-0.2694,-0.2964,-0.2963,-0.323,-0.3676,-0.4297,-0.5008,-0.5719,-0.6514,-0.7221,-0.8009,-0.836,-0.8798,-0.9331,-0.9864,-1.0294,-1.0549,-1.1149,-1.1666,-1.2186,-1.296,-1.3808,-1.4482,1.4255,1.3606,1.318,1.3086,1.3148,1.3127,1.2831,1.2417,1.2659,1.2485,1.1996,1.2157,1.2372,1.2218,1.2003,1.215,1.2144,1.2352,1.2124,1.2204,1.2198,1.2191,1.2198,1.1835,1.162,1.1706,1.1484,1.126,1.126,1.1105,1.1477,1.1254,1.1186,1.1632,1.2077,1.215,1.2372,1.2732,1.2284,1.1991,1.2074,1.1446,1.1192,1.1186,1.1186,1.1111,1.1043,1.0962,1.0887,1.0818,1.0663,1.0438,1.0293,1.0073,0.9922,0.9938,1.0202,1.0449,1.0649,1.0891,1.098,1.0722,1.0733,1.0294,0.9602,0.8548,0.7485,0.6602,0.5808,0.4926,0.4389,0.4297,0.4297,0.421,0.3942,0.3676,0.3497,0.2871,0.2353,0.1739,0.1661,0.1662,0.147,0.1281,0.0908,0.0541,0.027,-0.0179,-0.1256,-0.1974,-0.2424,-0.2604,-0.2785,-0.2875,-0.2963,-0.323,-0.3587,-0.4297,-0.5097,-0.598,-0.6864,-0.7658,-0.8452,-0.8803,-0.9244,-0.9772,-0.9951,-1.012,-1.0463,-1.1063,-1.1666,-1.2272,-1.3209,-1.4237,-1.4985,1.3,1.2589,1.2814,1.2542,1.1978,1.2348,1.2109,1.1417,1.2091,1.2298,1.215,1.2231,1.207,1.1687,1.1013,1.0346,0.997,1.0045,0.9895,0.9895,0.9895,0.9895,0.997,0.99,0.9604,0.9674,1.0282,1.0887,1.1037,1.126,1.1186,1.126,1.1335,1.1484,1.1484,1.1409,1.1484,1.18,1.1613,1.1484,1.1422,1.1273,1.1111,1.1111,1.1111,1.1111,1.1117,1.1037,1.1037,1.1037,1.0875,1.0732,1.0588,1.0304,1.0084,1.0008,1.0315,1.0579,1.067,1.1036,1.1171,1.117,1.1008,1.0829,0.9946,0.8532,0.739,0.6596,0.545,0.4478,0.4297,0.4297,0.4297,0.4297,0.4208,0.4032,0.3676,0.3409,0.2963,0.2354,0.2102,0.184,0.1461,0.0999,0.0542,-0.0,-0.0629,-0.0987,-0.1705,-0.2334,-0.2694,-0.2785,-0.2875,-0.2875,-0.2875,-0.332,-0.3674,-0.4476,-0.5361,-0.6511,-0.7394,-0.8273,-0.889,-0.9244,-0.9506,-0.9859,-1.0038,-1.0038,-1.0549,-1.1322,-1.1837,-1.2443,-1.3633,-1.4817,-1.5318,1.2212,1.1879,1.1811,1.1657,1.1546,1.158,1.1572,1.1436,1.1501,1.1558,1.1558,1.1558,1.1329,1.0801,1.0426,0.9604,0.8851,0.8703,0.8703,0.8703,0.8703,0.8703,0.8632,0.8632,0.8775,0.8998,0.9679,1.0056,1.0056,1.0507,1.0812,1.1037,1.126,1.1409,1.1335,1.126,1.118,1.1186,1.1267,1.1267,1.1409,1.1403,1.1329,1.126,1.1254,1.1186,1.1111,1.1117,1.1117,1.1111,1.1031,1.0881,1.0738,1.0599,1.031,1.0155,1.0442,1.0719,1.0713,1.1069,1.1246,1.117,1.0824,1.0207,0.9676,0.8444,0.7122,0.6245,0.545,0.4478,0.43,0.4297,0.4297,0.4297,0.4297,0.4208,0.4032,0.3942,0.3496,0.2869,0.2617,0.2084,0.1264,0.0809,0.0269,-0.0538,-0.1346,-0.1885,-0.2244,-0.2515,-0.2875,-0.2875,-0.2875,-0.2875,-0.2964,-0.332,-0.3853,-0.4652,-0.5714,-0.6861,-0.7834,-0.8803,-0.9244,-0.9598,-0.9864,-1.0038,-1.0125,-1.0212,-1.0895,-1.158,-1.2266,-1.3118,-1.4307,-1.5235,-1.5733,1.145,1.1227,1.0686,1.0702,1.1064,1.0605,1.0692,1.1037,1.0588,1.0363,1.0438,1.0513,1.0137,0.9539,0.916,0.8699,0.825,0.82,0.8163,0.809,0.809,0.8159,0.8223,0.8255,0.8241,0.8165,0.8466,0.877,0.9377,0.983,1.0137,1.0438,1.0962,1.1192,1.0962,1.0669,1.0962,1.1105,1.1174,1.1329,1.1632,1.1706,1.1632,1.1484,1.1484,1.1409,1.1186,1.1186,1.1111,1.1037,1.0887,1.0743,1.0594,1.0449,1.0223,0.9992,1.0526,1.0579,1.0331,1.0995,1.1089,1.0472,0.9932,0.9492,0.8882,0.8097,0.6953,0.5808,0.5102,0.4659,0.4478,0.4389,0.4389,0.4297,0.4297,0.4297,0.421,0.4032,0.3585,0.3136,0.2956,0.224,0.1345,0.0179,-0.0538,-0.0987,-0.1795,-0.2244,-0.2604,-0.2694,-0.2875,-0.2875,-0.2875,-0.2875,-0.3053,-0.332,-0.4032,-0.483,-0.6065,-0.7302,-0.836,-0.9331,-0.9598,-0.9777,-0.9864,-1.0038,-1.0125,-1.0467,-1.1154,-1.1843,-1.2778,-1.3711,-1.481,-1.5567,-1.6154,1.058,1.0309,0.9736,0.9667,0.9852,0.9155,0.8883,0.9074,0.9079,0.8927,0.9155,0.9003,0.8703,0.7957,0.7196,0.6806,0.6772,0.6942,0.7081,0.7081,0.7081,0.7081,0.6896,0.6847,0.7215,0.7354,0.7334,0.8008,0.8846,0.9372,0.9674,0.983,1.0148,1.0304,1.0056,0.975,1.0003,1.0426,1.0444,1.081,1.1545,1.1632,1.1626,1.1632,1.1632,1.1558,1.1409,1.1335,1.126,1.1037,1.0438,1.0067,0.9922,0.9311,0.8922,0.9115,0.9675,1.0222,0.9302,0.9955,1.0386,0.9506,0.9056,0.9061,0.8364,0.7485,0.6425,0.5275,0.5013,0.4837,0.4659,0.4659,0.4569,0.43,0.421,0.421,0.4121,0.3223,0.2956,0.2597,0.2149,0.1792,0.1165,-0.009,-0.1256,-0.1705,-0.2155,-0.2515,-0.2875,-0.2875,-0.2875,-0.2875,-0.2964,-0.2964,-0.3321,-0.3587,-0.4476,-0.5275,-0.6422,-0.7654,-0.8627,-0.9423,-0.9772,-0.9951,-0.9951,-1.012,-1.0381,-1.0814,-1.1413,-1.2266,-1.3281,-1.421,-1.5144,-1.5899,-1.6484,1.0153,1.0492,0.9659,0.9073,0.8739,0.8595,0.8062,0.766,0.83,0.8775,0.8851,0.878,0.83,0.745,0.6774,0.651,0.6505,0.6488,0.66,0.66,0.6682,0.676,0.6891,0.6853,0.6931,0.6887,0.7076,0.7407,0.8241,0.8689,0.8917,0.915,0.9695,0.9997,0.9367,0.8732,0.912,0.9653,1.0099,1.0473,1.1105,1.1341,1.1484,1.1861,1.1774,1.1626,1.1409,1.1409,1.1329,1.1025,1.0329,0.9879,0.9685,0.9185,0.853,0.8112,0.9143,0.9227,0.8626,0.902,0.8827,0.8444,0.791,0.7115,0.6868,0.6523,0.5991,0.528,0.528,0.5104,0.4839,0.475,0.4569,0.43,0.3762,0.3582,0.3314,0.2506,0.1969,0.1611,0.1253,0.0896,0.0628,-0.0179,-0.1256,-0.1974,-0.2244,-0.2515,-0.2785,-0.2875,-0.2875,-0.2875,-0.2964,-0.3142,-0.3588,-0.4123,-0.5186,-0.6071,-0.6691,-0.7837,-0.8723,-0.9432,-0.9689,-0.9864,-0.9951,-1.0207,-1.0554,-1.1241,-1.1929,-1.2851,-1.3944,-1.4796,-1.565,-1.6147,-1.6648,0.973,1.0288,0.9257,0.846,0.8047,0.8094,0.7134,0.595,0.7222,0.7855,0.7787,0.7521,0.7163,0.6725,0.6037,0.5674,0.5853,0.6062,0.6077,0.6164,0.6325,0.6386,0.6312,0.6458,0.6676,0.6893,0.6924,0.7107,0.7403,0.7859,0.8237,0.8394,0.8775,0.9079,0.8756,0.8201,0.8121,0.921,0.9739,1.0201,1.0669,1.0743,1.1031,1.1254,1.1477,1.1323,1.118,1.1111,1.1037,1.049,0.9932,0.9412,0.9079,0.834,0.7811,0.7553,0.8073,0.8205,0.7979,0.8084,0.7872,0.7383,0.6861,0.6068,0.5905,0.5733,0.5644,0.5463,0.5463,0.5285,0.4928,0.4659,0.403,0.3582,0.3045,0.2776,0.2327,0.1611,0.1075,0.0806,0.0358,-0.0179,-0.0448,-0.0538,-0.1166,-0.2064,-0.2424,-0.2604,-0.2784,-0.2875,-0.2875,-0.2875,-0.2963,-0.3232,-0.3944,-0.4654,-0.5808,-0.6782,-0.7401,-0.8021,-0.8819,-0.9345,-0.9607,-0.9777,-0.9951,-1.0467,-1.0982,-1.1666,-1.2437,-1.3451,-1.4378,-1.5311,-1.6072,-1.6484,-1.6886,0.9015,0.8927,0.7781,0.7772,0.8489,0.703,0.5541,0.4358,0.5389,0.5556,0.5188,0.48,0.4824,0.4325,0.443,0.4272,0.4122,0.4199,0.4572,0.4667,0.4746,0.5219,0.5393,0.5694,0.5796,0.5783,0.6271,0.6563,0.6799,0.713,0.7496,0.7638,0.7987,0.7804,0.7714,0.7638,0.7613,0.8533,0.914,0.9669,0.99,0.9976,1.0051,1.0115,1.0115,1.0121,1.0346,1.0507,1.0363,0.982,0.911,0.8585,0.8089,0.732,0.6871,0.6991,0.7062,0.7199,0.7172,0.7628,0.7544,0.652,0.5816,0.5727,0.5733,0.5733,0.5644,0.5646,0.5646,0.5557,0.502,0.43,0.3312,0.2596,0.197,0.1701,0.1254,0.0627,0.009,-0.009,-0.0448,-0.0807,-0.0987,-0.0987,-0.1166,-0.1974,-0.2424,-0.2604,-0.2694,-0.2875,-0.2875,-0.2964,-0.2963,-0.3409,-0.43,-0.5186,-0.634,-0.7228,-0.7937,-0.8292,-0.8823,-0.9174,-0.9519,-0.9864,-1.0125,-1.0727,-1.1499,-1.2266,-1.3112,-1.3964,-1.481,-1.5567,-1.6237,-1.6722,-1.7204,0.8351,0.737,0.6381,0.7042,0.8539,0.6651,0.5082,0.4142,0.4771,0.4896,0.433,0.434,0.4187,0.4,0.3941,0.4052,0.4096,0.4128,0.4322,0.4682,0.5024,0.5269,0.5526,0.5477,0.5849,0.5678,0.5969,0.6015,0.6018,0.64,0.6455,0.662,0.7183,0.7655,0.7638,0.741,0.7585,0.7799,0.825,0.8623,0.915,0.9226,0.9377,0.9895,0.989,1.0062,1.0235,0.9916,0.9695,0.9311,0.8443,0.7931,0.7467,0.6734,0.6536,0.6614,0.6749,0.6803,0.6666,0.7186,0.6782,0.6174,0.5733,0.5733,0.5733,0.5733,0.5735,0.5741,0.5744,0.5563,0.5389,0.3583,0.1969,0.1343,0.0895,0.0627,0.0269,-0.0269,-0.0628,-0.0718,-0.0897,-0.1256,-0.1346,-0.1346,-0.1525,-0.1795,-0.2155,-0.2515,-0.2694,-0.2873,-0.2963,-0.3232,-0.332,-0.4121,-0.501,-0.5897,-0.6874,-0.7672,-0.8384,-0.8564,-0.8828,-0.9087,-0.9432,-0.9864,-1.0549,-1.1322,-1.2174,-1.2942,-1.3711,-1.4307,-1.4985,-1.5741,-1.6312,-1.6878,-1.7521,0.7863,0.656,0.5854,0.6483,0.7675,0.587,0.4636,0.4032,0.443,0.4348,0.3894,0.3621,0.3428,0.3311,0.3241,0.3257,0.32,0.3303,0.3573,0.3751,0.4018,0.4634,0.5007,0.5087,0.5055,0.533,0.5425,0.5373,0.5387,0.5624,0.5922,0.629,0.6742,0.7245,0.7564,0.764,0.7638,0.7638,0.7717,0.7831,0.844,0.8499,0.8512,0.9018,0.8988,0.9064,0.916,0.8998,0.8689,0.8336,0.7902,0.7471,0.7123,0.6873,0.6719,0.6713,0.6871,0.691,0.6835,0.6523,0.6169,0.5733,0.5733,0.5733,0.5733,0.5733,0.5735,0.5741,0.5654,0.5479,0.5032,0.2865,0.0984,0.0358,-0.0179,-0.0448,-0.0538,-0.0897,-0.1076,-0.1256,-0.1436,-0.1436,-0.1436,-0.1436,-0.1615,-0.1794,-0.2064,-0.2424,-0.2604,-0.2873,-0.3142,-0.3497,-0.3853,-0.4832,-0.5899,-0.652,-0.7228,-0.7944,-0.848,-0.8568,-0.8744,-0.9091,-0.9607,-1.012,-1.0977,-1.1912,-1.2942,-1.3795,-1.423,-1.4573,-1.5242,-1.5997,-1.6394,-1.696,-1.7836,0.7565,0.6641,0.6247,0.6187,0.6213,0.454,0.3887,0.3637,0.3736,0.349,0.2925,0.2426,0.2017,0.1781,0.1871,0.1965,0.1879,0.1792,0.1883,0.2241,0.2688,0.2748,0.3158,0.3637,0.4193,0.4193,0.4496,0.4823,0.4839,0.52,0.5586,0.5776,0.6102,0.6557,0.7033,0.7671,0.791,0.7988,0.7881,0.7946,0.794,0.7986,0.7985,0.7991,0.8035,0.8198,0.8121,0.8203,0.7888,0.7184,0.7442,0.7172,0.6739,0.6719,0.6773,0.6902,0.6926,0.701,0.7034,0.6432,0.6083,0.5819,0.5733,0.5733,0.5733,0.5733,0.5738,0.5744,0.5746,0.4665,0.3494,0.1879,0.0358,-0.0538,-0.0987,-0.1166,-0.1166,-0.1166,-0.1346,-0.1436,-0.1436,-0.1436,-0.1436,-0.1436,-0.1614,-0.1794,-0.2064,-0.2334,-0.2603,-0.296,-0.3408,-0.4208,-0.4741,-0.5453,-0.6428,-0.6874,-0.7496,-0.8212,-0.8656,-0.8656,-0.8915,-0.9262,-0.9864,-1.0463,-1.166,-1.2851,-1.3795,-1.4741,-1.4908,-1.5075,-1.5582,-1.6162,-1.6484,-1.7123,-1.8149,0.7863,0.6721,0.5871,0.5445,0.5305,0.4254,0.3226,0.2283,0.2261,0.24,0.2524,0.1938,0.1512,0.1433,0.1436,0.1436,0.1436,0.1436,0.1525,0.1885,0.2064,0.2504,0.2834,0.3149,0.3547,0.3748,0.3989,0.4225,0.4216,0.4596,0.4651,0.4732,0.5378,0.593,0.6505,0.7014,0.7349,0.7432,0.7675,0.7979,0.7935,0.7841,0.7809,0.7733,0.7805,0.7717,0.7549,0.7709,0.7301,0.6645,0.7067,0.6909,0.6737,0.6783,0.6897,0.69,0.6993,0.7001,0.6871,0.6523,0.6169,0.5994,0.5822,0.5735,0.5733,0.5733,0.5741,0.5749,0.5665,0.422,0.1616,0.0538,-0.0538,-0.0987,-0.1346,-0.1346,-0.1346,-0.1346,-0.1436,-0.1436,-0.1436,-0.1436,-0.1436,-0.1525,-0.1614,-0.1973,-0.2242,-0.2778,-0.3224,-0.3582,-0.4028,-0.5095,-0.5808,-0.634,-0.6962,-0.7496,-0.7764,-0.8388,-0.8656,-0.8652,-0.8999,-0.9515,-1.0294,-1.1063,-1.2425,-1.3795,-1.4398,-1.4915,-1.5333,-1.5665,-1.5922,-1.617,-1.6574,-1.7521,-1.878,0.803,0.6645,0.5749,0.5086,0.4526,0.3619,0.2639,0.1839,0.1729,0.2109,0.2468,0.1873,0.1436,0.1436,0.1436,0.1436,0.1436,0.1436,0.1436,0.1885,0.1885,0.2151,0.2585,0.2917,0.3238,0.3363,0.3613,0.3775,0.3987,0.3991,0.4155,0.4327,0.459,0.4863,0.5418,0.6049,0.6695,0.679,0.6963,0.726,0.7293,0.7424,0.7571,0.76,0.7749,0.7839,0.769,0.7454,0.721,0.695,0.6791,0.6795,0.6841,0.6873,0.6991,0.6974,0.7071,0.7051,0.6874,0.6609,0.6343,0.6169,0.5908,0.5738,0.5741,0.5744,0.5749,0.5668,0.5673,0.4318,0.2247,0.0987,-0.0718,-0.1076,-0.1436,-0.1436,-0.1436,-0.1436,-0.1436,-0.1436,-0.1525,-0.1436,-0.1525,-0.1524,-0.1704,-0.2152,-0.2511,-0.3223,-0.3846,-0.4202,-0.4736,-0.5894,-0.6694,-0.7051,-0.7584,-0.8032,-0.8388,-0.8568,-0.8656,-0.874,-0.9423,-1.0024,-1.089,-1.1752,-1.3027,-1.4048,-1.4566,-1.4992,-1.5416,-1.5665,-1.5922,-1.6245,-1.6574,-1.7755,-1.9177,0.8132,0.6485,0.6141,0.5204,0.3871,0.2783,0.2389,0.2694,0.2309,0.2418,0.2777,0.1792,0.1436,0.1436,0.1436,0.1436,0.1436,0.1436,0.1436,0.1433,0.1518,0.1878,0.2059,0.2319,0.2726,0.3115,0.3386,0.3551,0.3836,0.3991,0.4116,0.4152,0.4014,0.4018,0.4448,0.4963,0.5651,0.5728,0.6075,0.6294,0.6328,0.657,0.678,0.6986,0.729,0.7716,0.772,0.7636,0.7359,0.7129,0.6936,0.6905,0.698,0.7068,0.7115,0.7139,0.7136,0.7048,0.6962,0.6609,0.6435,0.6263,0.5919,0.5746,0.5568,0.5389,0.5213,0.5492,0.5679,0.5318,0.4501,0.1974,-0.0448,-0.0897,-0.1346,-0.1346,-0.1436,-0.1436,-0.1436,-0.1436,-0.1614,-0.1704,-0.1793,-0.1882,-0.2508,-0.3133,-0.3669,-0.4291,-0.4823,-0.509,-0.5714,-0.6694,-0.7319,-0.7676,-0.812,-0.8476,-0.848,-0.8572,-0.8656,-0.8823,-0.968,-1.0707,-1.1655,-1.2595,-1.3626,-1.4398,-1.4915,-1.5166,-1.5416,-1.5748,-1.6079,-1.6648,-1.7049,-1.8158,-1.9413,0.7576,0.6388,0.6198,0.515,0.3454,0.2626,0.2475,0.2756,0.2418,0.2333,0.2333,0.1705,0.144,0.1436,0.1436,0.1438,0.1436,0.1436,0.1436,0.1429,0.1416,0.1511,0.1688,0.1948,0.2277,0.2592,0.2885,0.3154,0.344,0.3737,0.3953,0.418,0.3583,0.3317,0.3315,0.3671,0.4026,0.4469,0.5001,0.5242,0.5308,0.5468,0.5869,0.6282,0.6612,0.7142,0.7951,0.7598,0.7332,0.7104,0.7044,0.7078,0.7001,0.7119,0.7139,0.7139,0.7051,0.7051,0.6881,0.671,0.6447,0.6094,0.5844,0.5754,0.5392,0.4757,0.4403,0.4499,0.4773,0.432,-0.0,-0.0,-0.0,-0.0718,-0.1166,-0.1436,-0.1436,-0.1436,-0.1436,-0.1793,-0.1883,-0.233,-0.2419,-0.2953,-0.3576,-0.4291,-0.4825,-0.5359,-0.5802,-0.6068,-0.6511,-0.7404,-0.7852,-0.8124,-0.83,-0.8568,-0.8568,-0.8656,-0.874,-0.9257,-1.0284,-1.1311,-1.2334,-1.336,-1.4307,-1.4824,-1.5257,-1.5423,-1.5506,-1.6072,-1.6476,-1.7041,-1.7683,-1.8789,-1.9737,0.7435,0.6373,0.6076,0.5087,0.3703,0.3299,0.3136,0.2868,0.2423,0.2251,0.2361,0.1726,0.146,0.1473,0.1474,0.1468,0.1455,0.1455,0.1451,0.1428,0.1406,0.1416,0.1593,0.1669,0.1731,0.1969,0.2025,0.2228,0.2529,0.2741,0.3005,0.3032,0.2868,0.2599,0.242,0.2419,0.2508,0.3042,0.3578,0.4022,0.4198,0.4376,0.491,0.5354,0.5528,0.6615,0.7801,0.734,0.6969,0.7061,0.7149,0.7139,0.7136,0.7139,0.7139,0.7051,0.6966,0.6972,0.6894,0.6631,0.6002,0.556,0.5578,0.5765,0.4587,0.3592,0.3054,0.2695,0.2876,-0.0,-0.0,-0.0,-0.0,-0.0628,-0.0987,-0.1346,-0.1436,-0.1436,-0.1704,-0.2062,-0.2509,-0.2956,-0.3491,-0.4022,-0.4556,-0.5006,-0.545,-0.5897,-0.6428,-0.6871,-0.7224,-0.7845,-0.8208,-0.848,-0.866,-0.8656,-0.8744,-0.8828,-0.917,-0.9772,-1.0885,-1.1997,-1.3197,-1.4048,-1.4908,-1.5257,-1.5431,-1.5431,-1.5506,-1.6154,-1.6788,-1.7513,-1.831,-1.9265,-2.0138,0.7339,0.6254,0.5764,0.5001,0.4387,0.4121,0.3673,0.2959,0.2519,0.2454,0.2488,0.1849,0.1493,0.1508,0.1512,0.1502,0.149,0.1484,0.1474,0.144,0.1414,0.1329,0.1249,0.1318,0.1033,0.0932,0.1004,0.1242,0.1134,0.1401,0.1629,0.1339,0.1344,0.1345,0.1435,0.1435,0.1524,0.1703,0.233,0.2865,0.2955,0.3221,0.3578,0.3935,0.4472,0.5282,0.6548,0.6723,0.6169,0.6618,0.6795,0.6694,0.6605,0.6874,0.6874,0.6966,0.6792,0.689,0.6815,0.6643,0.5652,0.5116,0.4945,0.5499,0.4685,0.2425,0.1438,-0.0,-0.0,-0.0,-0.0,-0.0,-0.0,-0.0628,-0.1076,-0.1346,-0.1436,-0.1704,-0.233,-0.2776,-0.3491,-0.3937,-0.438,-0.4914,-0.5536,-0.5808,-0.5985,-0.6432,-0.6786,-0.7319,-0.776,-0.8113,-0.8292,-0.8476,-0.8744,-0.8744,-0.8828,-0.9087,-0.9602,-1.0626,-1.1826,-1.2942,-1.3971,-1.4657,-1.5257,-1.5347,-1.5431,-1.5431,-1.559,-1.6072,-1.6788,-1.79,-1.8859,-1.9816,-2.0615,0.6641,0.5766,0.4556,0.4121,0.4208,0.3942,0.3676,0.3411,0.2918,0.2393,0.185,0.1669,0.1501,0.153,0.1534,0.1525,0.1519,0.1515,0.151,0.1391,0.1358,0.0991,0.0726,0.0621,0.0259,-0.0,-0.0,0.025,0.0413,0.0669,0.0856,0.098,0.0717,0.0358,0.0538,0.0628,0.0628,0.0718,0.1345,0.1793,0.1882,0.1972,0.224,0.2777,0.3494,0.3667,0.4474,0.4828,0.4374,0.4374,0.4734,0.4912,0.4912,0.5628,0.5894,0.5985,0.6441,0.6539,0.6459,0.6293,0.5757,0.522,0.5138,0.5507,0.451,0.1709,-0.0,-0.0,-0.0,-0.0,-0.0,-0.0,-0.018,-0.0628,-0.1076,-0.1256,-0.1436,-0.224,-0.2953,-0.3757,-0.4469,-0.5006,-0.5361,-0.5805,-0.6428,-0.6694,-0.6782,-0.6962,-0.6966,-0.7319,-0.776,-0.8025,-0.8113,-0.838,-0.8648,-0.9087,-0.9257,-0.9864,-1.0463,-1.1574,-1.2851,-1.3795,-1.4657,-1.4999,-1.5431,-1.5431,-1.5431,-1.5431,-1.5673,-1.6147,-1.7098,-1.8292,-1.9256,-2.0294,-2.1011,0.6455,0.563,0.4389,0.4032,0.421,0.4032,0.3765,0.351,0.3115,0.251,0.1879,0.1611,0.1537,0.1562,0.1566,0.1553,0.1549,0.1546,0.1533,0.1417,0.1119,0.0741,0.0366,-0.009,-0.0619,-0.0951,-0.1088,-0.0911,-0.0502,-0.0589,-0.0514,-0.0267,-0.0627,-0.0537,-0.0359,-0.0269,-0.009,-0.009,0.0628,0.0897,0.0987,0.1256,0.1524,0.2152,0.224,0.2417,0.2684,0.3218,0.3487,0.3575,0.4111,0.4378,0.4556,0.4823,0.5001,0.5184,0.5458,0.5824,0.5565,0.5576,0.5318,0.4238,-0.0,-0.0,-0.0,-0.0,-0.0,-0.0,-0.0,-0.0,-0.0,-0.0,-0.0449,-0.0808,-0.1256,-0.1524,-0.2151,-0.3042,-0.3846,-0.4739,-0.5361,-0.5628,-0.6074,-0.6428,-0.6874,-0.6874,-0.7051,-0.7051,-0.7143,-0.7408,-0.776,-0.8113,-0.8376,-0.8723,-0.9257,-0.9689,-0.9946,-1.0549,-1.1327,-1.2431,-1.3626,-1.4482,-1.5257,-1.5347,-1.5431,-1.5431,-1.5431,-1.5514,-1.5982,-1.6617,-1.7649,-1.8753,-1.9728,-2.0615,-2.1252,0.6517,0.5633,0.4656,0.43,0.4297,0.4297,0.4032,0.3602,0.3125,0.2627,0.2196,0.1754,0.1592,0.1609,0.1615,0.1598,0.1584,0.1578,0.1561,0.1156,0.0661,0.0095,-0.0376,-0.0739,-0.1353,-0.1748,-0.2024,-0.2093,-0.2017,-0.1948,-0.1899,-0.2138,-0.1885,-0.1525,-0.1436,-0.1077,-0.0807,-0.0628,-0.0179,0.0179,0.0538,0.0987,0.1345,0.1435,0.1436,0.1436,0.1704,0.2151,0.2777,0.3045,0.331,0.3489,0.3666,0.3844,0.4024,0.4204,0.4656,0.4663,0.4489,0.4318,0.2793,-0.0,-0.0,-0.0,-0.0,-0.0,-0.0,-0.0,-0.0,-0.0,-0.0,-0.0719,-0.0898,-0.1434,-0.1792,-0.224,-0.3132,-0.3935,-0.4825,-0.5719,-0.6074,-0.634,-0.6605,-0.7051,-0.7051,-0.7139,-0.7139,-0.7139,-0.7228,-0.7665,-0.8017,-0.8544,-0.8982,-0.9423,-0.9946,-1.0467,-1.0895,-1.1413,-1.2272,-1.3379,-1.4321,-1.4831,-1.5173,-1.5347,-1.5431,-1.5431,-1.559,-1.5741,-1.6296,-1.7009,-1.8364,-1.9395,-1.9953,-2.0769,-2.1405,0.6432,0.5371,0.4837,0.448,0.43,0.4297,0.4034,0.361,0.3171,0.2661,0.2213,0.178,0.1613,0.1617,0.1617,0.1609,0.1604,0.1603,0.1104,0.0598,0.0292,-0.0389,-0.116,-0.1517,-0.2104,-0.2385,-0.2566,-0.2616,-0.2555,-0.2583,-0.2535,-0.2419,-0.2694,-0.2424,-0.2155,-0.1885,-0.1525,-0.1346,-0.0987,-0.0448,-0.009,0.0448,0.1256,0.1436,0.1436,0.1436,0.1525,0.1524,0.1704,0.1792,0.1972,0.2151,0.2418,0.2864,0.3044,0.3223,0.3674,0.4139,0.3967,0.2708,-0.0,-0.0,-0.0,-0.0,-0.0,-0.0,-0.0,-0.0,-0.0,-0.0,-0.0919,-0.1267,-0.162,-0.278,-0.3583,-0.4026,-0.4736,-0.5181,-0.5716,-0.634,-0.6697,-0.6874,-0.6874,-0.7139,-0.7139,-0.7139,-0.7139,-0.7139,-0.7404,-0.7841,-0.8364,-0.9061,-0.9676,-1.0197,-1.0809,-1.1585,-1.21,-1.2619,-1.313,-1.3815,-1.4405,-1.4831,-1.5173,-1.5347,-1.5431,-1.5431,-1.5582,-1.5899,-1.6609,-1.7479,-1.9,-2.0041,-2.0518,-2.0924,-2.1568]},{"header":{"parameterUnit":"m.s-1","parameterCategory":1,"la1":31.0,"la2":29.5877,"lo1":-88.7671,"lo2":-86.6584,"dx":0.0162,"dy":0.0185,"nx":115,"ny":88,"refTime":"2023-01-05T18:00:00:Z","depth":0,"parameterNumber":3,"parameterNumberName":"V-component_of_WINDS"},"data":[0.0,0.0,0.0,0.0,0.0,0.0,0.0,0.0,0.0,0.0,0.0,0.0,0.0,0.0,0.0,0.0,0.0,0.0,0.0,0.0,0.0,0.0,0.0,0.0,0.0,0.0,0.0,0.0,0.0,0.0,0.0,0.0,0.0,0.0,0.0,0.0,0.0,0.0,0.0,0.0,0.0,0.0,0.0,0.0,0.0,0.0,0.0,0.0,0.0,0.0,0.0,0.0,0.0,0.0,0.0,0.0,0.0,0.0,0.0,0.0,0.0,0.0,0.0,0.0,0.0,0.0,0.0,0.0,0.0,0.0,0.0,0.0,0.0,0.0,0.0,0.0,0.0,0.0,0.0,0.0,0.0,0.0,0.0,0.0,0.0,0.0,0.0,0.0,0.0,0.0,0.0,0.0,0.0,0.0,0.0,0.0,0.0,0.0,0.0,0.0,0.0,0.0,0.0,0.0,0.0,0.0,0.0,0.0,0.0,0.0,0.0,0.0,0.0,0.0,0.0,0.0,0.0,0.0,0.0,0.0,0.0,0.0,0.0,0.0,0.0,0.0,0.0,0.0,0.0,0.0,0.0,0.0,0.0,0.0,0.0,0.0,0.0,0.0,0.0,0.0,0.0,0.0,0.0,0.0,0.0,0.0,0.0,0.0,0.0,0.0,0.0,0.0,0.0,0.0,0.0,0.0,0.0,0.0,0.0,0.0,0.0,0.0,0.0,0.0,0.0,0.0,0.0,0.0,0.0,0.0,0.0,0.0,0.0,0.0,0.0,0.0,0.0,0.0,0.0,0.0,0.0,0.0,0.0,0.0,0.0,0.0,0.0,0.0,0.0,0.0,0.0,0.0,0.0,0.0,0.0,0.0,0.0,0.0,0.0,0.0,0.0,0.0,0.0,0.0,0.0,0.0,0.0,0.0,0.0,0.0,0.0,0.0,0.0,0.0,0.0,0.0,0.0,0.0,0.0,0.0,0.0,0.0,0.0,0.0,0.0,0.0,0.0,0.0,0.0,0.0,0.0,0.0,0.0,0.0,0.0,0.0,0.0,0.0,0.0,0.0,0.0,0.0,0.0,0.0,0.0,0.0,0.0,0.0,0.0,0.0,0.0,0.0,0.0,0.0,0.0,0.0,0.0,0.0,0.0,0.0,0.0,0.0,0.0,0.0,0.0,0.0,0.0,0.0,0.0,0.0,0.0,0.0,0.0,0.0,0.0,0.0,0.0,0.0,0.0,0.0,0.0,0.0,0.0,0.0,0.0,0.0,0.0,0.0,0.0,0.0,0.0,0.0,0.0,0.0,0.0,0.0,0.0,0.0,0.0,0.0,0.0,0.0,0.0,0.0,0.0,0.0,0.0,0.0,0.0,0.0,0.0,0.0,0.0,0.0,0.0,0.0,0.0,0.0,0.0,0.0,0.0,0.0,0.0,0.0,0.0,0.0,0.0,0.0,0.0,0.0,0.0,0.0,0.0,0.0,0.0,0.0,0.0,0.0,0.0,0.0,0.0,0.0,0.0,0.0,0.0,0.0,0.0,0.0,0.0,0.0,0.0,0.0,0.0,0.0,0.0,0.0,0.0,0.0,0.0,0.0,0.0,0.0,0.0,0.0,0.0,0.0,0.0,0.0,0.0,0.0,0.0,0.0,0.0,0.0,0.0,0.0,0.0,0.0,0.0,0.0,0.0,0.0,0.0,0.0,0.0,0.0,0.0,0.0,0.0,0.0,0.0,0.0,0.0,0.0,0.0,0.0,0.0,0.0,0.0,0.0,0.0,0.0,0.0,0.0,0.0,0.0,0.0,0.0,0.0,0.0,0.0,0.0,0.0,0.0,0.0,0.0,0.0,0.0,0.0,0.0,0.0,0.0,0.0,0.0,0.0,0.0,0.0,0.0,0.0,0.0,0.0,0.0,0.0,0.0,0.0,0.0,0.0,0.0,0.0,0.0,0.0,0.0,0.0,0.0,0.0,0.0,0.0,0.0,0.0,0.0,0.0,0.0,0.0,0.0,0.0,0.0,0.0,0.0,0.0,0.0,0.0,0.0,0.0,0.0,0.0,0.0,0.0,0.0,0.0,0.0,0.0,0.0,0.0,0.0,0.0,0.0,0.0,0.0,0.0,0.0,0.0,0.0,0.0,0.0,0.0,0.0,0.0,0.0,0.0,0.0,0.0,0.0,0.0,0.0,0.0,0.0,0.0,0.0,0.0,0.0,0.0,0.0,0.0,0.0,0.0,0.0,0.0,0.0,0.0,0.0,0.0,0.0,0.0,0.0,0.0,0.0,0.0,0.0,0.0,0.0,0.0,0.0,0.0,0.0,0.0,0.0,0.0,0.0,0.0,0.0,0.0,0.0,0.0,0.0,0.0,0.0,0.0,0.0,0.0,0.0,0.0,0.0,0.0,0.0,0.0,0.0,0.0,0.0,0.0,0.0,0.0,0.0,0.0,0.0,0.0,0.0,0.0,0.0,0.0,0.0,0.0,0.0,0.0,0.0,0.0,0.0,0.0,0.0,0.0,0.0,0.0,0.0,0.0,0.0,0.0,0.0,0.0,0.0,0.0,0.0,0.0,0.0,0.0,0.0,0.0,0.0,0.0,0.0,0.0,0.0,0.0,0.0,0.0,0.0,0.0,0.0,0.0,0.0,0.0,0.0,0.0,0.0,0.0,0.0,0.0,0.0,0.0,0.0,0.0,0.0,0.0,0.0,0.0,0.0,0.0,0.0,0.0,0.0,0.0,0.0,0.0,0.0,0.0,0.0,0.0,0.0,0.0,0.0,0.0,0.0,0.0,0.0,0.0,0.0,0.0,0.0,0.0,0.0,0.0,0.0,0.0,0.0,0.0,0.0,0.0,0.0,0.0,0.0,0.0,0.0,0.0,0.0,0.0,0.0,0.0,0.0,0.0,0.0,0.0,0.0,0.0,0.0,0.0,0.0,0.0,0.0,0.0,0.0,0.0,0.0,0.0,0.0,0.0,0.0,0.0,0.0,0.0,0.0,0.0,0.0,0.0,0.0,0.0,0.0,0.0,0.0,0.0,0.0,0.0,0.0,0.0,0.0,0.0,0.0,0.0,0.0,0.0,0.0,0.0,0.0,0.0,0.0,0.0,0.0,0.0,0.0,0.0,0.0,0.0,0.0,0.0,0.0,0.0,0.0,0.0,0.0,0.0,0.0,0.0,0.0,0.0,0.0,0.0,0.0,0.0,0.0,0.0,0.0,0.0,0.0,0.0,0.0,0.0,0.0,0.0,0.0,0.0,0.0,0.0,0.0,0.0,0.0,0.0,0.0,0.0,0.0,0.0,0.0,0.0,0.0,0.0,0.0,0.0,0.0,0.0,0.0,0.0,0.0,0.0,0.0,0.0,0.0,0.0,0.0,0.0,0.0,0.0,0.0,0.0,0.0,0.0,0.0,0.0,0.0,0.0,0.0,0.0,0.0,0.0,0.0,0.0,0.0,0.0,0.0,0.0,0.0,0.0,0.0,0.0,0.0,0.0,0.0,0.0,0.0,0.0,0.0,0.0,0.0,0.0,0.0,0.0,0.0,0.0,0.0,0.0,0.0,0.0,0.0,0.0,0.0,0.0,0.0,0.0,0.0,0.0,0.0,0.0,0.0,0.0,0.0,0.0,0.0,0.0,0.0,0.0,0.0,0.0,0.0,0.0,0.0,0.0,0.0,0.0,0.0,0.0,0.0,0.0,0.0,0.0,0.0,0.0,0.0,0.0,0.0,0.0,0.0,0.0,0.0,0.0,0.0,0.0,0.0,0.0,0.0,0.0,0.0,0.0,0.0,0.0,0.0,0.0,0.0,0.0,0.0,0.0,0.0,0.0,0.0,0.0,0.0,0.0,0.0,0.0,0.0,0.0,0.0,0.0,0.0,0.0,0.0,0.0,0.0,0.0,0.0,0.0,0.0,0.0,0.0,0.0,0.0,0.0,0.0,0.0,0.0,0.0,0.0,0.0,0.0,0.0,0.0,0.0,0.0,0.0,0.0,0.0,0.0,0.0,0.0,0.0,0.0,0.0,0.0,0.0,0.0,0.0,0.0,0.0,0.0,0.0,0.0,0.0,0.0,0.0,0.0,0.0,0.0,0.0,0.0,0.0,0.0,0.0,0.0,0.0,0.0,0.0,0.0,0.0,0.0,0.0,0.0,0.0,0.0,0.0,0.0,0.0,0.0,0.0,0.0,0.0,0.0,0.0,0.0,0.0,0.0,0.0,0.0,0.0,0.0,0.0,0.0,0.0,0.0,-0.9957,0.0,0.0,0.0,-1.0192,0.0,0.0,0.0,0.0,0.0,0.0,0.0,0.0,0.0,0.0,0.0,0.0,0.0,0.0,0.0,0.0,0.0,0.0,0.0,0.0,0.0,0.0,0.0,0.0,0.0,0.0,0.0,0.0,0.0,0.0,0.0,0.0,0.0,0.0,0.0,0.0,0.0,0.0,0.0,0.0,0.0,0.0,0.0,0.0,0.0,0.0,0.0,0.0,0.0,0.0,0.0,0.0,0.0,0.0,0.0,0.0,0.0,0.0,0.0,0.0,0.0,0.0,0.0,0.0,0.0,0.0,0.0,0.0,0.0,0.0,0.0,0.0,0.0,0.0,0.0,0.0,0.0,0.0,0.0,0.0,0.0,0.0,0.0,0.0,0.0,0.0,0.0,0.0,0.0,0.0,0.0,0.0,0.0,0.0,0.0,0.0,0.0,0.0,0.0,0.0,0.0,0.0,0.0,0.0,0.0,0.0,0.0,0.0,0.0,0.0,-0.9795,-0.9819,-1.1015,-1.1132,-1.0071,0.0,0.0,0.0,0.0,0.0,0.0,0.0,0.0,0.0,0.0,0.0,0.0,0.0,0.0,0.0,0.0,0.0,0.0,0.0,0.0,0.0,0.0,0.0,0.0,0.0,0.0,0.0,0.0,0.0,0.0,0.0,0.0,0.0,0.0,0.0,0.0,0.0,0.0,0.0,0.0,0.0,0.0,0.0,0.0,0.0,0.0,0.0,0.0,0.0,0.0,0.0,0.0,0.0,0.0,0.0,0.0,0.0,0.0,0.0,0.0,0.0,0.0,0.0,0.0,0.0,0.0,0.0,0.0,0.0,0.0,0.0,0.0,0.0,0.0,0.0,0.0,0.0,0.0,0.0,0.0,0.0,0.0,0.0,0.0,0.0,0.0,0.0,0.0,0.0,0.0,0.0,0.0,0.0,0.0,0.0,0.0,0.0,0.0,0.0,0.0,0.0,0.0,0.0,0.0,0.0,0.0,0.0,0.0,0.0,0.0,0.0,0.0,-1.1286,-1.1412,-1.0336,0.0,0.0,0.0,0.0,0.0,0.0,0.0,0.0,0.0,0.0,0.0,0.0,0.0,0.0,0.0,0.0,0.0,0.0,0.0,0.0,0.0,0.0,0.0,0.0,0.0,0.0,0.0,0.0,0.0,0.0,0.0,0.0,0.0,0.0,0.0,0.0,0.0,0.0,0.0,0.0,0.0,0.0,0.0,0.0,0.0,0.0,0.0,0.0,0.0,0.0,0.0,0.0,0.0,0.0,0.0,0.0,0.0,0.0,0.0,0.0,0.0,0.0,0.0,0.0,0.0,0.0,0.0,0.0,0.0,0.0,0.0,0.0,0.0,0.0,0.0,0.0,0.0,0.0,0.0,0.0,0.0,0.0,0.0,0.0,0.0,0.0,0.0,0.0,0.0,0.0,0.0,0.0,0.0,0.0,0.0,0.0,0.0,0.0,0.0,0.0,0.0,0.0,0.0,0.0,0.0,0.0,0.0,0.0,0.0,0.0,-1.0146,-1.0877,-1.1044,0.0,-1.1093,0.0,0.0,0.0,0.0,0.0,0.0,0.0,0.0,0.0,0.0,0.0,0.0,0.0,0.0,0.0,0.0,0.0,0.0,0.0,0.0,0.0,0.0,0.0,0.0,0.0,0.0,0.0,0.0,0.0,0.0,0.0,0.0,0.0,0.0,0.0,0.0,0.0,0.0,0.0,0.0,0.0,0.0,0.0,0.0,0.0,0.0,0.0,0.0,0.0,0.0,0.0,0.0,0.0,0.0,0.0,0.0,0.0,0.0,0.0,0.0,0.0,0.0,0.0,0.0,0.0,0.0,0.0,0.0,0.0,0.0,0.0,0.0,0.0,0.0,0.0,0.0,0.0,0.0,0.0,0.0,0.0,0.0,0.0,0.0,0.0,0.0,0.0,0.0,0.0,0.0,0.0,0.0,0.0,0.0,0.0,0.0,0.0,0.0,0.0,0.0,0.0,0.0,0.0,0.0,0.0,0.0,0.0,0.0,0.0,0.0,-1.0109,-1.097,-1.1035,-1.0882,0.0,0.0,0.0,0.0,0.0,0.0,0.0,0.0,0.0,0.0,0.0,0.0,0.0,0.0,0.0,0.0,0.0,0.0,0.0,0.0,0.0,0.0,0.0,0.0,0.0,0.0,0.0,0.0,0.0,0.0,0.0,0.0,0.0,0.0,0.0,0.0,0.0,0.0,0.0,0.0,0.0,0.0,0.0,0.0,0.0,0.0,0.0,0.0,0.0,0.0,0.0,0.0,0.0,0.0,0.0,0.0,0.0,0.0,0.0,0.0,0.0,0.0,0.0,0.0,0.0,0.0,0.0,0.0,0.0,0.0,0.0,0.0,0.0,0.0,0.0,0.0,0.0,0.0,0.0,0.0,0.0,0.0,0.0,0.0,0.0,0.0,0.0,0.0,0.0,0.0,0.0,0.0,0.0,0.0,0.0,0.0,0.0,0.0,0.0,0.0,0.0,0.0,0.0,0.0,0.0,0.0,0.0,0.0,0.0,0.0,-1.0121,-1.0455,-1.1267,-1.1154,-1.0833,-1.0313,0.0,0.0,0.0,0.0,0.0,0.0,0.0,0.0,0.0,0.0,0.0,0.0,0.0,0.0,0.0,0.0,0.0,0.0,0.0,0.0,0.0,0.0,0.0,0.0,0.0,0.0,0.0,0.0,0.0,0.0,0.0,0.0,0.0,0.0,0.0,0.0,0.0,0.0,0.0,0.0,0.0,0.0,0.0,0.0,0.0,0.0,0.0,0.0,0.0,0.0,0.0,0.0,0.0,0.0,0.0,0.0,0.0,0.0,0.0,0.0,0.0,0.0,0.0,0.0,0.0,0.0,0.0,0.0,0.0,0.0,0.0,0.0,0.0,0.0,0.0,0.0,0.0,0.0,0.0,0.0,0.0,0.0,0.0,0.0,0.0,0.0,0.0,0.0,0.0,0.0,0.0,0.0,0.0,0.0,0.0,0.0,0.0,0.0,0.0,0.0,0.0,0.0,0.0,0.0,0.0,0.0,0.0,0.0,-1.1838,-1.1387,-1.1458,-1.2057,-1.1397,-1.1016,0.0,0.0,0.0,0.0,0.0,0.0,0.0,0.0,0.0,0.0,0.0,0.0,0.0,0.0,0.0,0.0,0.0,0.0,0.0,0.0,0.0,0.0,0.0,0.0,0.0,0.0,0.0,0.0,0.0,0.0,0.0,0.0,0.0,0.0,0.0,0.0,0.0,0.0,0.0,0.0,0.0,0.0,0.0,0.0,0.0,0.0,0.0,0.0,0.0,0.0,0.0,0.0,0.0,0.0,0.0,0.0,0.0,0.0,0.0,0.0,0.0,0.0,0.0,0.0,0.0,0.0,0.0,0.0,0.0,0.0,0.0,0.0,0.0,0.0,0.0,0.0,0.0,0.0,0.0,0.0,0.0,0.0,0.0,0.0,0.0,0.0,0.0,0.0,0.0,0.0,0.0,0.0,0.0,0.0,0.0,0.0,0.0,0.0,0.0,0.0,0.0,0.0,0.0,0.0,0.0,0.0,0.0,0.0,0.0,-1.0393,-1.0852,-1.1187,-1.1418,-1.1148,-1.1038,0.0,0.0,0.0,0.0,0.0,0.0,0.0,0.0,0.0,0.0,0.0,0.0,0.0,0.0,0.0,0.0,0.0,0.0,0.0,0.0,0.0,0.0,0.0,0.0,0.0,0.0,0.0,0.0,0.0,0.0,0.0,0.0,0.0,0.0,0.0,0.0,0.0,0.0,0.0,0.0,0.0,0.0,0.0,0.0,0.0,0.0,0.0,0.0,0.0,0.0,0.0,0.0,0.0,0.0,0.0,0.0,0.0,0.0,0.0,0.0,0.0,0.0,0.0,0.0,0.0,0.0,0.0,0.0,0.0,0.0,0.0,0.0,0.0,0.0,0.0,0.0,0.0,0.0,0.0,0.0,0.0,0.0,0.0,0.0,0.0,0.0,0.0,0.0,0.0,0.0,0.0,0.0,0.0,0.0,0.0,0.0,0.0,0.0,0.0,0.0,0.0,0.0,0.0,0.0,0.0,0.0,0.0,0.0,0.0,-1.033,-1.1285,-1.1659,-1.1391,-1.1113,-1.0885,0.0,0.0,0.0,0.0,0.0,0.0,0.0,0.0,0.0,0.0,0.0,0.0,0.0,0.0,0.0,0.0,0.0,0.0,0.0,0.0,0.0,0.0,0.0,0.0,0.0,0.0,0.0,0.0,0.0,0.0,0.0,0.0,0.0,0.0,0.0,0.0,0.0,0.0,0.0,0.0,0.0,0.0,0.0,0.0,0.0,0.0,0.0,0.0,0.0,0.0,0.0,0.0,0.0,0.0,0.0,0.0,0.0,0.0,0.0,0.0,0.0,0.0,0.0,0.0,0.0,0.0,0.0,0.0,0.0,0.0,0.0,0.0,0.0,0.0,0.0,0.0,0.0,0.0,0.0,0.0,0.0,0.0,0.0,0.0,0.0,0.0,0.0,0.0,0.0,0.0,0.0,0.0,0.0,0.0,0.0,0.0,0.0,0.0,0.0,0.0,0.0,0.0,0.0,0.0,0.0,0.0,0.0,0.0,-1.0285,-1.1975,-1.2871,-1.29,-1.2234,-1.142,-1.065,0.0,0.0,0.0,0.0,0.0,0.0,0.0,0.0,0.0,0.0,0.0,0.0,0.0,0.0,0.0,0.0,0.0,0.0,0.0,0.0,0.0,0.0,0.0,0.0,0.0,0.0,0.0,0.0,0.0,0.0,0.0,0.0,0.0,0.0,0.0,0.0,0.0,0.0,0.0,0.0,0.0,0.0,0.0,0.0,0.0,0.0,0.0,0.0,0.0,0.0,0.0,0.0,0.0,0.0,0.0,0.0,0.0,0.0,0.0,0.0,0.0,0.0,0.0,0.0,0.0,0.0,0.0,0.0,0.0,0.0,0.0,0.0,0.0,0.0,0.0,0.0,0.0,0.0,0.0,0.0,0.0,0.0,0.0,0.0,0.0,0.0,0.0,0.0,0.0,0.0,0.0,0.0,0.0,0.0,0.0,0.0,0.0,0.0,0.0,0.0,0.0,0.0,0.0,0.0,0.0,0.0,0.0,0.0,0.0,-1.1214,-1.2068,-1.2649,-1.2906,-1.1644,-1.1055,0.0,0.0,0.0,0.0,0.0,0.0,0.0,0.0,0.0,0.0,0.0,0.0,0.0,0.0,0.0,0.0,0.0,0.0,0.0,0.0,0.0,0.0,0.0,0.0,0.0,0.0,0.0,0.0,0.0,0.0,0.0,0.0,0.0,0.0,0.0,0.0,0.0,0.0,0.0,0.0,0.0,0.0,0.0,0.0,0.0,0.0,0.0,0.0,0.0,0.0,0.0,0.0,0.0,0.0,0.0,0.0,0.0,0.0,0.0,0.0,0.0,0.0,0.0,0.0,0.0,0.0,0.0,0.0,0.0,0.0,0.0,0.0,0.0,0.0,0.0,0.0,0.0,0.0,0.0,0.0,0.0,0.0,0.0,0.0,0.0,0.0,0.0,0.0,0.0,0.0,0.0,0.0,0.0,0.0,0.0,0.0,0.0,0.0,0.0,0.0,0.0,0.0,0.0,0.0,0.0,0.0,0.0,0.0,0.0,-1.2205,-1.2721,-1.308,-1.3309,-1.2031,-1.1434,-1.1608,0.0,0.0,0.0,0.0,0.0,0.0,0.0,0.0,0.0,0.0,0.0,0.0,0.0,0.0,0.0,0.0,0.0,0.0,0.0,0.0,0.0,0.0,0.0,0.0,0.0,0.0,0.0,0.0,0.0,0.0,0.0,0.0,0.0,0.0,0.0,0.0,0.0,0.0,0.0,0.0,0.0,0.0,0.0,0.0,0.0,0.0,0.0,0.0,0.0,0.0,0.0,0.0,0.0,0.0,0.0,0.0,0.0,0.0,0.0,0.0,0.0,0.0,0.0,0.0,0.0,0.0,0.0,0.0,0.0,0.0,0.0,0.0,0.0,0.0,0.0,0.0,0.0,0.0,0.0,0.0,0.0,0.0,0.0,0.0,0.0,0.0,0.0,0.0,0.0,0.0,0.0,0.0,0.0,0.0,0.0,0.0,0.0,0.0,0.0,0.0,0.0,0.0,0.0,0.0,0.0,0.0,0.0,0.0,-1.4467,-1.4591,-1.4261,-1.3493,-1.2665,-1.1847,0.0,0.0,0.0,0.0,0.0,0.0,0.0,0.0,0.0,0.0,0.0,0.0,0.0,0.0,0.0,0.0,0.0,0.0,0.0,0.0,0.0,0.0,0.0,0.0,0.0,0.0,0.0,0.0,0.0,0.0,0.0,0.0,0.0,0.0,0.0,0.0,0.0,0.0,0.0,0.0,0.0,0.0,0.0,0.0,0.0,0.0,0.0,0.0,0.0,0.0,0.0,0.0,0.0,0.0,0.0,0.0,0.0,0.0,0.0,0.0,0.0,0.0,0.0,0.0,0.0,0.0,0.0,0.0,0.0,0.0,0.0,0.0,0.0,0.0,0.0,0.0,0.0,0.0,0.0,0.0,0.0,0.0,0.0,0.0,0.0,0.0,0.0,0.0,0.0,0.0,0.0,0.0,0.0,0.0,0.0,0.0,0.0,0.0,0.0,0.0,0.0,0.0,0.0,0.0,0.0,0.0,0.0,0.0,0.0,-1.4499,-1.5667,-1.5912,-1.5164,-1.432,-1.3262,0.0,0.0,0.0,0.0,0.0,0.0,0.0,0.0,0.0,0.0,0.0,0.0,0.0,0.0,0.0,0.0,0.0,0.0,0.0,0.0,0.0,0.0,0.0,0.0,0.0,0.0,0.0,0.0,0.0,0.0,0.0,0.0,0.0,0.0,0.0,0.0,0.0,0.0,0.0,0.0,0.0,0.0,0.0,0.0,0.0,0.0,0.0,0.0,0.0,0.0,0.0,0.0,0.0,0.0,0.0,0.0,0.0,0.0,0.0,0.0,0.0,0.0,0.0,0.0,0.0,0.0,0.0,0.0,0.0,0.0,0.0,0.0,0.0,0.0,0.0,0.0,0.0,0.0,0.0,0.0,0.0,0.0,0.0,0.0,0.0,0.0,0.0,0.0,0.0,0.0,0.0,0.0,0.0,0.0,0.0,0.0,0.0,0.0,0.0,0.0,0.0,0.0,0.0,0.0,0.0,0.0,0.0,0.0,-1.4524,-1.5953,-1.6904,-1.7371,-1.7266,-1.5484,-1.3956,0.0,0.0,0.0,0.0,0.0,0.0,0.0,0.0,0.0,0.0,0.0,0.0,0.0,0.0,0.0,0.0,0.0,0.0,0.0,0.0,0.0,0.0,0.0,0.0,0.0,0.0,0.0,0.0,0.0,0.0,0.0,0.0,0.0,0.0,0.0,0.0,0.0,0.0,0.0,0.0,0.0,0.0,0.0,0.0,0.0,0.0,0.0,0.0,0.0,0.0,0.0,0.0,0.0,0.0,0.0,0.0,0.0,0.0,0.0,0.0,0.0,0.0,0.0,0.0,0.0,0.0,0.0,0.0,0.0,0.0,0.0,0.0,0.0,0.0,0.0,0.0,0.0,0.0,0.0,0.0,0.0,0.0,0.0,0.0,0.0,0.0,0.0,0.0,0.0,0.0,0.0,0.0,0.0,0.0,0.0,0.0,0.0,0.0,0.0,0.0,0.0,0.0,0.0,0.0,0.0,0.0,0.0,0.0,-1.5751,-1.807,-1.8264,-1.8663,-1.9266,-1.6376,-1.4274,0.0,0.0,0.0,0.0,0.0,0.0,0.0,0.0,0.0,0.0,0.0,0.0,0.0,0.0,0.0,0.0,0.0,0.0,0.0,0.0,0.0,0.0,0.0,0.0,0.0,0.0,0.0,0.0,0.0,0.0,0.0,0.0,0.0,0.0,0.0,0.0,0.0,0.0,0.0,0.0,0.0,0.0,0.0,0.0,0.0,0.0,0.0,0.0,0.0,0.0,0.0,0.0,0.0,0.0,0.0,0.0,0.0,0.0,0.0,0.0,0.0,0.0,0.0,0.0,0.0,0.0,0.0,0.0,0.0,0.0,0.0,0.0,0.0,0.0,0.0,0.0,0.0,0.0,0.0,0.0,0.0,0.0,0.0,0.0,0.0,0.0,0.0,0.0,0.0,0.0,0.0,0.0,0.0,0.0,0.0,0.0,0.0,0.0,0.0,0.0,0.0,0.0,0.0,0.0,0.0,0.0,0.0,0.0,-1.6552,-1.889,-1.9514,-1.9897,-2.0078,-1.7687,-1.5447,0.0,0.0,0.0,0.0,0.0,0.0,0.0,0.0,0.0,0.0,0.0,0.0,0.0,0.0,0.0,0.0,0.0,0.0,0.0,0.0,0.0,0.0,0.0,0.0,0.0,0.0,0.0,0.0,0.0,0.0,0.0,0.0,0.0,0.0,0.0,0.0,0.0,0.0,0.0,0.0,0.0,0.0,0.0,0.0,0.0,0.0,0.0,0.0,-1.1266,0.0,0.0,0.0,0.0,0.0,0.0,0.0,0.0,0.0,0.0,0.0,0.0,0.0,0.0,0.0,0.0,0.0,0.0,0.0,0.0,0.0,0.0,0.0,0.0,0.0,0.0,0.0,0.0,0.0,0.0,0.0,0.0,0.0,0.0,0.0,0.0,0.0,0.0,0.0,0.0,0.0,0.0,0.0,0.0,0.0,0.0,0.0,0.0,0.0,0.0,0.0,0.0,0.0,0.0,0.0,0.0,0.0,0.0,0.0,-1.7709,-1.9644,-2.048,-2.0862,-2.0789,-1.8679,-1.6366,0.0,0.0,0.0,0.0,0.0,0.0,0.0,0.0,0.0,0.0,0.0,0.0,0.0,0.0,0.0,0.0,0.0,0.0,0.0,0.0,0.0,0.0,0.0,0.0,0.0,0.0,0.0,0.0,0.0,0.0,0.0,0.0,0.0,0.0,0.0,0.0,0.0,0.0,0.0,0.0,0.0,0.0,0.0,0.0,0.0,0.0,0.0,0.0,0.0,0.0,0.0,0.0,0.0,0.0,0.0,0.0,0.0,0.0,0.0,0.0,0.0,0.0,0.0,0.0,0.0,0.0,0.0,0.0,0.0,0.0,0.0,0.0,0.0,0.0,0.0,0.0,0.0,0.0,0.0,0.0,0.0,0.0,0.0,0.0,0.0,0.0,0.0,0.0,0.0,0.0,0.0,0.0,0.0,0.0,0.0,0.0,0.0,0.0,0.0,0.0,0.0,0.0,0.0,0.0,0.0,0.0,0.0,-1.636,-1.8679,-2.0409,-2.1279,-2.1624,-2.1458,-1.9451,-1.7137,-1.4554,0.0,0.0,0.0,0.0,0.0,0.0,0.0,0.0,0.0,0.0,0.0,0.0,0.0,0.0,0.0,0.0,0.0,0.0,0.0,0.0,0.0,0.0,0.0,0.0,0.0,0.0,0.0,0.0,0.0,0.0,0.0,0.0,0.0,0.0,0.0,0.0,0.0,0.0,-1.0846,-1.2106,0.0,0.0,0.0,0.0,0.0,0.0,0.0,0.0,-1.1812,0.0,0.0,0.0,0.0,0.0,0.0,0.0,0.0,0.0,0.0,0.0,0.0,0.0,0.0,0.0,0.0,0.0,0.0,0.0,0.0,0.0,0.0,0.0,0.0,0.0,0.0,0.0,0.0,0.0,0.0,0.0,0.0,0.0,0.0,0.0,0.0,0.0,0.0,0.0,0.0,0.0,0.0,0.0,0.0,0.0,0.0,0.0,0.0,0.0,0.0,0.0,0.0,0.0,0.0,0.0,0.0,-1.5067,-1.6312,-1.8324,-2.1224,-2.2075,-2.2126,-2.1308,-1.9843,-1.7559,-1.4508,0.0,0.0,0.0,0.0,0.0,0.0,0.0,0.0,0.0,0.0,0.0,0.0,0.0,0.0,0.0,0.0,0.0,0.0,0.0,0.0,0.0,0.0,0.0,0.0,0.0,0.0,0.0,0.0,0.0,0.0,0.0,0.0,0.0,0.0,0.0,0.0,0.0,0.0,0.0,-1.3701,-1.4102,0.0,0.0,0.0,0.0,0.0,0.0,0.0,0.0,-1.2847,0.0,0.0,0.0,0.0,0.0,0.0,0.0,0.0,0.0,0.0,0.0,0.0,0.0,0.0,0.0,0.0,0.0,0.0,0.0,0.0,0.0,0.0,0.0,0.0,0.0,0.0,0.0,0.0,0.0,0.0,0.0,0.0,0.0,0.0,0.0,0.0,0.0,0.0,0.0,0.0,0.0,0.0,0.0,0.0,0.0,0.0,0.0,0.0,0.0,0.0,0.0,0.0,0.0,0.0,0.0,-1.4831,-1.6787,-1.8967,-2.1327,-2.2527,-2.2485,-2.1225,-1.9813,-1.7554,0.0,0.0,0.0,0.0,0.0,0.0,0.0,0.0,0.0,0.0,0.0,0.0,0.0,0.0,0.0,0.0,0.0,0.0,0.0,0.0,0.0,0.0,0.0,0.0,0.0,0.0,0.0,0.0,0.0,0.0,0.0,0.0,0.0,0.0,0.0,0.0,0.0,0.0,0.0,0.0,-1.4108,-1.457,-1.5898,0.0,0.0,0.0,0.0,0.0,0.0,-1.2742,-1.2303,0.0,0.0,0.0,0.0,0.0,0.0,0.0,0.0,0.0,0.0,0.0,0.0,0.0,0.0,0.0,0.0,0.0,0.0,0.0,0.0,0.0,0.0,0.0,0.0,0.0,0.0,0.0,0.0,0.0,0.0,0.0,0.0,0.0,0.0,0.0,0.0,0.0,0.0,0.0,0.0,0.0,0.0,0.0,0.0,0.0,0.0,0.0,0.0,0.0,0.0,0.0,0.0,0.0,0.0,0.0,-1.4293,-1.7105,-1.9432,-2.1227,-2.2718,-2.2727,-2.1123,-1.9667,-1.7451,0.0,0.0,0.0,0.0,0.0,0.0,0.0,0.0,0.0,0.0,0.0,0.0,0.0,0.0,0.0,0.0,0.0,0.0,0.0,0.0,0.0,0.0,0.0,0.0,0.0,0.0,0.0,0.0,0.0,0.0,0.0,0.0,0.0,0.0,0.0,0.0,0.0,0.0,0.0,0.0,0.0,-1.5056,-1.6254,-1.6272,0.0,0.0,0.0,0.0,-1.388,-1.3172,0.0,0.0,0.0,0.0,0.0,0.0,0.0,0.0,0.0,0.0,0.0,0.0,0.0,0.0,0.0,0.0,0.0,0.0,0.0,0.0,0.0,0.0,0.0,0.0,0.0,0.0,0.0,0.0,0.0,0.0,0.0,0.0,0.0,0.0,0.0,0.0,0.0,0.0,0.0,0.0,0.0,0.0,0.0,0.0,0.0,0.0,0.0,0.0,0.0,0.0,0.0,0.0,0.0,0.0,0.0,0.0,-1.419,-1.652,-1.8823,-2.1075,-2.2678,-2.2705,-2.1057,-1.9703,-1.7505,0.0,0.0,0.0,0.0,0.0,0.0,0.0,0.0,0.0,0.0,0.0,0.0,0.0,0.0,0.0,0.0,0.0,0.0,0.0,0.0,0.0,0.0,0.0,0.0,0.0,0.0,0.0,0.0,0.0,0.0,0.0,0.0,0.0,0.0,0.0,0.0,0.0,0.0,0.0,0.0,0.0,-1.6127,-1.5621,-1.7385,-1.7942,0.0,0.0,-1.8281,-1.7519,-1.6676,0.0,0.0,0.0,0.0,0.0,0.0,0.0,0.0,0.0,0.0,0.0,0.0,0.0,0.0,0.0,0.0,0.0,0.0,0.0,0.0,0.0,0.0,0.0,0.0,0.0,0.0,0.0,0.0,0.0,0.0,0.0,0.0,0.0,0.0,0.0,0.0,0.0,0.0,0.0,0.0,0.0,0.0,0.0,0.0,0.0,0.0,0.0,0.0,0.0,0.0,0.0,0.0,0.0,0.0,0.0,-1.2078,-1.4159,-1.6762,-1.9064,-2.0986,-2.2656,-2.2946,-2.1761,-2.0443,-1.8236,0.0,0.0,0.0,0.0,0.0,0.0,0.0,0.0,0.0,0.0,0.0,0.0,0.0,0.0,0.0,0.0,0.0,0.0,0.0,0.0,0.0,0.0,0.0,0.0,0.0,0.0,0.0,0.0,0.0,0.0,0.0,0.0,0.0,0.0,0.0,0.0,0.0,0.0,0.0,0.0,0.0,0.0,-1.8712,-1.8703,0.0,0.0,0.0,-1.8371,-1.8006,0.0,0.0,0.0,0.0,0.0,0.0,0.0,0.0,0.0,0.0,0.0,0.0,0.0,0.0,0.0,0.0,0.0,0.0,0.0,0.0,0.0,0.0,0.0,0.0,0.0,0.0,0.0,0.0,0.0,0.0,0.0,0.0,0.0,0.0,0.0,0.0,0.0,0.0,0.0,0.0,0.0,0.0,0.0,0.0,0.0,0.0,0.0,0.0,0.0,0.0,0.0,0.0,0.0,0.0,0.0,0.0,0.0,-1.4087,-1.7205,-1.9565,-2.1114,-2.262,-2.3038,-2.2303,-2.0966,0.0,0.0,0.0,0.0,0.0,0.0,0.0,0.0,0.0,0.0,0.0,0.0,0.0,0.0,0.0,0.0,0.0,0.0,0.0,0.0,0.0,0.0,0.0,0.0,0.0,0.0,0.0,-0.9553,0.0,0.0,0.0,0.0,0.0,0.0,0.0,0.0,0.0,0.0,0.0,0.0,0.0,0.0,-1.719,-2.0656,-2.0032,-1.9854,0.0,0.0,-1.9214,-1.9189,-1.8338,-1.7167,0.0,0.0,0.0,0.0,0.0,0.0,0.0,0.0,0.0,0.0,0.0,0.0,0.0,0.0,0.0,0.0,0.0,0.0,0.0,0.0,0.0,0.0,0.0,0.0,0.0,0.0,0.0,0.0,0.0,0.0,0.0,0.0,0.0,0.0,0.0,0.0,0.0,0.0,0.0,0.0,0.0,0.0,0.0,0.0,0.0,0.0,0.0,0.0,0.0,0.0,0.0,0.0,0.0,0.0,-1.2941,-1.4096,-1.771,-2.0234,-2.152,-2.2594,-2.2829,-2.2198,-2.0852,-1.8726,0.0,0.0,0.0,0.0,0.0,0.0,0.0,0.0,0.0,0.0,0.0,0.0,0.0,0.0,0.0,0.0,0.0,0.0,0.0,0.0,0.0,0.0,0.0,0.0,0.0,0.0,0.0,0.0,0.0,0.0,0.0,0.0,0.0,0.0,0.0,0.0,0.0,0.0,0.0,0.0,0.0,-1.8047,-1.9209,-2.1254,-2.2707,0.0,-2.2823,-2.2762,-2.2742,-2.1387,-2.0028,-1.9087,0.0,0.0,0.0,0.0,0.0,0.0,0.0,0.0,0.0,0.0,0.0,0.0,0.0,0.0,0.0,0.0,0.0,0.0,0.0,0.0,0.0,0.0,0.0,0.0,0.0,0.0,0.0,0.0,0.0,0.0,0.0,0.0,0.0,0.0,0.0,0.0,0.0,0.0,0.0,0.0,0.0,0.0,0.0,0.0,0.0,0.0,0.0,0.0,0.0,0.0,0.0,0.0,0.0,-1.2959,-1.3888,-1.7641,-2.0206,-2.1464,-2.2605,-2.3182,-2.3088,-2.2179,-2.0515,0.0,0.0,0.0,0.0,0.0,0.0,0.0,0.0,0.0,0.0,0.0,0.0,0.0,0.0,0.0,0.0,0.0,0.0,0.0,0.0,0.0,0.0,0.0,0.0,0.0,0.0,0.0,0.0,-1.1988,-1.18,-1.0768,0.0,0.0,0.0,0.0,0.0,0.0,0.0,0.0,0.0,0.0,-2.01,-2.2043,-2.2726,0.0,0.0,-2.3747,-2.3294,-2.3808,-2.2458,-2.1054,-2.022,-1.8106,0.0,0.0,0.0,0.0,0.0,0.0,0.0,0.0,0.0,0.0,0.0,0.0,0.0,0.0,0.0,0.0,0.0,0.0,0.0,0.0,0.0,0.0,0.0,0.0,0.0,0.0,0.0,0.0,0.0,0.0,0.0,0.0,0.0,0.0,0.0,0.0,0.0,0.0,0.0,0.0,0.0,0.0,0.0,0.0,0.0,0.0,0.0,0.0,0.0,0.0,0.0,0.0,-1.3613,-1.4444,-1.799,-2.0528,-2.1984,-2.2853,-2.344,-2.3653,-2.3059,-2.1789,0.0,0.0,0.0,0.0,0.0,0.0,0.0,0.0,0.0,0.0,0.0,0.0,0.0,0.0,0.0,0.0,0.0,0.0,0.0,0.0,0.0,0.0,0.0,0.0,0.0,0.0,0.0,0.0,-1.2093,-1.1728,-1.036,0.0,0.0,0.0,0.0,0.0,0.0,0.0,0.0,0.0,0.0,-2.194,-2.3999,-2.3779,-2.3817,-2.5033,-2.4005,-2.3305,-2.392,-2.2964,-2.1913,-2.1118,0.0,0.0,0.0,0.0,0.0,0.0,0.0,0.0,0.0,0.0,0.0,0.0,0.0,0.0,0.0,0.0,0.0,0.0,0.0,0.0,0.0,0.0,0.0,0.0,0.0,0.0,0.0,-0.8014,0.0,0.0,-0.8296,0.0,0.0,0.0,0.0,0.0,0.0,0.0,0.0,0.0,0.0,0.0,0.0,0.0,0.0,0.0,0.0,0.0,0.0,0.0,0.0,0.0,0.0,-1.5123,-1.5974,-1.8966,-2.1469,-2.3302,-2.333,-2.3481,-2.3876,-2.3173,-2.21,-2.0607,0.0,0.0,0.0,0.0,0.0,0.0,0.0,0.0,0.0,0.0,0.0,0.0,0.0,0.0,0.0,0.0,0.0,0.0,0.0,0.0,0.0,0.0,0.0,0.0,0.0,0.0,-1.0253,-1.0836,-1.1062,0.0,0.0,0.0,0.0,0.0,0.0,0.0,0.0,0.0,-1.9902,-2.1843,-2.3269,-2.4186,-2.4296,-2.43,-2.4382,-2.3676,-2.3146,-2.3201,-2.3105,-2.2799,0.0,0.0,0.0,0.0,0.0,0.0,0.0,0.0,0.0,0.0,0.0,0.0,0.0,0.0,0.0,0.0,0.0,0.0,0.0,0.0,0.0,0.0,0.0,0.0,0.0,0.0,0.0,-0.9358,-0.8893,0.0,0.0,0.0,0.0,0.0,0.0,0.0,0.0,0.0,0.0,0.0,-1.2364,-1.2832,0.0,0.0,0.0,0.0,0.0,0.0,0.0,0.0,0.0,0.0,0.0,0.0,-1.5168,-1.6042,-1.9469,-2.2503,-2.4949,-2.3837,-2.3638,-2.4596,-2.3813,-2.2712,-2.1225,0.0,0.0,0.0,0.0,0.0,0.0,0.0,0.0,0.0,0.0,0.0,0.0,0.0,0.0,0.0,0.0,0.0,0.0,0.0,0.0,0.0,0.0,0.0,0.0,0.0,-1.1958,0.0,0.0,0.0,0.0,0.0,0.0,0.0,0.0,0.0,0.0,-1.6242,-1.8689,-2.0972,-2.2779,-2.4185,-2.5115,-2.5226,-2.5235,0.0,0.0,0.0,0.0,0.0,0.0,0.0,0.0,0.0,0.0,0.0,0.0,0.0,-1.9836,-1.891,-1.6617,-1.5952,-1.576,-1.5764,0.0,0.0,0.0,0.0,0.0,0.0,0.0,0.0,0.0,0.0,0.0,0.0,0.0,0.0,-1.0803,-1.036,-1.0361,0.0,0.0,0.0,0.0,0.0,0.0,0.0,0.0,-1.3848,-1.4442,-1.4557,-1.4979,-1.494,-1.4549,-1.4805,-1.3838,0.0,0.0,0.0,0.0,0.0,0.0,0.0,0.0,-1.6123,-1.7288,-2.0017,-2.286,-2.549,-2.4855,-2.4787,-2.5517,-2.4732,-2.3531,-2.2007,-1.9966,-1.8085,0.0,0.0,0.0,0.0,0.0,0.0,0.0,0.0,0.0,0.0,0.0,0.0,0.0,0.0,0.0,0.0,0.0,0.0,0.0,0.0,0.0,0.0,0.0,-1.2294,0.0,0.0,0.0,0.0,0.0,0.0,0.0,0.0,0.0,-1.5318,-1.8087,-2.0681,-2.2402,-2.3878,-2.5134,-2.6033,0.0,0.0,0.0,0.0,0.0,0.0,0.0,-2.4113,-2.436,-2.3285,-2.2559,-2.3062,-2.3398,-2.3615,-2.3612,0.0,0.0,-2.0347,-1.9448,-1.9239,-1.9259,-1.9206,-1.9153,-1.9153,-1.9397,-1.9845,0.0,0.0,0.0,0.0,-1.2558,0.0,0.0,0.0,-1.2443,-1.2406,0.0,-1.2339,0.0,0.0,0.0,0.0,-1.1719,-1.3087,0.0,0.0,-1.6475,-1.7506,-1.7958,-1.7839,-1.7848,-1.7912,-1.7769,-1.7045,-1.5756,-1.5193,-1.4561,0.0,0.0,0.0,0.0,0.0,-1.7975,-1.9709,-2.0755,-2.2617,-2.5321,-2.635,-2.6765,-2.6554,-2.5724,-2.4531,-2.2919,-2.1406,-1.9797,-1.8082,-1.2998,0.0,0.0,0.0,0.0,0.0,0.0,0.0,0.0,0.0,0.0,0.0,0.0,0.0,0.0,0.0,0.0,0.0,0.0,0.0,0.0,-1.1819,0.0,0.0,0.0,0.0,0.0,0.0,0.0,0.0,0.0,-1.9697,-1.8189,-2.0243,-2.2512,-2.4187,0.0,0.0,0.0,0.0,-2.6094,-2.6934,-2.6328,-2.5508,-2.4727,-2.5233,-2.5444,-2.4695,0.0,0.0,-2.5779,-2.6427,-2.6878,-2.6971,-2.7488,-2.717,-2.3737,-2.2546,-2.2096,-2.2053,-2.2037,-2.1937,-2.197,-2.2604,-2.3287,-1.66,0.0,0.0,0.0,0.0,-1.4722,-1.5003,-1.543,-1.546,-1.5145,-1.457,-1.457,0.0,0.0,0.0,0.0,0.0,0.0,-1.5959,-1.712,-1.7591,-1.8087,-1.8635,-1.8594,-1.8553,-1.8498,-1.9164,-1.9267,-1.8925,-1.943,-1.7722,-1.3978,0.0,0.0,0.0,0.0,-1.9463,-2.1074,-2.1868,-2.3724,-2.6675,-2.6799,-2.6681,-2.6399,-2.5597,-2.4938,-2.4463,-2.2917,-2.1352,-1.9749,-1.7687,0.0,0.0,0.0,0.0,0.0,0.0,0.0,0.0,0.0,0.0,0.0,0.0,0.0,0.0,0.0,0.0,0.0,0.0,0.0,-1.3263,-1.4779,-1.567,0.0,0.0,0.0,0.0,0.0,0.0,0.0,0.0,0.0,-2.1512,-2.2717,-2.3986,0.0,0.0,-2.6713,-2.696,-2.7322,-2.7637,-2.7891,-2.7715,0.0,-2.7226,-2.6855,-2.6756,-2.7118,-2.7407,-2.7561,-2.7559,-2.7249,-2.7015,-2.7034,-2.7203,-2.6824,-2.5437,-2.5769,-2.6279,-2.6353,-2.6315,-2.6269,-2.6282,-2.6435,-2.6555,-1.9121,-1.7732,-1.6659,-1.6577,-1.7093,-1.702,-1.7241,-1.7613,-1.7555,-1.7212,-1.6709,-1.6671,-1.5967,-1.485,-1.5021,0.0,0.0,0.0,-1.7797,-1.8795,-1.911,-1.9375,-1.9638,-1.9877,-1.9957,-1.9893,-2.0607,-2.0972,-2.0956,-2.1239,-1.9826,-1.6766,0.0,-1.7291,-1.8614,-1.9413,-2.0593,-2.2122,-2.3186,-2.4706,-2.6747,-2.7326,-2.7331,-2.6786,-2.6295,-2.575,-2.5071,-2.4166,-2.2933,-2.1389,-2.122,-1.9769,0.0,0.0,0.0,0.0,0.0,0.0,0.0,0.0,0.0,0.0,0.0,-1.0186,-0.8889,0.0,0.0,0.0,-1.4084,-1.4976,-1.5777,-1.717,0.0,0.0,0.0,0.0,0.0,0.0,0.0,-2.03,-2.2054,-2.3488,-2.4388,-2.527,-2.5892,-2.6119,-2.6939,-2.7639,-2.7986,0.0,-2.8944,-2.9277,-2.9336,-2.9199,-2.8867,-2.8379,-2.8222,-2.8726,-2.9129,-2.9455,-2.9747,-2.9357,-2.9162,-2.9435,-2.9547,-2.9383,-2.885,-2.9597,-2.9581,-2.8037,-2.7653,-2.7711,-2.8029,-2.8078,-2.8031,-2.1007,-2.1272,-1.9675,-1.9196,-1.9454,-1.9129,-1.9144,-1.9289,-1.8933,-1.8747,-1.8717,-1.861,-1.8161,-1.7438,-1.6959,0.0,-1.7833,-1.8831,-1.9578,-2.0177,-2.0831,-2.1052,-2.0897,-2.1459,-2.1753,-2.1682,-2.207,-2.2224,-2.2178,-2.1526,-2.1178,-2.1161,-2.0448,-2.0548,-2.1412,-2.1053,-2.1614,-2.3101,-2.4474,-2.5523,-2.6225,-2.7882,-2.8415,-2.7622,-2.7531,-2.6763,-2.528,-2.5179,-2.4457,-2.3004,-2.3603,-2.2293,-1.8674,0.0,0.0,0.0,0.0,0.0,0.0,0.0,0.0,0.0,0.0,0.0,0.0,0.0,0.0,-1.6241,-1.8887,0.0,-1.9085,-1.9122,0.0,0.0,0.0,-1.9476,-2.0502,-2.1257,-2.2062,-2.2985,0.0,0.0,-2.6799,-2.7653,-2.7991,-2.7389,-2.794,-2.8699,-2.9491,-2.9706,-3.0085,-3.0839,-3.0996,-3.0703,-3.0019,-2.9746,-2.9648,-2.9707,-3.0365,-3.1058,-3.1738,-3.1816,-3.2265,-3.2812,-3.3233,-3.3067,-3.3138,-3.281,-3.2065,-2.8164,-2.7561,-2.7754,-2.8573,-2.8791,-2.8811,-2.1339,-2.1354,-2.1075,-2.0999,-2.1019,-2.0819,-2.0686,-2.0623,-2.0319,-2.0158,-2.0044,-1.996,-1.9834,-1.9698,-1.9521,-1.9734,-2.0193,-2.0587,-2.1038,-2.145,-2.1521,-2.1761,-2.215,-2.2306,-2.2384,-2.2384,-2.2948,-2.324,-2.3241,-2.3558,-2.3714,-2.3697,-2.3482,-2.2965,-2.2293,-2.292,-2.3815,-2.4962,-2.5077,-2.6056,-2.7931,-2.8402,-2.8547,-2.8341,-2.7749,-2.7236,-2.6838,-2.624,-2.5484,-2.4505,-2.407,-2.3148,-2.1643,-1.9249,0.0,0.0,0.0,0.0,0.0,0.0,0.0,0.0,0.0,-1.3882,-1.1198,0.0,-1.6147,0.0,-2.17,-2.2859,-2.0098,-2.1015,0.0,0.0,-2.0765,-2.1011,-2.3707,-2.3688,-2.4052,-2.5524,-2.667,-2.7453,-2.7764,-2.8588,-2.9355,-2.9823,-2.9533,-2.9357,-2.9589,-3.0743,-3.1569,-3.1735,-3.1757,-3.1758,-3.1504,-3.1016,-3.0605,-3.0586,-3.0779,-3.1163,-3.1973,-3.1524,-3.1387,-3.2207,-3.2358,-3.207,-3.1499,-3.1824,-3.2026,-3.1002,-3.1222,-3.1746,-3.1953,-3.1889,-3.1884,-2.2522,-2.2555,-2.2523,-2.247,-2.2344,-2.1565,-2.1167,-2.1083,-2.0758,-2.0749,-2.0976,-2.1237,-2.1483,-2.1645,-2.173,-2.1811,-2.1867,-2.21,-2.2242,-2.2264,-2.2189,-2.2248,-2.2527,-2.2785,-2.3054,-2.3189,-2.3706,-2.4076,-2.4214,-2.4439,-2.4571,-2.4554,-2.4506,-2.436,-2.4116,-2.4475,-2.4857,-2.5141,-2.5797,-2.6927,-2.8511,-2.8594,-2.8424,-2.808,-2.7972,-2.7598,-2.691,-2.6783,-2.6204,-2.5045,-2.4219,-2.3503,-2.281,-2.1334,-1.993,0.0,0.0,0.0,0.0,0.0,0.0,0.0,0.0,0.0,0.0,0.0,-1.8666,-1.9741,-2.3103,-2.4427,-2.2543,-2.3567,-2.4484,-2.4836,-2.4107,-2.4321,-2.617,-2.6013,-2.615,-2.7082,-2.8319,-2.9132,-2.9233,-3.0383,-3.1211,-3.1385,-3.0977,-3.0723,-3.0782,-3.1543,-3.1995,-3.163,-3.1561,-3.1582,-3.1621,-3.1562,-3.1484,-3.1504,-3.1776,-3.2181,-3.26,-3.2254,-3.2088,-3.2537,-3.2577,-3.2389,-3.1896,-3.2465,-3.3045,-3.3137,-3.3664,-3.3905,-3.3336,-3.3112,-3.3062,-2.3869,-2.3984,-2.3736,-2.3572,-2.3289,-2.1908,-2.1341,-2.1304,-2.0942,-2.1151,-2.1811,-2.2451,-2.2921,-2.3186,-2.343,-2.331,-2.2976,-2.324,-2.3183,-2.2828,-2.2807,-2.2764,-2.27,-2.3313,-2.3733,-2.404,-2.4397,-2.4811,-2.5143,-2.4908,-2.4763,-2.478,-2.4763,-2.5221,-2.6053,-2.5823,-2.5491,-2.5141,-2.6634,-2.7718,-2.8424,-2.8442,-2.8098,-2.7489,-2.8171,-2.7936,-2.6602,-2.72,-2.685,-2.5403,-2.4646,-2.3912,-2.3233,-2.3804,-2.2866,0.0,-2.1154,0.0,0.0,0.0,0.0,0.0,0.0,0.0,0.0,-2.0878,-2.162,-2.1852,-2.4095,-2.5516,-2.5516,-2.6135,-2.6918,-2.7759,-2.7905,-2.7992,-2.8088,-2.8249,-2.8332,-2.8228,-2.9767,-3.0815,-3.0639,-3.2113,-3.2834,-3.2182,-3.1992,-3.1934,-3.2051,-3.207,-3.1856,-3.1131,-3.1051,-3.123,-3.1094,-3.1523,-3.1934,-3.207,-3.2379,-3.3094,-3.3099,-3.3091,-3.3103,-3.322,-3.3168,-3.313,-3.3172,-3.3682,-3.4139,-3.4032,-3.4491,-3.4638,-3.3877,-3.3528,-3.3296,-2.4065,-2.3968,-2.3585,-2.345,-2.3351,-2.2812,-2.2572,-2.2568,-2.2321,-2.2363,-2.2598,-2.3211,-2.35,-2.3517,-2.3635,-2.3517,-2.331,-2.3221,-2.3326,-2.3582,-2.349,-2.3686,-2.4079,-2.4429,-2.4674,-2.4736,-2.5456,-2.5818,-2.5905,-2.6168,-2.6252,-2.6185,-2.6219,-2.6179,-2.6152,0.0,0.0,0.0,-2.7556,-2.7489,-2.7634,-2.7652,-2.7562,-2.7411,-2.8171,0.0,-2.8171,-2.8297,-2.7929,-2.7,-2.6808,0.0,0.0,0.0,0.0,0.0,0.0,0.0,0.0,0.0,0.0,0.0,-2.1932,-2.1782,-2.0835,-2.2865,-2.4575,-2.5354,-2.6505,-2.7224,-2.7224,-2.7358,-2.7797,-2.8548,-2.8734,-2.9034,-2.9666,-3.0401,-3.0686,-3.0094,-3.1545,-3.2103,-3.107,-3.1602,-3.2249,-3.2243,-3.2109,-3.2109,-3.2109,-3.2109,-3.2036,-3.1906,-3.1776,-3.1641,-3.1016,-3.1113,-3.1309,-3.1172,-3.1175,-3.1644,-3.2279,-3.2355,-3.2532,-3.3057,-3.3172,-3.3103,-3.3045,-3.3188,-3.336,-3.3211,-3.3404,-3.3801,-3.4809,-3.4976,-3.4941,-2.5129,-2.4905,-2.459,-2.445,0.0,-2.4026,-2.4053,-2.4136,-2.3267,-2.3235,-2.3838,-2.4482,-2.4837,-2.4888,-2.4818,-2.4661,-2.4482,-2.428,-2.4324,-2.4567,-2.4257,-2.4445,-2.5091,-2.4974,-2.5082,-2.5503,-2.5908,-2.621,-2.6401,-2.6573,-2.6691,-2.6623,-2.6792,-2.6833,-2.6749,-2.7531,-2.8165,-2.8587,-2.8189,-2.799,-2.799,-2.799,-2.7797,-2.7453,-2.8171,0.0,0.0,0.0,0.0,0.0,0.0,0.0,0.0,-2.5566,-2.5096,-2.4481,-2.451,-2.4204,-2.3468,-2.3715,-2.4348,-2.5185,-2.5684,-2.543,-2.4214,-2.5451,-2.6504,-2.6982,-2.7472,-2.8045,-2.8848,-2.8924,-2.9421,-3.0605,-3.086,-3.1104,-3.1501,-3.1996,-3.2192,-3.2,-3.299,-3.3492,-3.2752,-3.3423,-3.375,-3.3453,-3.3378,-3.3046,-3.2285,-3.2109,-3.1997,-3.158,-3.1523,-3.1562,-3.1562,-3.1543,-3.1699,-3.1992,-3.2085,-3.2213,-3.2613,-3.2613,-3.2699,-3.3031,-3.3045,-3.2987,-3.2983,-3.3256,-3.3558,-3.3551,-3.3826,-3.4279,-3.5182,-3.5019,-3.484,-2.6134,-2.5897,-2.5642,-2.5465,-2.5298,-2.5098,-2.5233,-2.5478,-2.4246,0.0,0.0,-2.5675,-2.6043,-2.6132,-2.5934,-2.5733,-2.553,-2.5378,-2.5362,-2.5406,-2.4997,-2.5114,-2.5684,-2.5291,-2.5465,-2.6087,-2.6175,-2.6367,-2.6691,-2.6708,-2.6776,-2.6911,-2.7226,-2.7566,-2.7871,-2.834,-2.8675,-2.8786,-2.8533,-2.8388,-2.8395,-2.837,-2.8062,-2.7417,-2.8153,-2.8286,-2.7665,-2.825,-2.8308,-2.763,-2.6971,-2.6686,-2.6864,-2.6944,-2.7045,-2.719,-2.7938,-2.8124,-2.7467,-2.8144,-2.8688,-2.8838,-2.8981,-2.8723,-2.7915,-2.7985,-2.8207,-2.8548,-2.858,-2.9172,-3.051,-3.0643,-3.1269,-3.2794,-3.3062,-3.3141,-3.3339,-3.345,-3.3527,-3.3483,-3.4186,-3.4672,-3.433,-3.5022,-3.5525,-3.4861,-3.4549,-3.4354,-3.3088,-3.2636,-3.2292,-3.1972,-3.2051,-3.1934,-3.2226,-3.2402,-3.2686,-3.3144,-3.3249,-3.3281,-3.3256,-3.3158,-3.3073,-3.2995,-3.2945,-3.2904,-3.2949,-3.3352,-3.3873,-3.3873,-3.4336,-3.4824,-3.4901,-3.4477,-3.432,-2.599,-2.586,-2.5524,-2.5313,-2.5298,-2.5098,-2.5323,-2.5835,-2.5851,-2.5834,-2.577,-2.6104,-2.6118,-2.5934,-2.5733,-2.553,-2.5371,-2.5422,-2.5481,-2.5503,-2.5577,-2.5668,-2.5779,-2.5888,-2.598,-2.6139,-2.6436,-2.6657,-2.6691,-2.6708,-2.7148,-2.7979,-2.8114,-2.8731,-2.9852,-2.9607,-2.9494,-2.9608,-2.8286,-2.7556,-2.758,-2.7556,-2.7526,-2.7453,-2.8189,-2.8551,-2.8449,-2.8576,-2.8551,-2.8417,-2.8316,-2.8058,-2.7614,-2.7708,-2.7524,-2.7121,-2.7884,-2.8332,-2.8276,-2.9026,-2.9814,-3.0471,-3.073,-3.0492,-2.9712,-2.9696,-3.0361,-3.1775,-3.1832,-3.2061,-3.2329,-3.231,-3.2718,-3.3719,-3.3934,-3.4257,-3.493,-3.5123,-3.4923,-3.4396,-3.5133,-3.5149,-3.4206,-3.4585,-3.5174,-3.4842,-3.5018,-3.4903,-3.5181,-3.4146,-3.3604,-3.4004,-3.418,-3.3906,-3.3574,-3.3248,-3.3507,-3.3355,-3.3519,-3.3587,-3.3473,-3.3384,-3.3319,-3.306,-3.3121,-3.3045,-3.3026,-3.2961,-3.33,-3.3363,-3.3518,-3.3627,-3.4225,-3.419,-3.4292,-2.5807,-2.5562,-2.5371,-2.5246,-2.5144,-2.5432,-2.5637,-2.5811,-2.6277,-2.6399,-2.6222,-2.6277,-2.6154,-2.5881,-2.5696,-2.5605,-2.5551,-2.5519,-2.5726,-2.6139,-2.5924,-2.6033,-2.6418,-2.621,-2.621,-2.6453,-2.7266,-2.7603,-2.7688,-2.8213,-2.8774,-2.9151,-2.9283,-2.9757,-3.0481,-3.0374,-3.0287,-3.0405,-2.9282,-2.8685,-2.8721,-2.9137,-2.9355,-2.9355,-2.9735,-2.9914,-2.989,-2.9896,-2.9898,-2.9898,-2.9916,-2.9813,-2.9667,-2.9803,-2.9817,-2.9655,-3.0093,-3.0415,-3.0396,-3.0772,-3.1186,-3.1619,-3.1786,-3.1929,-3.2072,-3.1718,-3.184,-3.2596,-3.2672,-3.2882,-3.3337,-3.3414,-3.3754,-3.4619,-3.4793,-3.5053,-3.5458,-3.5678,-3.5612,-3.5385,-3.609,-3.6345,-3.56,-3.6286,-3.6813,-3.6794,-3.6462,-3.6618,-3.7853,-3.7031,-3.5964,-3.5547,-3.5391,-3.5488,-3.5449,-3.5508,-3.5691,-3.6093,-3.6068,-3.5786,-3.5321,-3.5078,-3.4834,-3.4449,-3.4314,-3.4314,-3.4276,-3.4288,-3.426,-3.4246,-3.4203,-3.4389,-3.4642,-3.4668,-3.4792,-2.5584,-2.5294,-2.5217,-2.5139,-2.5123,-2.5707,-2.5914,-2.5901,-2.6347,-2.6503,-2.6434,-2.6329,-2.6099,-2.5844,-2.5754,-2.5738,-2.5742,-2.5762,-2.6104,-2.6624,-2.6262,-2.6401,-2.6926,-2.6621,-2.6636,-2.7063,-2.8114,-2.8641,-2.8743,-2.9624,-3.0201,-3.0356,-3.0707,-3.1041,-3.1276,-3.1178,-3.1163,-3.1238,-3.064,-3.0242,-3.0106,-3.0677,-3.1003,-3.1003,-3.0985,-3.0993,-3.0998,-3.0993,-3.0993,-3.102,-3.103,-3.1164,-3.1345,-3.1549,-3.1737,-3.1896,-3.2192,-3.248,-3.2649,-3.2668,-3.2728,-3.2845,-3.2939,-3.3294,-3.3932,-3.3595,-3.328,-3.3264,-3.3337,-3.3605,-3.414,-3.4254,-3.4538,-3.5162,-3.5397,-3.5608,-3.5871,-3.6071,-3.6289,-3.6508,-3.7136,-3.7594,-3.7731,-3.818,-3.8551,-3.8609,-3.8434,-3.8782,-3.9819,-3.9566,-3.858,-3.7615,-3.7012,-3.7031,-3.7559,-3.7496,-3.7698,-3.8412,-3.8268,-3.773,-3.7205,-3.7077,-3.6736,-3.5971,-3.5751,-3.5578,-3.5526,-3.5402,-3.5331,-3.5259,-3.5177,-3.5247,-3.5216,-3.5165,-3.5174,-2.5333,-2.5256,-2.4997,-2.4989,-2.523,-2.568,-2.599,-2.617,-2.6415,-2.6434,-2.6295,-2.6222,-2.6007,-2.5717,-2.5941,-2.5888,-2.5652,-2.628,-2.6624,-2.6742,-2.6825,-2.6942,-2.7077,-2.7453,-2.7636,-2.7842,-2.887,-2.947,-2.9503,-2.9954,-3.061,-3.1564,-3.2571,-3.3045,-3.3038,-3.2405,-3.2089,-3.2089,-3.2017,-3.1618,-3.093,-3.0948,-3.1003,-3.1003,-3.1021,-3.1012,-3.1111,-3.1012,-3.1028,-3.102,-3.122,-3.1378,-3.1586,-3.1778,-3.1955,-3.212,-3.2835,-3.3607,-3.4245,-3.4376,-3.4365,-3.4562,-3.4547,-3.4642,-3.4921,-3.4931,-3.4961,-3.4885,-3.4904,-3.4904,-3.5076,-3.5076,-3.52,-3.5426,-3.5586,-3.5836,-3.6706,-3.6988,-3.7381,-3.819,-3.8307,-3.8492,-3.8492,-3.8668,-3.9,-3.9644,-4.0054,-4.0385,-4.0717,-4.0737,-4.0606,-4.0326,-3.996,-3.918,-3.8748,-3.8385,-3.8533,-3.8548,-3.8365,-3.8276,-3.817,-3.8022,-3.7778,-3.6922,-3.6677,-3.6452,-3.5925,-3.5493,-3.5589,-3.5614,-3.5528,-3.5369,-3.5308,-3.5226,-3.5157,-2.5355,-2.54,-2.5224,-2.5339,-2.5642,-2.5944,-2.6068,-2.6082,-2.6312,-2.6329,-2.6258,-2.6277,-2.6173,-2.5888,-2.6156,-2.6262,-2.6245,-2.6539,-2.6842,-2.7074,-2.7518,-2.774,-2.7708,-2.8269,-2.8645,-2.8905,-2.997,-3.0602,-3.09,-3.164,-3.2235,-3.2552,-3.313,-3.3334,-3.319,-3.3008,-3.2904,-3.2904,-3.2904,-3.2741,-3.2451,-3.2415,-3.2397,-3.2415,-3.2415,-3.2415,-3.2415,-3.2415,-3.2482,-3.2584,-3.2665,-3.2816,-3.3019,-3.3213,-3.3332,-3.3437,-3.3845,-3.4264,-3.4583,-3.4602,-3.4687,-3.4849,-3.4889,-3.4982,-3.5143,-3.5193,-3.519,-3.519,-3.519,-3.519,-3.5248,-3.5649,-3.6023,-3.62,-3.6678,-3.7226,-3.7692,-3.7897,-3.8146,-3.8557,-3.9016,-3.9292,-3.939,-3.9761,-4.0171,-4.0542,-4.0932,-4.1088,-4.1108,-4.1108,-4.1116,-4.1066,-4.0814,-4.0563,-4.0115,-4.0041,-3.9947,-3.9869,-3.9835,-3.9714,-3.9032,-3.8904,-3.8601,-3.772,-3.761,-3.7481,-3.7203,-3.6964,-3.6892,-3.6454,-3.5609,-3.5285,-3.5102,-3.5035,-3.4982,-2.5262,-2.5329,-2.5325,-2.5566,-2.5937,-2.6127,-2.6144,-2.6118,-2.6225,-2.6241,-2.6203,-2.64,-2.6401,-2.628,-2.6487,-2.664,-2.6725,-2.7012,-2.7281,-2.7663,-2.8302,-2.851,-2.8476,-2.9212,-2.966,-2.9989,-3.1038,-3.1817,-3.2217,-3.2949,-3.3334,-3.3226,-3.3334,-3.3334,-3.3226,-3.3316,-3.3393,-3.3393,-3.3364,-3.3334,-3.3298,-3.3274,-3.3304,-3.3393,-3.3393,-3.3393,-3.3393,-3.3393,-3.3476,-3.3692,-3.3742,-3.385,-3.4074,-3.4269,-3.4386,-3.4404,-3.4517,-3.4602,-3.4602,-3.4645,-3.471,-3.4889,-3.4927,-3.5019,-3.5179,-3.542,-3.5592,-3.5706,-3.5802,-3.5878,-3.5649,-3.6337,-3.6845,-3.7015,-3.7681,-3.8197,-3.8538,-3.8747,-3.8978,-3.927,-3.9858,-4.0151,-4.0249,-4.0639,-4.101,-4.1049,-4.1088,-4.1108,-4.1108,-4.1111,-4.1114,-4.1101,-4.114,-4.1142,-4.1121,-4.0943,-4.1016,-4.0938,-4.0752,-4.0462,-3.9915,-3.9805,-3.9464,-3.8704,-3.8562,-3.8232,-3.7814,-3.7824,-3.7892,-3.719,-3.6458,-3.5777,-3.5529,-3.5306,-3.4958,-2.4926,-2.4902,-2.5114,-2.5576,-2.601,-2.618,-2.6215,-2.626,-2.6295,-2.6277,-2.6274,-2.6538,-2.6691,-2.6708,-2.6927,-2.6909,-2.6894,-2.7842,-2.8301,-2.842,-2.9059,-2.9282,-2.9246,-3.0213,-3.0681,-3.0751,-3.1872,-3.2782,-3.3225,-3.3357,-3.3393,-3.3393,-3.3393,-3.3393,-3.3364,-3.3393,-3.3393,-3.3393,-3.3244,-3.3117,-3.3117,-3.3011,-3.3104,-3.3364,-3.3393,-3.3393,-3.3375,-3.3393,-3.3484,-3.3697,-3.3884,-3.4092,-3.4269,-3.4473,-3.458,-3.4602,-3.4602,-3.4602,-3.4623,-3.4708,-3.4829,-3.4927,-3.5077,-3.5166,-3.5403,-3.6012,-3.6528,-3.6795,-3.7234,-3.7234,-3.6719,-3.7215,-3.767,-3.7721,-3.7982,-3.8581,-3.9306,-3.9604,-4.0129,-4.0656,-4.0854,-4.0893,-4.0991,-4.1069,-4.1108,-4.1108,-4.1108,-4.1108,-4.1111,-4.1108,-4.1111,-4.1119,-4.1151,-4.1169,-4.1091,-4.1054,-4.0996,-4.0906,-4.0829,-4.0771,-4.0771,-4.0616,-4.0069,-3.9676,-3.9457,-3.9031,-3.8387,-3.8094,-3.8104,-3.7794,-3.7494,-3.6973,-3.6179,-3.5981,-3.5562,-2.5084,-2.5422,-2.5938,-2.625,-2.6382,-2.6295,-2.6295,-2.6295,-2.6349,-2.6365,-2.6417,-2.6725,-2.7147,-2.7623,-2.7825,-2.7858,-2.7876,-2.868,-2.911,-2.9196,-2.9798,-3.016,-3.0352,-3.0881,-3.1479,-3.2031,-3.2327,-3.2798,-3.3345,-3.3393,-3.3393,-3.3393,-3.3393,-3.3393,-3.3393,-3.3393,-3.3393,-3.3393,-3.3334,-3.3244,-3.3086,-3.3073,-3.3104,-3.3196,-3.3196,-3.3202,-3.3201,-3.3339,-3.3569,-3.3876,-3.3968,-3.4148,-3.445,-3.4561,-3.4602,-3.4602,-3.4602,-3.4602,-3.4623,-3.4708,-3.483,-3.4946,-3.5514,-3.5985,-3.6339,-3.6891,-3.7464,-3.7921,-3.8285,-3.8343,-3.8247,-3.8416,-3.8651,-3.883,-3.9391,-3.9927,-4.0356,-4.0584,-4.0773,-4.1049,-4.1108,-4.1108,-4.1108,-4.1108,-4.1108,-4.1108,-4.1108,-4.1108,-4.1111,-4.1116,-4.1099,-4.1107,-4.1127,-4.1124,-4.103,-4.1001,-4.0958,-4.0868,-4.079,-4.079,-4.079,-4.079,-4.0352,-4.0262,-4.0121,-3.9951,-3.9345,-3.8965,-3.8862,-3.8561,-3.8268,-3.7678,-3.6788,-3.6614,-3.6011,-2.54,-2.5885,-2.6314,-2.6469,-2.6503,-2.6362,-2.6327,-2.6365,-2.6383,-2.6436,-2.6623,-2.7097,-2.7656,-2.8203,-2.8835,-2.911,-2.9145,-2.9644,-2.992,-3.0007,-3.068,-3.1167,-3.1394,-3.1689,-3.2162,-3.2731,-3.2716,-3.2943,-3.3334,-3.3393,-3.3393,-3.3393,-3.3393,-3.3393,-3.3393,-3.3393,-3.3382,-3.3334,-3.3274,-3.3135,-3.2961,-3.2916,-3.2866,-3.2884,-3.2979,-3.3142,-3.3288,-3.3426,-3.3689,-3.4031,-3.4111,-3.4245,-3.4539,-3.4602,-3.4602,-3.4602,-3.4602,-3.4602,-3.4623,-3.4768,-3.4963,-3.5306,-3.595,-3.663,-3.7347,-3.7863,-3.8418,-3.899,-3.9297,-3.9431,-3.9431,-3.9466,-3.9547,-3.9739,-4.0355,-4.0839,-4.0993,-4.1022,-4.1065,-4.1088,-4.1108,-4.1108,-4.1108,-4.1108,-4.1108,-4.1108,-4.1108,-4.1108,-4.1111,-4.1099,-4.1103,-4.1105,-4.1081,-4.1042,-4.0971,-4.0955,-4.0931,-4.0829,-4.079,-4.079,-4.079,-4.079,-4.079,-4.079,-4.0733,-4.0654,-4.0391,-3.9969,-3.9627,-3.9278,-3.8896,-3.838,-3.7742,-3.725,-3.6619,-2.5885,-2.6118,-2.6063,-2.6154,-2.633,-2.6347,-2.6417,-2.6537,-2.6504,-2.6623,-2.7012,-2.7708,-2.8152,-2.8545,-2.9781,-3.0504,-3.0504,-3.0644,-3.0803,-3.0976,-3.1725,-3.2161,-3.2331,-3.2583,-3.2716,-3.2844,-3.3178,-3.3352,-3.3364,-3.3364,-3.3334,-3.3364,-3.3364,-3.3364,-3.3393,-3.3364,-3.3286,-3.3135,-3.3011,-3.2834,-3.2606,-3.2541,-3.2491,-3.2491,-3.2722,-3.3147,-3.3625,-3.3671,-3.3868,-3.4203,-3.4293,-3.4404,-3.4561,-3.4602,-3.4602,-3.4602,-3.4602,-3.4602,-3.4623,-3.4866,-3.5381,-3.5989,-3.6405,-3.7273,-3.8265,-3.8819,-3.9335,-3.9927,-4.0157,-4.0234,-4.0196,-4.0212,-4.0189,-4.0319,-4.0591,-4.0801,-4.0876,-4.0992,-4.1108,-4.1108,-4.1108,-4.1108,-4.1108,-4.1108,-4.1108,-4.1108,-4.1108,-4.1108,-4.1111,-4.1099,-4.1103,-4.1093,-4.1055,-4.0988,-4.0926,-4.0898,-4.0862,-4.0829,-4.081,-4.079,-4.079,-4.079,-4.079,-4.079,-4.0746,-4.0654,-4.0519,-4.0137,-4.0002,-3.968,-3.9375,-3.8968,-3.8478,-3.7906,-3.7403,-2.5937,-2.6026,-2.617,-2.6225,-2.633,-2.6452,-2.6486,-2.6504,-2.6775,-2.718,-2.7691,-2.8116,-2.8819,-2.9693,-3.0347,-3.0902,-3.1458,-3.1548,-3.1637,-3.1743,-3.2247,-3.2606,-3.2734,-3.2636,-3.2601,-3.2813,-3.3086,-3.3196,-3.3165,-3.3104,-3.3104,-3.3165,-3.3196,-3.3196,-3.3196,-3.3178,-3.3135,-3.3033,-3.2934,-3.282,-3.2692,-3.259,-3.2523,-3.2557,-3.2639,-3.3006,-3.3643,-3.3698,-3.3895,-3.4293,-3.4293,-3.4386,-3.4561,-3.4602,-3.4602,-3.4602,-3.4602,-3.4602,-3.472,-3.5339,-3.5874,-3.6387,-3.7413,-3.8306,-3.8895,-3.9489,-3.9947,-4.0291,-4.031,-4.0329,-4.031,-4.0345,-4.0375,-4.0446,-4.0641,-4.083,-4.0926,-4.1033,-4.1104,-4.1108,-4.1108,-4.1108,-4.1108,-4.1108,-4.1108,-4.1108,-4.1108,-4.1108,-4.1111,-4.1105,-4.1113,-4.1092,-4.1022,-4.0952,-4.0917,-4.0868,-4.0831,-4.0822,-4.081,-4.079,-4.079,-4.079,-4.079,-4.0778,-4.0733,-4.0626,-4.0489,-4.0304,-4.0101,-3.9899,-3.9482,-3.9171,-3.8891,-3.8497,-3.8025,-2.6134,-2.6099,-2.6314,-2.6435,-2.6452,-2.6657,-2.6742,-2.6792,-2.7296,-2.7789,-2.8303,-2.9106,-2.9884,-3.0664,-3.1116,-3.1568,-3.2109,-3.2283,-3.2368,-3.2334,-3.2621,-3.2898,-3.3086,-3.2766,-3.2684,-3.2894,-3.2975,-3.3024,-3.3024,-3.2993,-3.2993,-3.3086,-3.3104,-3.3135,-3.3104,-3.3024,-3.2979,-3.2873,-3.2805,-3.2722,-3.2643,-3.2541,-3.2573,-3.2669,-3.2752,-3.3111,-3.3707,-3.386,-3.4023,-3.4316,-3.4386,-3.4473,-3.4583,-3.4602,-3.4602,-3.4602,-3.462,-3.4714,-3.5093,-3.5713,-3.6498,-3.7164,-3.8233,-3.9089,-3.9451,-4.0081,-4.0291,-4.0329,-4.0329,-4.0329,-4.031,-4.0344,-4.0422,-4.0496,-4.0676,-4.0866,-4.1011,-4.1094,-4.1108,-4.1108,-4.1108,-4.1108,-4.1108,-4.1108,-4.1108,-4.1108,-4.1108,-4.1108,-4.1114,-4.1107,-4.1113,-4.1087,-4.1022,-4.0967,-4.0915,-4.0868,-4.082,-4.0803,-4.081,-4.079,-4.079,-4.079,-4.079,-4.0765,-4.072,-4.0598,-4.0473,-4.0139,-3.9899,-3.9679,-3.9532,-3.9249,-3.897,-3.898,-3.8637,-2.6399,-2.6295,-2.6556,-2.6572,-2.6555,-2.6842,-2.7089,-2.7341,-2.7939,-2.8435,-2.9067,-3.0324,-3.1109,-3.1405,-3.2066,-3.2415,-3.2519,-3.2766,-3.2862,-3.2813,-3.2943,-3.3086,-3.3226,-3.3055,-3.2993,-3.3024,-3.293,-3.2884,-3.2866,-3.2948,-3.3104,-3.3055,-3.3055,-3.3086,-3.3024,-3.2948,-3.2787,-3.271,-3.2639,-3.2537,-3.2457,-3.2456,-3.2573,-3.2795,-3.297,-3.3321,-3.3815,-3.4074,-3.4269,-3.4473,-3.4558,-3.458,-3.4602,-3.4602,-3.4602,-3.4602,-3.4602,-3.5052,-3.5638,-3.6083,-3.6871,-3.8262,-3.8763,-3.9242,-4.0062,-4.0253,-4.031,-4.031,-4.031,-4.0347,-4.0345,-4.0394,-4.0462,-4.0519,-4.0712,-4.0914,-4.1074,-4.1108,-4.1108,-4.1127,-4.1127,-4.1147,-4.1186,-4.1166,-4.1244,-4.1108,-4.1108,-4.1111,-4.1099,-4.1108,-4.1112,-4.1087,-4.1037,-4.0987,-4.0932,-4.0849,-4.0792,-4.08,-4.0796,-4.079,-4.079,-4.079,-4.0746,-4.072,-4.0646,-4.0534,-4.0353,-4.0042,-3.9791,-3.9651,-3.9452,-3.9192,-3.9101,-3.9101,-3.8998,-2.5954,-2.5811,-2.6104,-2.6262,-2.6332,-2.6825,-2.7413,-2.7909,-2.8519,-2.9449,-3.0442,-3.1179,-3.1774,-3.2221,-3.238,-3.2553,-3.2716,-3.2813,-3.2975,-3.3006,-3.3055,-3.3117,-3.3117,-3.3024,-3.2961,-3.293,-3.2834,-3.2654,-3.2654,-3.269,-3.2755,-3.2948,-3.2866,-3.2816,-3.2898,-3.2784,-3.2623,-3.2489,-3.2462,-3.2464,-3.2507,-3.2709,-3.28,-3.2844,-3.3093,-3.3437,-3.3815,-3.4173,-3.4427,-3.4558,-3.4602,-3.4602,-3.4602,-3.4602,-3.4602,-3.4602,-3.4639,-3.4996,-3.5825,-3.6553,-3.7494,-3.8565,-3.9313,-3.9909,-4.0234,-4.031,-4.0327,-4.036,-4.0375,-4.0408,-4.0504,-4.0564,-4.0649,-4.0781,-4.0882,-4.1,-4.1074,-4.1108,-4.1108,-4.1166,-4.1654,-4.1674,-4.1439,-4.1596,-4.1713,-4.1283,-4.1111,-4.1116,-4.1105,-4.1113,-4.1112,-4.1091,-4.1056,-4.102,-4.096,-4.0849,-4.0807,-4.0804,-4.08,-4.0803,-4.079,-4.079,-4.07,-4.0607,-4.0515,-4.0419,-4.0194,-3.9941,-3.9769,-3.9623,-3.9376,-3.9137,-3.9101,-3.9101,-3.8979,-2.5921,-2.5848,-2.6315,-2.6522,-2.664,-2.7379,-2.8019,-2.8615,-2.9516,-3.0423,-3.1352,-3.2001,-3.242,-3.2749,-3.283,-3.2876,-3.2908,-3.2908,-3.2975,-3.2943,-3.293,-3.293,-3.2993,-3.2961,-3.2993,-3.2975,-3.2912,-3.2894,-3.2943,-3.2898,-3.3042,-3.3178,-3.3086,-3.3024,-3.2993,-3.2784,-3.2606,-3.2438,-3.2426,-3.2595,-3.3164,-3.3032,-3.3117,-3.3178,-3.3437,-3.3662,-3.3979,-3.4269,-3.4473,-3.458,-3.4602,-3.4602,-3.4602,-3.4602,-3.4602,-3.4602,-3.4602,-3.5108,-3.622,-3.6964,-3.7829,-3.8961,-3.9785,-4.0059,-4.0253,-4.0328,-4.0377,-4.0408,-4.0473,-4.0515,-4.0588,-4.0668,-4.0798,-4.0913,-4.1,-4.1047,-4.1104,-4.1108,-4.1303,-4.1635,-4.2025,-4.2259,-4.1693,-4.2123,-4.1869,-4.1361,-4.1108,-4.1101,-4.111,-4.1112,-4.1101,-4.109,-4.107,-4.1039,-4.1011,-4.0935,-4.0849,-4.0828,-4.0792,-4.0796,-4.0746,-4.0726,-4.0621,-4.0511,-4.0399,-4.0283,-4.0081,-3.9878,-3.9721,-3.9532,-3.9279,-3.9165,-3.9129,-3.9017,-3.8921,-2.6139,-2.6175,-2.6791,-2.7053,-2.7206,-2.8167,-2.8771,-2.9369,-3.06,-3.142,-3.1961,-3.275,-3.2978,-3.3055,-3.3268,-3.3327,-3.3099,-3.319,-3.3099,-3.3024,-3.288,-3.2848,-3.2993,-3.2988,-3.3019,-3.305,-3.3202,-3.3243,-3.3232,-3.3397,-3.353,-3.3502,-3.352,-3.3415,-3.319,-3.2988,-3.2716,-3.2446,-3.2406,-3.297,-3.3687,-3.3538,-3.3441,-3.3643,-3.3788,-3.3972,-3.4197,-3.4363,-3.445,-3.458,-3.4602,-3.4602,-3.4602,-3.4602,-3.4602,-3.4677,-3.4808,-3.5503,-3.6761,-3.7197,-3.8003,-3.9429,-3.9832,-4.0015,-4.0215,-4.0325,-4.0406,-4.0454,-4.0545,-4.0635,-4.0668,-4.0746,-4.0849,-4.0968,-4.1052,-4.1091,-4.1121,-4.1186,-4.1518,-4.2181,-4.2318,-4.2513,-4.2298,-4.2279,-4.2064,-4.1286,-4.1114,-4.1107,-4.1113,-4.1108,-4.1111,-4.11,-4.1089,-4.1078,-4.1038,-4.1015,-4.0926,-4.0888,-4.0815,-4.0776,-4.0681,-4.0621,-4.0526,-4.0431,-4.0317,-4.0194,-4.0061,-3.9876,-3.9675,-3.9508,-3.9331,-3.9219,-3.9129,-3.896,-3.8803,-2.6262,-2.6123,-2.6539,-2.6841,-2.7186,-2.8201,-2.9197,-3.014,-3.1308,-3.2199,-3.2745,-3.3243,-3.328,-3.319,-3.3444,-3.3473,-3.3291,-3.3455,-3.3569,-3.3444,-3.325,-3.3172,-3.3172,-3.3032,-3.289,-3.2952,-3.3202,-3.3321,-3.335,-3.3437,-3.3455,-3.3605,-3.3541,-3.3426,-3.3473,-3.3273,-3.2925,-3.2511,-3.243,-3.3042,-3.3964,-3.4018,-3.3847,-3.3868,-3.3998,-3.4148,-3.4269,-3.4316,-3.4363,-3.4431,-3.4517,-3.4583,-3.4602,-3.4602,-3.4602,-3.4752,-3.5259,-3.6028,-3.6967,-3.7662,-3.8503,-3.9528,-3.9845,-3.9954,-4.0137,-4.0306,-4.0438,-4.0545,-4.0675,-4.075,-4.0818,-4.084,-4.0897,-4.0988,-4.1011,-4.1052,-4.1174,-4.1663,-4.1807,-4.183,-4.2533,-4.2923,-4.1693,-4.2181,-4.1908,-4.1286,-4.1103,-4.1112,-4.1112,-4.1099,-4.1097,-4.1106,-4.1109,-4.1078,-4.1071,-4.103,-4.0971,-4.0878,-4.0807,-4.0745,-4.0648,-4.0515,-4.0399,-4.0317,-4.0212,-4.0101,-3.9979,-3.9873,-3.9693,-3.9532,-3.9383,-3.9245,-3.9101,-3.8921,-3.8652,-2.6674,-2.674,-2.7083,-2.7494,-2.8146,-2.9127,-3.0226,-3.1278,-3.2256,-3.299,-3.3439,-3.3615,-3.3569,-3.3512,-3.3597,-3.3597,-3.3465,-3.3494,-3.3541,-3.3426,-3.3321,-3.3302,-3.3332,-3.3302,-3.3273,-3.3332,-3.3588,-3.3716,-3.3725,-3.3698,-3.3823,-3.3868,-3.377,-3.3734,-3.3698,-3.3597,-3.3364,-3.3049,-3.2885,-3.3287,-3.4055,-3.4201,-3.4173,-3.4023,-3.4105,-3.4221,-3.4264,-3.4269,-3.4316,-3.4363,-3.4431,-3.4517,-3.4561,-3.4561,-3.4602,-3.4733,-3.5428,-3.6254,-3.7061,-3.785,-3.8667,-3.9637,-3.9781,-3.9911,-4.0077,-4.0271,-4.0422,-4.0574,-4.07,-4.0815,-4.0878,-4.0888,-4.0926,-4.0943,-4.098,-4.1011,-4.111,-4.1481,-4.1878,-4.1807,-4.2494,-4.2494,-4.224,-4.2142,-4.1839,-4.1258,-4.1107,-4.1113,-4.1103,-4.1101,-4.11,-4.1114,-4.1103,-4.1104,-4.1085,-4.1045,-4.0988,-4.0888,-4.0787,-4.0694,-4.0554,-4.0434,-4.0266,-4.0194,-4.0101,-4.002,-3.9933,-3.9804,-3.9717,-3.9532,-3.9383,-3.9245,-3.9017,-3.8725,-3.8478,-2.7238,-2.7589,-2.7946,-2.855,-2.9358,-3.037,-3.1363,-3.2347,-3.3195,-3.3616,-3.3876,-3.386,-3.3762,-3.3797,-3.3895,-3.3842,-3.3823,-3.3707,-3.3768,-3.376,-3.3742,-3.3723,-3.3742,-3.3891,-3.3986,-3.3998,-3.4074,-3.4148,-3.4148,-3.4179,-3.4055,-3.413,-3.4173,-3.4023,-3.3868,-3.3842,-3.3762,-3.3606,-3.3523,-3.3629,-3.4097,-3.421,-3.4191,-3.4173,-3.4173,-3.4197,-3.424,-3.4245,-3.4269,-3.4311,-3.434,-3.4409,-3.4473,-3.4558,-3.4602,-3.4658,-3.5578,-3.6441,-3.7136,-3.7981,-3.893,-3.967,-3.9708,-3.9804,-3.9996,-4.0215,-4.0386,-4.054,-4.0681,-4.0856,-4.0898,-4.0888,-4.0888,-4.0917,-4.0943,-4.0988,-4.1003,-4.1052,-4.1437,-4.1937,-4.2272,-4.2291,-4.2084,-4.1914,-4.1611,-4.1324,-4.119,-4.1113,-4.1114,-4.1105,-4.11,-4.1109,-4.1117,-4.111,-4.1085,-4.1045,-4.0996,-4.0888,-4.0776,-4.0617,-4.0477,-4.0334,-4.0195,-4.012,-4.004,-3.9935,-3.9911,-3.9848,-3.9739,-3.9556,-3.9383,-3.9219,-3.8913,-3.859,-3.8285,-2.788,-2.811,-2.878,-2.9368,-3.0023,-3.1347,-3.2172,-3.2693,-3.3448,-3.3788,-3.3842,-3.3834,-3.385,-3.3943,-3.4147,-3.4375,-3.4486,-3.4464,-3.4508,-3.4508,-3.4508,-3.4508,-3.4486,-3.4526,-3.463,-3.4591,-3.4435,-3.4269,-3.4221,-3.4148,-3.4173,-3.4148,-3.4124,-3.4074,-3.4074,-3.4099,-3.4074,-3.4028,-3.3968,-3.4074,-3.4136,-3.4185,-3.4197,-3.4197,-3.4197,-3.4197,-3.4216,-3.4221,-3.4221,-3.4221,-3.4232,-3.4298,-3.4363,-3.451,-3.4595,-3.4902,-3.5972,-3.6892,-3.7211,-3.8488,-3.9282,-3.9607,-3.9693,-3.9722,-3.9892,-4.0138,-4.0364,-4.0501,-4.0711,-4.0888,-4.0888,-4.0888,-4.0888,-4.0888,-4.0897,-4.0935,-4.0988,-4.103,-4.1085,-4.1457,-4.1861,-4.2147,-4.183,-4.1609,-4.1403,-4.123,-4.1167,-4.1101,-4.1117,-4.1106,-4.1103,-4.1117,-4.111,-4.111,-4.111,-4.1038,-4.0968,-4.0869,-4.0723,-4.0535,-4.0383,-4.0212,-4.0101,-4.004,-3.9979,-3.9914,-3.9889,-3.9889,-3.9717,-3.9483,-3.9331,-3.9165,-3.8766,-3.835,-3.8153,-2.8255,-2.8502,-2.9417,-3.017,-3.0881,-3.2034,-3.2907,-3.3451,-3.3882,-3.4049,-3.4049,-3.4049,-3.4105,-3.4255,-3.4371,-3.463,-3.4851,-3.4908,-3.4908,-3.4908,-3.4908,-3.4908,-3.4946,-3.4946,-3.487,-3.4793,-3.4609,-3.4502,-3.4502,-3.4367,-3.4293,-3.4221,-3.4148,-3.4099,-3.4124,-3.4148,-3.4154,-3.4173,-3.4167,-3.4167,-3.4099,-3.408,-3.4105,-3.4148,-3.413,-3.4173,-3.4197,-3.4216,-3.4216,-3.4197,-3.4203,-3.425,-3.4316,-3.44,-3.4529,-3.4839,-3.6118,-3.7075,-3.7361,-3.8601,-3.9545,-3.9607,-3.9703,-3.9826,-3.9918,-4.0157,-4.0392,-4.0577,-4.0711,-4.0888,-4.0907,-4.0888,-4.0888,-4.0888,-4.0888,-4.0897,-4.0935,-4.0943,-4.0984,-4.1033,-4.1304,-4.1491,-4.1367,-4.1203,-4.1151,-4.111,-4.1111,-4.1109,-4.1111,-4.1114,-4.111,-4.111,-4.111,-4.111,-4.1104,-4.1038,-4.0952,-4.0829,-4.0655,-4.0457,-4.03,-4.012,-4.004,-3.9977,-3.9933,-3.9889,-3.9867,-3.9845,-3.9623,-3.9408,-3.92,-3.8923,-3.8523,-3.8186,-3.7984,-2.8699,-2.9059,-3.0176,-3.108,-3.1906,-3.2883,-3.3655,-3.4221,-3.4363,-3.4431,-3.4409,-3.4386,-3.4498,-3.4689,-3.4791,-3.4889,-3.5038,-3.517,-3.5359,-3.5396,-3.5396,-3.534,-3.5265,-3.5057,-3.5,-3.5018,-3.4926,-3.4851,-3.4693,-3.4567,-3.4498,-3.4409,-3.4245,-3.4191,-3.4245,-3.4358,-3.4245,-3.4179,-3.4136,-3.4105,-3.4023,-3.3998,-3.4023,-3.4074,-3.4074,-3.4099,-3.4173,-3.4173,-3.4197,-3.4221,-3.4269,-3.4335,-3.4381,-3.4446,-3.4514,-3.4846,-3.6114,-3.6892,-3.757,-3.8662,-3.965,-3.9777,-3.9835,-3.9922,-4.0062,-4.0248,-4.0462,-4.0681,-4.0815,-4.0888,-4.0888,-4.0898,-4.0898,-4.0888,-4.0888,-4.0888,-4.0917,-4.0935,-4.0976,-4.0993,-4.0987,-4.1033,-4.1091,-4.1113,-4.111,-4.1101,-4.1113,-4.1111,-4.1109,-4.1103,-4.111,-4.111,-4.111,-4.111,-4.1078,-4.1038,-4.0935,-4.0809,-4.0584,-4.038,-4.0194,-4.002,-3.9977,-3.9954,-3.9933,-3.9889,-3.9867,-3.9758,-3.9551,-3.935,-3.9036,-3.8718,-3.8332,-3.8052,-3.7828,-2.9467,-3.0368,-3.1355,-3.2377,-3.3259,-3.4166,-3.4661,-3.4773,-3.4792,-3.4831,-3.4772,-3.4812,-3.4908,-3.5166,-3.5369,-3.5426,-3.5671,-3.6136,-3.6427,-3.6427,-3.6427,-3.6427,-3.6324,-3.5637,-3.5465,-3.5356,-3.5261,-3.5034,-3.4832,-3.4674,-3.4591,-3.4567,-3.4536,-3.451,-3.4502,-3.4569,-3.4599,-3.4371,-3.4162,-3.4027,-3.4012,-3.4023,-3.4005,-3.4023,-3.4023,-3.4049,-3.4099,-3.4124,-3.4148,-3.4221,-3.4409,-3.4539,-3.4602,-3.4751,-3.4812,-3.5247,-3.6109,-3.7175,-3.7657,-3.8842,-3.98,-3.9979,-4.0023,-4.0042,-4.0213,-4.0386,-4.0568,-4.0754,-4.0826,-4.0867,-4.0888,-4.0888,-4.0898,-4.0907,-4.0917,-4.0917,-4.0926,-4.0948,-4.0987,-4.0992,-4.0998,-4.1035,-4.1077,-4.1094,-4.1114,-4.1117,-4.1115,-4.1114,-4.111,-4.111,-4.111,-4.111,-4.1104,-4.1104,-4.1057,-4.0996,-4.0869,-4.0754,-4.0549,-4.0315,-4.0158,-4.0019,-3.9935,-3.9911,-3.9911,-3.9848,-3.9781,-3.9665,-3.9477,-3.92,-3.8847,-3.8517,-3.8201,-3.7915,-3.7685,-3.0565,-3.0471,-3.2094,-3.2994,-3.3488,-3.4472,-3.4921,-3.4912,-3.4906,-3.487,-3.4851,-3.4889,-3.5247,-3.5815,-3.6108,-3.6454,-3.6892,-3.7271,-3.743,-3.743,-3.7416,-3.7382,-3.7179,-3.6531,-3.6078,-3.5848,-3.5573,-3.5226,-3.5,-3.4851,-3.4793,-3.4753,-3.4666,-3.458,-3.4655,-3.4699,-3.464,-3.4515,-3.4367,-3.4255,-3.4179,-3.4142,-3.4074,-3.3965,-3.3954,-3.4005,-3.4099,-3.4099,-3.4105,-3.4184,-3.4319,-3.4451,-3.4628,-3.4885,-3.5192,-3.5851,-3.667,-3.7354,-3.7738,-3.907,-3.9814,-4.0157,-4.0226,-4.0354,-4.0496,-4.0612,-4.0694,-4.0792,-4.0792,-4.0834,-4.0886,-4.0897,-4.0898,-4.0907,-4.0941,-4.0937,-4.096,-4.0978,-4.0988,-4.1003,-4.1016,-4.1064,-4.1089,-4.1093,-4.1114,-4.1105,-4.1111,-4.1114,-4.1117,-4.111,-4.111,-4.111,-4.1104,-4.1071,-4.1015,-4.0945,-4.0765,-4.0623,-4.0526,-4.0319,-4.0177,-4.0057,-3.9975,-3.9933,-3.9911,-3.9826,-3.9735,-3.9526,-3.9324,-3.8971,-3.8573,-3.8296,-3.8018,-3.781,-3.7613,-3.1827,-3.1199,-3.2821,-3.362,-3.3842,-3.4713,-3.5063,-3.5085,-3.5105,-3.5069,-3.5124,-3.5381,-3.6013,-3.6733,-3.707,-3.7404,-3.8029,-3.8273,-3.8369,-3.8375,-3.8309,-3.8161,-3.7718,-3.7098,-3.6464,-3.6305,-3.5622,-3.5327,-3.5207,-3.5088,-3.4981,-3.4963,-3.487,-3.4792,-3.4794,-3.4829,-3.4827,-3.4676,-3.4532,-3.4439,-3.4358,-3.4335,-3.4203,-3.413,-3.4055,-3.4087,-3.4154,-3.4197,-3.4221,-3.4311,-3.4355,-3.4521,-3.4792,-3.5077,-3.5598,-3.6313,-3.7181,-3.7791,-3.8359,-3.9294,-4.0034,-4.0326,-4.0457,-4.0604,-4.0726,-4.079,-4.0803,-4.0808,-4.0808,-4.0831,-4.0876,-4.0888,-4.0915,-4.0937,-4.0981,-4.098,-4.0989,-4.1003,-4.1041,-4.1047,-4.1073,-4.1074,-4.1111,-4.111,-4.1116,-4.11,-4.11,-4.1109,-4.1097,-4.111,-4.111,-4.111,-4.1085,-4.1064,-4.0963,-4.0849,-4.0681,-4.053,-4.0422,-4.0323,-4.0196,-4.0077,-4.0015,-3.9954,-3.9911,-3.9758,-3.9599,-3.9383,-3.9146,-3.8789,-3.8455,-3.8135,-3.7863,-3.7685,-3.7485,-3.3354,-3.3317,-3.3703,-3.4346,-3.5021,-3.5343,-3.5488,-3.5495,-3.5531,-3.5584,-3.5778,-3.6463,-3.7267,-3.7957,-3.8142,-3.8239,-3.8412,-3.9131,-3.9364,-3.9432,-3.9363,-3.8988,-3.8373,-3.7539,-3.6595,-3.6003,-3.5565,-3.5412,-3.5388,-3.5442,-3.5267,-3.5176,-3.5299,-3.52,-3.516,-3.5176,-3.5062,-3.487,-3.4715,-3.4572,-3.4526,-3.4505,-3.4483,-3.4423,-3.4423,-3.4442,-3.4375,-3.4367,-3.4431,-3.4529,-3.4602,-3.4756,-3.5035,-3.5583,-3.6189,-3.6823,-3.7644,-3.8373,-3.9173,-3.9704,-4.0216,-4.0593,-4.0739,-4.0752,-4.079,-4.079,-4.0803,-4.0822,-4.0822,-4.0834,-4.0884,-4.0907,-4.094,-4.0972,-4.1007,-4.1019,-4.1035,-4.1069,-4.1094,-4.1094,-4.1111,-4.1105,-4.1101,-4.1101,-4.1116,-4.1105,-4.11,-4.1109,-4.1103,-4.111,-4.111,-4.1104,-4.1085,-4.103,-4.0907,-4.0765,-4.0602,-4.0473,-4.036,-4.0308,-4.0215,-4.0137,-4.0036,-3.9933,-3.9867,-3.9689,-3.9452,-3.92,-3.8905,-3.8628,-3.8332,-3.8052,-3.7792,-3.7559,-3.7319,-3.4452,-3.4674,-3.485,-3.5002,-3.523,-3.5456,-3.5596,-3.5659,-3.5639,-3.5977,-3.6581,-3.7366,-3.8228,-3.8877,-3.9138,-3.9382,-3.9809,-4.012,-4.0276,-4.0315,-4.0195,-4.0026,-3.9321,-3.8361,-3.7456,-3.689,-3.6151,-3.547,-3.5489,-3.5839,-3.6147,-3.6157,-3.6109,-3.6012,-3.5935,-3.5624,-3.5308,-3.5181,-3.5038,-3.4908,-3.4753,-3.4733,-3.4693,-3.4508,-3.4489,-3.452,-3.4551,-3.4583,-3.4666,-3.4751,-3.4831,-3.5051,-3.5512,-3.6334,-3.7065,-3.7507,-3.8277,-3.908,-3.9837,-4.0242,-4.053,-4.0706,-4.079,-4.079,-4.079,-4.079,-4.081,-4.0848,-4.0868,-4.0873,-4.0936,-4.0957,-4.0988,-4.1013,-4.1025,-4.105,-4.1073,-4.1093,-4.1108,-4.1107,-4.1103,-4.1114,-4.1111,-4.1111,-4.1104,-4.1113,-4.1115,-4.1114,-4.1103,-4.1091,-4.1085,-4.1064,-4.1038,-4.0926,-4.0807,-4.0668,-4.0534,-4.0411,-4.0309,-4.0291,-4.0234,-4.0157,-4.0057,-3.9933,-3.9717,-3.9483,-3.9208,-3.8961,-3.8718,-3.8523,-3.8285,-3.8002,-3.7739,-3.7468,-3.715,-3.5107,-3.5393,-3.5457,-3.5407,-3.5348,-3.5554,-3.5814,-3.6084,-3.6077,-3.6736,-3.7847,-3.8482,-3.9186,-3.9843,-4.0064,-4.0259,-4.0655,-4.0824,-4.084,-4.0824,-4.0799,-4.0674,-4.0059,-3.9301,-3.8399,-3.7928,-3.6849,-3.5948,-3.6045,-3.6542,-3.6871,-3.7088,-3.7286,-3.7271,-3.6769,-3.6334,-3.5935,-3.5935,-3.5919,-3.5694,-3.5495,-3.54,-3.5116,-3.4868,-3.4755,-3.4735,-3.4791,-3.4793,-3.4851,-3.5058,-3.5278,-3.5531,-3.622,-3.7083,-3.8104,-3.8561,-3.8969,-3.9696,-4.0303,-4.0612,-4.0668,-4.079,-4.079,-4.079,-4.079,-4.079,-4.081,-4.0848,-4.088,-4.0924,-4.0981,-4.0974,-4.1004,-4.1033,-4.1074,-4.1091,-4.109,-4.1103,-4.1099,-4.1114,-4.1108,-4.1108,-4.1108,-4.1108,-4.1101,-4.1094,-4.11,-4.11,-4.1109,-4.1091,-4.1071,-4.1003,-4.0952,-4.0828,-4.0688,-4.0593,-4.0473,-4.0398,-4.0329,-4.031,-4.0273,-4.0176,-4.0015,-3.9848,-3.958,-3.9268,-3.8961,-3.8688,-3.8572,-3.8465,-3.8204,-3.7916,-3.7703,-3.7431,-3.6978,-3.5212,-3.5398,-3.543,-3.554,-3.5694,-3.5689,-3.6218,-3.6931,-3.7097,-3.7984,-3.9364,-3.9672,-4.0164,-4.0801,-4.0816,-4.091,-4.0992,-4.1055,-4.107,-4.1052,-4.1006,-4.0571,-4.013,-3.9579,-3.9072,-3.8287,-3.7288,-3.6637,-3.6753,-3.7,-3.7378,-3.808,-3.8524,-3.8667,-3.7947,-3.7704,-3.7615,-3.7578,-3.7481,-3.6988,-3.657,-3.64,-3.602,-3.5678,-3.5508,-3.5511,-3.5529,-3.553,-3.5581,-3.571,-3.6176,-3.6469,-3.681,-3.8104,-3.8907,-3.9142,-3.9277,-3.9758,-4.0408,-4.0607,-4.07,-4.0759,-4.079,-4.079,-4.079,-4.079,-4.0829,-4.0868,-4.0887,-4.0946,-4.0964,-4.0992,-4.1033,-4.1071,-4.1101,-4.1116,-4.1116,-4.1116,-4.1111,-4.1108,-4.1108,-4.1108,-4.1108,-4.1108,-4.1081,-4.1094,-4.11,-4.1106,-4.1089,-4.1046,-4.1011,-4.0897,-4.0819,-4.073,-4.0588,-4.0534,-4.0444,-4.0364,-4.0291,-4.0291,-4.0215,-4.0117,-3.9933,-3.9739,-3.9364,-3.8971,-3.8688,-3.8401,-3.8336,-3.8271,-3.8088,-3.7846,-3.7685,-3.7356,-3.6803,-3.5107,-3.5403,-3.6048,-3.6431,-3.659,-3.6629,-3.6871,-3.7332,-3.8332,-3.9243,-3.9842,-4.0344,-4.0753,-4.1049,-4.1108,-4.1108,-4.1108,-4.1108,-4.1104,-4.1109,-4.11,-4.0939,-4.0526,-4.0013,-3.9548,-3.8921,-3.7955,-3.7084,-3.7007,-3.7434,-3.788,-3.8539,-3.9518,-3.9676,-3.8873,-3.8308,-3.7808,-3.7792,-3.7723,-3.754,-3.733,-3.729,-3.7137,-3.6774,-3.6719,-3.6697,-3.6692,-3.6659,-3.6703,-3.6748,-3.7226,-3.7275,-3.7723,-3.8965,-3.9619,-3.9638,-3.9662,-4.0215,-4.0515,-4.0612,-4.0668,-4.0713,-4.0778,-4.081,-4.079,-4.079,-4.0848,-4.0906,-4.0958,-4.1014,-4.1121,-4.1071,-4.109,-4.1101,-4.1111,-4.1111,-4.1111,-4.1111,-4.1108,-4.1108,-4.1108,-4.1108,-4.1108,-4.1104,-4.1081,-4.1066,-4.1072,-4.1019,-4.0967,-4.0937,-4.0896,-4.0757,-4.0681,-4.0602,-4.0519,-4.0444,-4.0413,-4.0328,-4.0291,-4.0272,-4.0176,-4.0017,-3.9804,-3.9556,-3.9109,-3.8688,-3.851,-3.8354,-3.8189,-3.8054,-3.7969,-3.7864,-3.7667,-3.715,-3.6464,-3.5489,-3.5854,-3.6819,-3.737,-3.7541,-3.758,-3.774,-3.8296,-3.9591,-4.0238,-4.0354,-4.0855,-4.1108,-4.1108,-4.1108,-4.1108,-4.1108,-4.1108,-4.1108,-4.1109,-4.1109,-4.1037,-4.0797,-4.0442,-4.0025,-3.9427,-3.8405,-3.7486,-3.715,-3.7974,-3.8723,-3.951,-4.0286,-4.0333,-3.9809,-3.9303,-3.896,-3.9003,-3.8992,-3.87,-3.8415,-3.8191,-3.8063,-3.7778,-3.7668,-3.7689,-3.78,-3.7907,-3.7974,-3.7963,-3.8031,-3.805,-3.8796,-3.9484,-4.0158,-4.0062,-4.0104,-4.0504,-4.0534,-4.0579,-4.0621,-4.0668,-4.0746,-4.0829,-4.0848,-4.0868,-4.0906,-4.0977,-4.1016,-4.1082,-4.115,-4.1101,-4.1107,-4.1099,-4.1108,-4.1108,-4.1108,-4.1108,-4.1108,-4.1108,-4.1104,-4.1108,-4.1104,-4.1085,-4.1078,-4.1057,-4.1056,-4.0948,-4.0874,-4.0839,-4.078,-4.0649,-4.0545,-4.0504,-4.0427,-4.0381,-4.0328,-4.031,-4.0291,-4.0253,-4.0019,-3.9832,-3.9604,-3.9357,-3.8933,-3.8597,-3.8446,-3.8303,-3.8156,-3.8054,-3.7969,-3.781,-3.7667,-3.7017,-3.6256,-3.6307,-3.6776,-3.7706,-3.8241,-3.8438,-3.8591,-3.9068,-3.9772,-4.0657,-4.1003,-4.1,-4.1035,-4.1108,-4.1108,-4.1108,-4.1108,-4.1108,-4.1108,-4.1108,-4.103,-4.0909,-4.0953,-4.1003,-4.0833,-4.024,-3.9585,-3.87,-3.7743,-3.7284,-3.7974,-3.9159,-4.0353,-4.076,-4.0799,-4.0616,-4.0419,-4.021,-4.012,-4.005,-3.9739,-3.9397,-3.9259,-3.8945,-3.8631,-3.8396,-3.8353,-3.8372,-3.8388,-3.8303,-3.8466,-3.8839,-3.9161,-3.9585,-4.0085,-4.0354,-4.0489,-4.0469,-4.0485,-4.0519,-4.0579,-4.0626,-4.0693,-4.0823,-4.0887,-4.0912,-4.0936,-4.0978,-4.1021,-4.1054,-4.1083,-4.1102,-4.1105,-4.1111,-4.1103,-4.1111,-4.1111,-4.1108,-4.1108,-4.1108,-4.1108,-4.1081,-4.1078,-4.1074,-4.1051,-4.0998,-4.0954,-4.091,-4.083,-4.0751,-4.0718,-4.0655,-4.0545,-4.0476,-4.043,-4.0363,-4.031,-4.0329,-4.0329,-4.0291,-4.0215,-3.9937,-3.9614,-3.9345,-3.9054,-3.8748,-3.851,-3.8354,-3.8256,-3.8156,-3.802,-3.7881,-3.7613,-3.7411,-3.6821,-3.613,-3.6826,-3.7665,-3.8587,-3.9116,-3.9478,-4.007,-4.0471,-4.0688,-4.1003,-4.1086,-4.1086,-4.1097,-4.1225,-4.1108,-4.1108,-4.1166,-4.1127,-4.1108,-4.1108,-4.0932,-4.0561,-4.0714,-4.0707,-4.0559,-4.0092,-3.9544,-3.8819,-3.7955,-3.744,-3.7941,-3.9255,-4.0625,-4.0957,-4.0999,-4.0979,-4.0929,-4.0876,-4.0811,-4.0729,-4.0502,-4.0316,-4.0176,-3.9863,-3.9662,-3.9509,-3.9496,-3.9521,-3.955,-3.9561,-3.9781,-3.995,-4.0142,-4.0215,-4.0373,-4.0489,-4.0489,-4.0504,-4.0504,-4.0573,-4.0641,-4.0703,-4.0777,-4.0933,-4.0945,-4.0955,-4.0955,-4.1034,-4.1082,-4.1091,-4.1102,-4.1133,-4.1133,-4.1113,-4.1107,-4.1116,-4.1108,-4.1108,-4.1108,-4.1108,-4.1074,-4.107,-4.1028,-4.1022,-4.0948,-4.0879,-4.083,-4.077,-4.0703,-4.0642,-4.0604,-4.0535,-4.0441,-4.0396,-4.0382,-4.0346,-4.031,-4.031,-4.0291,-4.0253,-4.0098,-3.9766,-3.9445,-3.9117,-3.8799,-3.8523,-3.8368,-3.8241,-3.8174,-3.814,-3.7863,-3.7667,-3.7394,-3.7073,-3.6481,-3.5977,-3.7811,-3.8598,-3.9476,-3.999,-4.0299,-4.0785,-4.0993,-4.1013,-4.1081,-4.1228,-4.1574,-4.1624,-4.181,-4.2181,-4.2201,-4.2025,-4.1674,-4.1674,-4.1537,-4.0893,-4.0249,-4.0542,-4.0535,-4.0239,-3.965,-3.9208,-3.8638,-3.7786,-3.7336,-3.8007,-3.928,-4.0805,-4.1013,-4.1031,-4.1042,-4.1022,-4.0998,-4.0942,-4.0898,-4.0837,-4.08,-4.0781,-4.0721,-4.0665,-4.0622,-4.0617,-4.0605,-4.0592,-4.0558,-4.0562,-4.0546,-4.0489,-4.0469,-4.0489,-4.0489,-4.0504,-4.0539,-4.0577,-4.065,-4.0714,-4.0771,-4.0854,-4.0989,-4.1023,-4.1053,-4.1054,-4.1098,-4.1123,-4.113,-4.1133,-4.1152,-4.1172,-4.1133,-4.1108,-4.1101,-4.1111,-4.1108,-4.1108,-4.1078,-4.1061,-4.1017,-4.0987,-4.0926,-4.0837,-4.0781,-4.0768,-4.0711,-4.0668,-4.0588,-4.0515,-4.0454,-4.0358,-4.0345,-4.0329,-4.0311,-4.0291,-4.0273,-4.0234,-4.0118,-3.9935,-3.9585,-3.9242,-3.8876,-3.8597,-3.8336,-3.8241,-3.8192,-3.8192,-3.814,-3.7828,-3.7487,-3.7132,-3.6724,-3.6232,-3.5776,-3.9122,-3.9488,-4.0372,-4.0729,-4.0878,-4.0926,-4.0949,-4.1026,-4.1192,-4.1607,-4.2192,-4.2342,-4.2747,-4.3177,-4.3294,-4.3001,-4.2669,-4.2494,-4.222,-4.1244,-4.0503,-4.0603,-4.0879,-4.0271,-3.9459,-3.8836,-3.8346,-3.7929,-3.7112,-3.7767,-3.9283,-4.0915,-4.1052,-4.1072,-4.1088,-4.1088,-4.1065,-4.1058,-4.1028,-4.0974,-4.0968,-4.0928,-4.0898,-4.0866,-4.083,-4.0812,-4.0766,-4.0718,-4.0668,-4.0636,-4.0607,-4.0545,-4.0559,-4.0534,-4.0534,-4.0539,-4.0588,-4.0631,-4.0723,-4.0791,-4.0861,-4.0931,-4.1011,-4.1079,-4.1121,-4.112,-4.1166,-4.1172,-4.1172,-4.1172,-4.1191,-4.1191,-4.1172,-4.1128,-4.1099,-4.1111,-4.1108,-4.1078,-4.1028,-4.098,-4.0926,-4.0885,-4.082,-4.0759,-4.068,-4.0681,-4.0655,-4.0607,-4.0549,-4.0476,-4.0394,-4.0325,-4.0308,-4.031,-4.0273,-4.0273,-4.0234,-4.0157,-3.9996,-3.9656,-3.9294,-3.8961,-3.8646,-3.8433,-3.8241,-3.8225,-3.8192,-3.8192,-3.8106,-3.7863,-3.7487,-3.6904,-3.6422,-3.5933,-3.5526,-3.9682,-4.0391,-4.0781,-4.0926,-4.0897,-4.0943,-4.0988,-4.105,-4.1734,-4.2139,-4.2362,-4.2487,-4.2982,-4.3821,-4.3938,-4.3684,-4.3489,-4.3372,-4.3255,-4.2497,-4.1482,-4.1297,-4.1595,-4.064,-3.9511,-3.8769,-3.8398,-3.8163,-3.7869,-3.8353,-3.9248,-4.0828,-4.1048,-4.1053,-4.111,-4.1108,-4.1108,-4.1107,-4.1091,-4.1074,-4.1051,-4.1046,-4.1033,-4.1,-4.0964,-4.089,-4.0849,-4.0789,-4.0762,-4.0762,-4.0761,-4.074,-4.074,-4.0687,-4.0649,-4.0655,-4.0665,-4.0709,-4.0781,-4.0886,-4.0965,-4.1036,-4.1106,-4.1137,-4.1179,-4.1195,-4.1211,-4.1211,-4.125,-4.1269,-4.1191,-4.1191,-4.1191,-4.1147,-4.1099,-4.1114,-4.1108,-4.1033,-4.0948,-4.0882,-4.0811,-4.0768,-4.0723,-4.0662,-4.0588,-4.0545,-4.053,-4.0519,-4.0539,-4.0476,-4.0394,-4.0342,-4.0325,-4.029,-4.0253,-4.0157,-4.0098,-3.9933,-3.9739,-3.9389,-3.8971,-3.8688,-3.8433,-3.8322,-3.8192,-3.8192,-3.8192,-3.8192,-3.8072,-3.781,-3.7303,-3.6689,-3.6215,-3.5688,-3.5316,-4.0188,-4.0706,-4.0898,-4.0935,-4.0917,-4.0935,-4.098,-4.1159,-4.1916,-4.2563,-4.3045,-4.3408,-4.4016,-4.4738,-4.4855,-4.4484,-4.4348,-4.427,-4.3899,-4.3297,-4.272,-4.2454,-4.1932,-4.1269,-4.0503,-3.9637,-3.8344,-3.7938,-3.8356,-3.8589,-3.9274,-4.0761,-4.105,-4.1051,-4.1112,-4.1112,-4.1113,-4.1113,-4.1108,-4.1103,-4.1101,-4.1094,-4.1085,-4.1057,-4.1033,-4.0983,-4.0947,-4.0889,-4.0887,-4.0859,-4.0829,-4.0801,-4.0781,-4.0751,-4.0729,-4.0746,-4.0769,-4.0797,-4.0892,-4.097,-4.1083,-4.1189,-4.1191,-4.1211,-4.1797,-4.1816,-4.1504,-4.1523,-4.1816,-4.1855,-4.1328,-4.1172,-4.115,-4.1125,-4.1094,-4.1085,-4.1037,-4.0942,-4.0874,-4.08,-4.0723,-4.0687,-4.0642,-4.0588,-4.0534,-4.0534,-4.0504,-4.0504,-4.0508,-4.046,-4.0394,-4.0325,-4.0271,-4.0177,-4.0098,-3.9975,-3.9892,-3.9717,-3.9502,-3.9127,-3.8748,-3.8478,-3.8241,-3.8225,-3.8192,-3.8192,-3.8192,-3.8158,-3.788,-3.7542,-3.7002,-3.6411,-3.5959,-3.5526,-3.5195,-4.0574,-4.0725,-4.0868,-4.0907,-4.0888,-4.0888,-4.0935,-4.1171,-4.2052,-4.2947,-4.3734,-4.4653,-4.5597,-4.6066,-4.6261,-4.5753,-4.5363,-4.5187,-4.4699,-4.4164,-4.3296,-4.3398,-4.3065,-4.2318,-4.1345,-4.004,-3.8619,-3.8341,-3.8482,-3.8799,-3.9544,-4.0803,-4.1109,-4.1104,-4.1108,-4.1119,-4.1105,-4.1108,-4.1113,-4.1113,-4.111,-4.1101,-4.1091,-4.1088,-4.1108,-4.1108,-4.1078,-4.1037,-4.1,-4.0981,-4.0921,-4.0906,-4.0871,-4.0855,-4.0857,-4.0858,-4.0868,-4.0927,-4.0985,-4.1082,-4.1234,-4.1348,-4.1328,-4.168,-4.2305,-4.2519,-4.2226,-4.2148,-4.2441,-4.2187,-4.166,-4.1185,-4.1162,-4.1069,-4.1055,-4.1033,-4.0935,-4.0866,-4.077,-4.0694,-4.0642,-4.0602,-4.0559,-4.0504,-4.0504,-4.0489,-4.0489,-4.0489,-4.0473,-4.0372,-4.0304,-4.0196,-4.01,-4.0019,-3.9892,-3.9758,-3.9623,-3.9477,-3.9219,-3.8855,-3.8559,-3.8387,-3.8274,-3.8225,-3.8192,-3.8192,-3.8106,-3.8002,-3.7703,-3.7323,-3.6631,-3.6096,-3.5812,-3.5436,-3.5102,-4.0607,-4.08,-4.0867,-4.0908,-4.0907,-4.0888,-4.0954,-4.1268,-4.2675,-4.3512,-4.4065,-4.5316,-4.6202,-4.63,-4.63,-4.6066,-4.5929,-4.589,-4.6002,-4.5699,-4.4686,-4.4588,-4.4301,-4.343,-4.19,-4.0437,-3.9154,-3.8622,-3.8979,-3.9408,-4.0017,-4.1022,-4.1103,-4.11,-4.1115,-4.1109,-4.1104,-4.1111,-4.1101,-4.1111,-4.1113,-4.1111,-4.1114,-4.1108,-4.1108,-4.1108,-4.1104,-4.1085,-4.1078,-4.1055,-4.1046,-4.1037,-4.1003,-4.0955,-4.0961,-4.0948,-4.0968,-4.1101,-4.1196,-4.1318,-4.1504,-4.2148,-4.2266,-4.2578,-4.3262,-4.4004,-4.3672,-4.3301,-4.3301,-4.2695,-4.2138,-4.1484,-4.1238,-4.1039,-4.0957,-4.0876,-4.078,-4.0726,-4.0674,-4.0602,-4.0564,-4.0534,-4.0534,-4.0489,-4.0489,-4.0489,-4.0489,-4.0489,-4.0441,-4.0339,-4.0213,-4.0042,-3.9918,-3.9788,-3.9647,-3.9427,-3.9272,-3.9129,-3.896,-3.8743,-3.8528,-3.8387,-3.8274,-3.8225,-3.8192,-3.8192,-3.8088,-3.7915,-3.7524,-3.7061,-3.6305,-3.5786,-3.5537,-3.5345,-3.5024]}]]